[[{"header":{"parameterUnit":"m.s-1","parameterCategory":1,"la1":30.6,"la2":28.766,"lo1":-90.7593,"lo2":-88.6598,"dx":0.0162,"dy":0.0183,"nx":116,"ny":114,"refTime":"2022-12-05T18:00:00:Z","depth":0,"parameterNumber":2,"parameterNumberName":"U-component_of_WINDS"},"data":[0.0,0.0,0.0,0.0,0.0,0.0,0.0,0.0,0.0,0.0,0.0,0.0,0.0,0.0,0.0,0.0,0.0,0.0,0.0,0.0,0.0,0.0,0.0,0.0,0.0,0.0,0.0,0.0,0.0,0.0,0.0,0.0,0.0,0.0,0.0,0.0,0.0,0.0,0.0,0.0,0.0,0.0,0.0,0.0,0.0,0.0,0.0,0.0,0.0,0.0,0.0,0.0,0.0,0.0,0.0,0.0,0.0,0.0,0.0,0.0,0.0,0.0,0.0,0.0,0.0,0.0,0.0,0.0,0.0,0.0,0.0,0.0,0.0,0.0,0.0,0.0,0.0,0.0,0.0,0.0,0.0,0.0,0.0,0.0,0.0,0.0,0.0,0.0,0.0,0.0,0.0,0.0,0.0,0.0,0.0,0.0,0.0,0.0,0.0,0.0,0.0,0.0,0.0,0.0,0.0,0.0,0.0,0.0,0.0,0.0,0.0,0.0,0.0,0.0,0.0,0.0,0.0,0.0,0.0,0.0,0.0,0.0,0.0,0.0,0.0,0.0,0.0,0.0,0.0,0.0,0.0,0.0,0.0,0.0,0.0,0.0,0.0,0.0,0.0,0.0,0.0,0.0,0.0,0.0,0.0,0.0,0.0,0.0,0.0,0.0,0.0,0.0,0.0,0.0,0.0,0.0,0.0,0.0,0.0,0.0,0.0,0.0,0.0,0.0,0.0,0.0,0.0,0.0,0.0,0.0,0.0,0.0,0.0,0.0,0.0,0.0,0.0,0.0,0.0,0.0,0.0,0.0,0.0,0.0,0.0,0.0,0.0,0.0,0.0,0.0,0.0,0.0,0.0,0.0,0.0,0.0,0.0,0.0,0.0,0.0,0.0,0.0,0.0,0.0,0.0,0.0,0.0,0.0,0.0,0.0,0.0,0.0,0.0,0.0,0.0,0.0,0.0,0.0,0.0,0.0,0.0,0.0,0.0,0.0,0.0,0.0,0.0,0.0,0.0,0.0,0.0,0.0,0.0,0.0,0.0,0.0,0.0,0.0,0.0,0.0,0.0,0.0,0.0,0.0,0.0,0.0,0.0,0.0,0.0,0.0,0.0,0.0,0.0,0.0,0.0,0.0,0.0,0.0,0.0,0.0,0.0,0.0,0.0,0.0,0.0,0.0,0.0,0.0,0.0,0.0,0.0,0.0,0.0,0.0,0.0,0.0,0.0,0.0,0.0,0.0,0.0,0.0,0.0,0.0,0.0,0.0,0.0,0.0,0.0,0.0,0.0,0.0,0.0,0.0,0.0,0.0,0.0,0.0,0.0,0.0,0.0,0.0,0.0,0.0,0.0,0.0,0.0,0.0,0.0,0.0,0.0,0.0,0.0,0.0,0.0,0.0,0.0,0.0,0.0,0.0,0.0,0.0,0.0,0.0,0.0,0.0,0.0,0.0,0.0,0.0,0.0,0.0,0.0,0.0,0.0,0.0,0.0,0.0,0.0,0.0,0.0,0.0,0.0,0.0,0.0,0.0,0.0,0.0,0.0,0.0,0.0,0.0,0.0,0.0,0.0,0.0,0.0,0.0,0.0,0.0,0.0,0.0,0.0,0.0,0.0,0.0,0.0,0.0,0.0,0.0,0.0,0.0,0.0,0.0,0.0,0.0,0.0,0.0,0.0,0.0,0.0,0.0,0.0,0.0,0.0,0.0,0.0,0.0,0.0,0.0,0.0,0.0,0.0,0.0,0.0,0.0,0.0,0.0,0.0,0.0,0.0,0.0,0.0,0.0,0.0,0.0,0.0,0.0,0.0,0.0,0.0,0.0,0.0,0.0,0.0,0.0,0.0,0.0,0.0,0.0,0.0,0.0,0.0,0.0,0.0,0.0,0.0,0.0,0.0,0.0,0.0,0.0,0.0,0.0,0.0,0.0,0.0,0.0,0.0,0.0,0.0,0.0,0.0,0.0,0.0,0.0,0.0,0.0,0.0,0.0,0.0,0.0,0.0,0.0,0.0,0.0,0.0,0.0,0.0,0.0,0.0,0.0,0.0,0.0,0.0,0.0,0.0,0.0,0.0,0.0,0.0,0.0,0.0,0.0,0.0,0.0,0.0,0.0,0.0,0.0,0.0,0.0,0.0,0.0,0.0,0.0,0.0,0.0,0.0,0.0,0.0,0.0,0.0,0.0,0.0,0.0,0.0,0.0,0.0,0.0,0.0,0.0,0.0,0.0,0.0,0.0,0.0,0.0,0.0,0.0,0.0,0.0,0.0,0.0,0.0,0.0,0.0,0.0,0.0,0.0,0.0,0.0,0.0,0.0,0.0,0.0,0.0,0.0,0.0,0.0,0.0,0.0,0.0,0.0,0.0,0.0,0.0,0.0,0.0,0.0,0.0,0.0,0.0,0.0,0.0,0.0,0.0,0.0,0.0,0.0,0.0,0.0,0.0,0.0,0.0,0.0,0.0,0.0,0.0,0.0,0.0,0.0,0.0,0.0,0.0,0.0,0.0,0.0,0.0,0.0,0.0,0.0,0.0,0.0,0.0,0.0,0.0,0.0,0.0,0.0,0.0,0.0,0.0,0.0,0.0,0.0,0.0,0.0,0.0,0.0,0.0,0.0,0.0,0.0,0.0,0.0,0.0,0.0,0.0,0.0,0.0,0.0,0.0,0.0,0.0,0.0,0.0,0.0,0.0,0.0,0.0,0.0,0.0,0.0,0.0,0.0,0.0,0.0,0.0,0.0,0.0,0.0,0.0,0.0,0.0,0.0,0.0,0.0,0.0,0.0,0.0,0.0,0.0,0.0,0.0,0.0,0.0,0.0,0.0,0.0,0.0,0.0,0.0,0.0,0.0,0.0,0.0,0.0,0.0,0.0,0.0,0.0,0.0,0.0,0.0,0.0,0.0,0.0,0.0,0.0,0.0,0.0,0.0,0.0,0.0,0.0,0.0,0.0,0.0,0.0,0.0,0.0,0.0,0.0,0.0,0.0,0.0,0.0,0.0,0.0,0.0,0.0,0.0,0.0,0.0,0.0,0.0,0.0,0.0,0.0,0.0,0.0,0.0,0.0,0.0,0.0,0.0,0.0,0.0,0.0,0.0,0.0,0.0,0.0,0.0,0.0,0.0,0.0,0.0,0.0,0.0,0.0,0.0,0.0,0.0,0.0,0.0,0.0,0.0,0.0,0.0,0.0,0.0,0.0,0.0,0.0,0.0,0.0,0.0,0.0,0.0,0.0,0.0,0.0,0.0,0.0,0.0,0.0,0.0,0.0,0.0,0.0,0.0,0.0,0.0,0.0,0.0,0.0,0.0,0.0,0.0,0.0,0.0,0.0,0.0,0.0,0.0,0.0,0.0,0.0,0.0,0.0,0.0,0.0,0.0,0.0,0.0,0.0,0.0,0.0,0.0,0.0,0.0,0.0,0.0,0.0,0.0,0.0,0.0,0.0,0.0,0.0,0.0,0.0,0.0,0.0,0.0,0.0,0.0,0.0,0.0,0.0,0.0,0.0,0.0,0.0,0.0,0.0,0.0,0.0,0.0,0.0,0.0,0.0,0.0,0.0,0.0,0.0,0.0,0.0,0.0,0.0,0.0,0.0,0.0,0.0,0.0,0.0,0.0,0.0,0.0,0.0,0.0,0.0,0.0,0.0,0.0,0.0,0.0,0.0,0.0,0.0,0.0,0.0,0.0,0.0,0.0,0.0,0.0,0.0,0.0,0.0,0.0,0.0,0.0,0.0,0.0,0.0,0.0,0.0,0.0,0.0,0.0,0.0,0.0,0.0,0.0,0.0,0.0,0.0,0.0,0.0,0.0,0.0,0.0,0.0,0.0,0.0,0.0,0.0,0.0,0.0,0.0,0.0,0.0,0.0,0.0,0.0,0.0,0.0,0.0,0.0,0.0,0.0,0.0,0.0,0.0,0.0,0.0,0.0,0.0,0.0,0.0,0.0,0.0,0.0,0.0,0.0,0.0,0.0,0.0,0.0,0.0,0.0,0.0,0.0,0.0,0.0,0.0,0.0,0.0,0.0,0.0,0.0,0.0,0.0,0.0,0.0,0.0,0.0,0.0,0.0,0.0,0.0,0.0,0.0,0.0,0.0,0.0,0.0,0.0,0.0,0.0,0.0,0.0,0.0,0.0,0.0,0.0,0.0,0.0,0.0,0.0,0.0,0.0,0.0,0.0,0.0,0.0,0.0,0.0,0.0,0.0,0.0,0.0,0.0,0.0,0.0,0.0,0.0,0.0,0.0,0.0,0.0,0.0,0.0,0.0,0.0,0.0,0.0,0.0,0.0,0.0,0.0,0.0,0.0,0.0,0.0,0.0,0.0,0.0,0.0,0.0,0.0,0.0,0.0,0.0,0.0,0.0,0.0,0.0,0.0,0.0,0.0,0.0,0.0,0.0,0.0,0.0,0.0,0.0,0.0,0.0,0.0,0.0,0.0,0.0,0.0,0.0,0.0,0.0,0.0,0.0,0.0,0.0,0.0,0.0,0.0,0.0,0.0,0.0,0.0,0.0,0.0,0.0,0.0,0.0,0.0,0.0,0.0,0.0,0.0,0.0,0.0,0.0,0.0,0.0,0.0,0.0,0.0,0.0,0.0,0.0,0.0,0.0,0.0,0.0,0.0,0.0,0.0,0.0,0.0,0.0,0.0,0.0,0.0,0.0,0.0,0.0,0.0,0.0,0.0,0.0,0.0,0.0,0.0,0.0,0.0,0.0,0.0,0.0,0.0,0.0,0.0,0.0,0.0,0.0,0.0,0.0,0.0,0.0,0.0,0.0,0.0,0.0,0.0,0.0,0.0,0.0,0.0,0.0,0.0,0.0,0.0,0.0,0.0,0.0,0.0,0.0,0.0,0.0,0.0,0.0,0.0,0.0,0.0,0.0,0.0,0.0,0.0,0.0,0.0,0.0,0.0,0.0,0.0,0.0,0.0,0.0,0.0,0.0,0.0,0.0,0.0,0.0,0.0,0.0,0.0,0.0,0.0,0.0,0.0,0.0,0.0,0.0,0.0,0.0,0.0,0.0,0.0,0.0,0.0,0.0,0.0,0.0,0.0,0.0,0.0,0.0,0.0,0.0,0.0,0.0,0.0,0.0,0.0,0.0,0.0,0.0,0.0,0.0,0.0,0.0,0.0,0.0,0.0,0.0,0.0,0.0,0.0,0.0,0.0,0.0,0.0,0.0,0.0,0.0,0.0,0.0,0.0,0.0,0.0,0.0,0.0,0.0,0.0,0.0,0.0,0.0,0.0,0.0,0.0,0.0,0.0,0.0,0.0,0.0,0.0,0.0,0.0,0.0,0.0,0.0,0.0,0.0,0.0,0.0,0.0,0.0,0.0,0.0,0.0,0.0,0.0,0.0,0.0,0.0,0.0,0.0,0.0,0.0,0.0,0.0,0.0,0.0,0.0,0.0,0.0,0.0,0.0,0.0,0.0,0.0,0.0,0.0,0.0,0.0,0.0,0.0,0.0,0.0,0.0,0.0,0.0,0.0,0.0,0.0,0.0,0.0,0.0,0.0,0.0,0.0,0.0,0.0,0.0,0.0,0.0,0.0,0.0,0.0,0.0,0.0,0.0,0.0,0.0,0.0,0.0,0.0,0.0,0.0,0.0,0.0,0.0,0.0,0.0,0.0,0.0,0.0,0.0,0.0,0.0,0.0,0.0,0.0,0.0,0.0,0.0,0.0,0.0,0.0,0.0,0.0,0.0,0.0,0.0,0.0,0.0,0.0,0.0,0.0,0.0,0.0,0.0,0.0,0.0,0.0,0.0,0.0,0.0,0.0,0.0,0.0,0.0,0.0,0.0,0.0,0.0,0.0,0.0,0.0,0.0,0.0,0.0,0.0,0.0,0.0,0.0,0.0,0.0,0.0,0.0,0.0,0.0,0.0,0.0,0.0,0.0,0.0,0.0,0.0,0.0,0.0,0.0,0.0,0.0,0.0,0.0,0.0,0.0,0.0,0.0,0.0,0.0,0.0,0.0,0.0,0.0,0.0,0.0,0.0,0.0,0.0,0.0,0.0,0.0,0.0,0.0,0.0,0.0,0.0,0.0,0.0,0.0,0.0,0.0,0.0,0.0,0.0,0.0,0.5766,0.5328,0.0,0.0,0.0,0.0,0.0,0.0,0.0,0.0,0.0,0.0,0.0,0.0,0.0,0.0,0.0,0.0,0.0,0.0,0.0,0.0,0.0,0.0,0.0,-0.0993,-0.1028,-0.1028,-0.0815,0.0,0.0,0.0,0.0,0.0,0.0,0.0,0.0,0.0,-0.042,-0.0447,-0.0448,-0.0485,-0.054,-0.0474,-0.0406,-0.0354,0.0,0.0,0.0,0.0,0.0,0.0,0.0,0.0,0.0,0.0,0.0,0.0,0.0,0.0,0.0,0.0,0.0,0.0,0.0,0.0,0.0,0.0,0.0,0.0,0.0,0.0,0.0,0.0,0.0,0.0,0.0,0.0,0.0,0.0,0.0,0.0,0.0,0.0,0.0,0.0,0.0,0.0,0.0,0.0,0.0,0.0,0.0,0.0,0.0,0.0,0.0,0.0,0.0,0.0,0.0,0.0,0.0,0.0,0.0,0.0,0.0,0.0,0.0,0.0,0.0,0.0,0.0,0.0,0.0,0.0,0.5751,0.5456,0.0,0.0,0.0,0.0,0.0,0.0,0.0,0.0,0.0,0.0,0.0,0.0,0.0,0.0,0.0,0.0,0.0,0.0,0.0,0.0,0.0,-0.1596,-0.1558,-0.1686,-0.1757,-0.1731,-0.1407,-0.1165,-0.1125,-0.085,0.0,0.0,0.0,0.0,-0.0684,-0.0603,-0.0578,-0.0644,-0.0581,-0.0578,-0.0633,-0.0683,-0.0637,-0.0474,-0.0462,0.0,0.0,0.0,0.0,0.0,0.0,0.0,0.0,0.0,0.0,0.0,0.0,0.0,0.0,0.0,0.0,0.0,0.0,0.0,0.0,0.0,0.0,0.0,0.0,0.0,0.0,0.0,0.0,0.0,0.0,0.0,0.0,0.0,0.0,0.0,0.0,0.0,0.0,0.0,0.0,0.0,0.0,0.0,0.0,0.0,0.0,0.0,0.0,0.0,0.0,0.0,0.0,0.0,0.0,0.0,0.0,0.0,0.0,0.0,0.0,0.0,0.0,0.0,0.5695,0.5752,0.5985,0.5985,0.5708,0.5246,0.5527,0.5415,0.5099,0.5734,0.0,0.0,0.0,0.0,0.0,0.0,0.0,0.0,0.0,0.0,0.0,0.0,0.0,0.0,0.0,0.0,0.0,0.0,0.0,-0.1956,-0.1775,-0.1937,-0.1995,-0.1881,-0.1923,-0.1856,-0.1629,-0.1724,0.0,0.0,0.0,-0.1789,-0.1789,-0.1394,-0.1193,-0.1198,-0.0902,-0.0756,-0.077,-0.0776,-0.0783,-0.0744,-0.069,-0.0624,-0.0553,0.0,0.0,0.0,0.0,0.0,0.0,0.0,0.0,0.0,0.0,0.0,0.0,0.0,0.0,0.0,0.0,0.0,0.0,0.0,0.0,0.0,0.0,0.0,0.0,0.0,0.0,0.0,0.0,0.0,0.0,0.0,0.0,0.0,0.0,0.0,0.0,0.0,0.0,0.0,0.0,0.0,0.1911,0.2136,0.0,0.0,0.0,0.0,0.0,0.0,0.0,0.0,0.0,0.0,0.0,0.0,0.0,0.5206,0.5976,0.5657,0.5595,0.5788,0.527,0.5046,0.5067,0.5067,0.5037,0.4947,0.4991,0.0,0.4922,0.5024,0.0,0.0,0.0,0.0,0.0,0.0,0.0,0.0,0.0,0.0,0.0,0.0,0.0,0.0,0.0,0.0,0.0,0.0,0.0,0.0,0.0,-0.2822,-0.2752,-0.2285,-0.2149,-0.2012,-0.1829,-0.1685,0.0,0.0,-0.1608,-0.1533,-0.1278,-0.1059,-0.0989,-0.1012,-0.0878,-0.0821,-0.0865,-0.0853,-0.0858,-0.0856,-0.0816,-0.0764,-0.0706,-0.0706,0.0,0.0,0.0,0.0,0.0,0.0,0.0,0.0,0.0,0.0,0.0,0.0,0.0,0.0,0.0,0.0,0.0,0.0,0.0,0.0,0.0,0.0,0.0,0.0,0.0,0.0,0.0,0.0,0.0,0.0,0.0,0.0,0.0,0.0,0.0,0.0,0.0,0.0,0.0,0.2182,0.2101,0.2664,0.2414,0.2505,0.0,0.0,0.0,0.0,0.0,0.0,0.0,0.0,0.0,0.452,0.4558,0.4808,0.5293,0.5088,0.5074,0.5187,0.4906,0.4845,0.497,0.497,0.5037,0.5169,0.5169,0.5178,0.5183,0.5345,0.5638,0.6055,0.0,0.0,0.0,0.0,0.6764,0.6587,0.0,0.0,0.0,0.0,0.0,0.0,0.0,0.0,0.0,0.0,0.0,0.0,-0.3406,-0.3589,-0.3432,-0.2791,-0.2597,-0.2452,-0.2334,-0.2086,-0.1989,-0.2119,-0.2166,-0.2012,-0.1595,-0.1449,-0.1271,-0.1047,-0.1059,-0.1017,-0.0915,-0.0915,-0.0915,-0.0915,-0.0915,-0.0872,-0.08,-0.08,-0.0732,-0.0643,0.0,0.0,0.0,0.0,0.0,0.0,0.0,0.0,0.0,0.0,0.0,0.0,0.0,0.0,0.0,0.0,0.0,0.0,0.0,0.0,0.0,0.0,0.0,0.0,0.0,0.0,0.0,0.0,0.0,0.0,0.0,0.0,0.0,0.0,0.0,0.0,0.0,0.215,0.2137,0.2824,0.2505,0.2527,0.0,0.0,0.0,0.0,0.0,0.0,0.4174,0.4301,0.4369,0.4369,0.4399,0.4495,0.4629,0.4665,0.4731,0.4826,0.4826,0.4894,0.5061,0.5061,0.5166,0.5338,0.5338,0.5372,0.545,0.5618,0.579,0.5944,0.6406,0.6682,0.6805,0.6805,0.6701,0.6544,0.0,0.0,0.0,0.0,0.0,0.0,0.0,0.0,0.0,0.0,0.0,-0.3677,-0.3685,-0.385,-0.3818,-0.3387,-0.3517,-0.3595,-0.3511,-0.3604,-0.3786,-0.4051,-0.4241,-0.4235,-0.4027,-0.3522,-0.2761,-0.1749,-0.1752,-0.1484,-0.0982,-0.0982,-0.0982,-0.0982,-0.0982,-0.0915,-0.0804,-0.0804,-0.0787,-0.0782,-0.0782,0.0,0.0,0.0,0.0,0.0,0.0,0.0,0.0,0.0,0.0,0.0,0.0,0.0,0.0,0.0,0.0,0.0,0.0,0.0,0.0,0.0,0.0,0.0,0.0,0.0,0.0,0.0,0.0,0.0,0.0,0.0,0.0,0.0,0.0,0.0,0.0,0.0,0.0,0.2024,0.2033,0.0,0.0,0.0,0.0,0.3878,0.402,0.4094,0.4099,0.4249,0.4314,0.4314,0.4421,0.4551,0.4697,0.482,0.4988,0.517,0.517,0.517,0.5206,0.5206,0.5206,0.5206,0.5206,0.5317,0.5477,0.5427,0.5731,0.6187,0.622,0.6576,0.707,0.707,0.7003,0.6862,0.0,0.0,0.0,-0.2267,-0.2347,-0.2518,-0.2871,-0.307,-0.3374,-0.3853,-0.3906,-0.3986,-0.4258,-0.43,-0.4131,-0.3629,-0.3735,-0.3791,-0.3669,-0.3714,-0.3805,-0.3947,-0.401,-0.3926,-0.3701,-0.3374,-0.3089,-0.2822,-0.2709,-0.2527,-0.234,-0.1911,-0.1697,-0.1696,-0.1204,-0.0965,-0.0922,-0.0874,-0.0866,-0.0873,-0.0873,-0.0803,0.0,0.0,0.0,0.0,0.0,0.0,0.0,0.0,0.0,0.0,0.0,0.0,0.0,0.0,0.0,0.0,0.0,0.0,0.0,0.0,0.0,0.0,0.0,0.0,0.0,0.0,0.0,0.0,0.0,0.0,0.0,0.0,0.0,0.0,0.0,0.0,0.0,0.1785,0.1933,0.0,0.322,0.3736,0.4115,0.4268,0.4319,0.4379,0.4492,0.4539,0.4564,0.4607,0.4683,0.4816,0.5007,0.5052,0.5151,0.5311,0.5311,0.5393,0.5512,0.5512,0.5589,0.5705,0.5705,0.5747,0.582,0.5799,0.5841,0.5954,0.5954,0.6058,0.6267,0.6267,0.6229,0.6177,0.0,0.0,0.0,-0.2359,-0.2453,-0.2656,-0.3119,-0.3293,-0.3563,-0.4118,-0.4191,-0.4266,-0.4542,-0.4598,-0.4412,-0.3972,-0.4014,-0.408,-0.4125,-0.4131,-0.4254,-0.4487,-0.4474,-0.4351,-0.4166,-0.403,-0.3947,-0.3922,-0.3805,-0.3685,-0.3489,-0.2969,-0.2743,-0.2711,-0.2158,-0.1757,-0.1481,-0.1406,-0.1183,-0.091,-0.091,-0.0874,-0.0844,0.0,0.0,0.0,0.0,0.0,0.0,0.0,0.0,0.0,0.0,0.0,0.0,0.0,0.0,0.0,0.0,0.0,0.0,0.0,0.0,0.0,0.0,0.0,0.0,0.0,0.0,0.0,0.0,0.0,0.0,0.0,0.0,0.0,0.0,0.0708,0.0706,0.1379,0.1537,0.1998,0.3045,0.3591,0.407,0.4577,0.4632,0.4744,0.4865,0.4909,0.4969,0.5012,0.5015,0.5091,0.5246,0.5249,0.5331,0.541,0.541,0.5455,0.5582,0.5582,0.5663,0.5785,0.5785,0.5826,0.591,0.591,0.5904,0.5875,0.5875,0.5875,0.5875,0.5875,0.5883,0.5908,0.0,0.0,-0.2167,-0.2367,-0.2571,-0.2816,-0.3167,-0.3485,-0.377,-0.3987,-0.4288,-0.4505,-0.4513,-0.4686,-0.4709,-0.4442,-0.443,-0.4584,-0.498,-0.5031,-0.5284,-0.5888,-0.5775,-0.5718,-0.5722,-0.5735,-0.5478,-0.4964,-0.5068,-0.488,-0.4344,-0.4133,-0.4027,-0.4027,-0.3815,-0.3226,-0.2446,-0.2348,-0.1765,-0.0948,-0.0916,-0.0909,-0.0908,0.0,0.0,0.0,0.0,0.0,0.0,0.0,0.0,0.0,0.0,0.0,0.0,0.0,0.0,0.0,0.0,0.0,0.0,0.0,0.0,0.0,0.0,0.0,0.0,0.0,0.0,0.0,0.0,0.0,0.0,0.0,0.0,0.0,0.0236,0.0363,0.0473,0.0735,0.0775,0.1481,0.3154,0.3354,0.376,0.4651,0.4884,0.5036,0.5146,0.5309,0.5418,0.5421,0.5427,0.5429,0.5435,0.5435,0.5435,0.5435,0.5435,0.5435,0.5435,0.5435,0.5435,0.5435,0.5435,0.5518,0.5733,0.5733,0.5814,0.6014,0.5999,0.5993,0.5993,0.5993,0.6034,0.6144,-0.2436,-0.2239,-0.2207,-0.2563,-0.2657,-0.2898,-0.3482,-0.3637,-0.3858,-0.4296,-0.4441,-0.4622,-0.4905,-0.4974,-0.5024,-0.5043,-0.5058,-0.5152,-0.5423,-0.5439,-0.5573,-0.588,-0.6006,-0.6099,-0.6195,-0.6192,-0.6198,-0.6211,-0.611,-0.5973,-0.5796,-0.5251,-0.4997,-0.5,-0.4246,-0.3797,-0.3518,-0.2712,-0.2226,-0.193,-0.1251,-0.0953,-0.0889,0.0,0.0,0.0,0.0,0.0,0.0,0.0,0.0,0.0,0.0,0.0,0.0,0.0,0.0,0.0,0.0,0.0,0.0,0.0,0.0,0.0,0.0,0.0,0.0,0.0,0.0,0.0,0.0,0.0,0.0,0.0,-0.102,-0.0903,-0.0537,-0.0484,-0.0367,-0.0034,0.0466,0.1076,0.1799,0.23,0.2743,0.3094,0.3816,0.4209,0.4235,0.5009,0.5497,0.5632,0.5714,0.5798,0.5888,0.589,0.589,0.589,0.589,0.589,0.589,0.589,0.589,0.589,0.589,0.5936,0.5982,0.5982,0.6028,0.6079,0.6017,0.5993,0.5993,0.5993,0.6096,0.6267,-0.2436,-0.2239,-0.2223,-0.2629,-0.2708,-0.292,-0.3593,-0.3702,-0.3866,-0.4351,-0.4541,-0.4707,-0.4942,-0.5104,-0.5212,-0.5289,-0.5365,-0.551,-0.5713,-0.5868,-0.6013,-0.6229,-0.634,-0.6479,-0.665,-0.6722,-0.6775,-0.6925,-0.6957,-0.699,-0.699,-0.656,-0.636,-0.6318,-0.561,-0.513,-0.4744,-0.3946,-0.3404,-0.3018,-0.2376,-0.164,-0.0949,-0.0936,-0.0932,-0.089,-0.089,-0.0879,-0.0852,-0.0852,0.0,0.0,0.0,0.0,0.0,0.0,0.0,0.0,0.0,0.0,0.0,0.0,0.0,0.0,0.0,0.0,0.0,0.0,0.0,0.0,0.0,0.0,0.0,0.0,-0.1076,-0.1068,-0.1019,-0.099,-0.0859,-0.0587,-0.019,0.0275,0.0886,0.1318,0.1726,0.2196,0.2867,0.3243,0.3317,0.403,0.4671,0.5187,0.5293,0.559,0.6086,0.6086,0.6086,0.6086,0.6086,0.6086,0.6086,0.6086,0.6086,0.6086,0.6086,0.6086,0.6086,0.6086,0.6086,0.6106,0.0,0.0,0.0,0.0,0.6239,0.6373,-0.2449,-0.2239,-0.2223,-0.2629,-0.2708,-0.292,-0.3593,-0.3702,-0.3846,-0.4249,-0.4585,-0.4804,-0.4804,-0.5106,-0.5297,-0.5297,-0.5482,-0.5697,-0.5935,-0.6233,-0.6497,-0.6702,-0.6708,-0.6806,-0.7016,-0.7159,-0.7227,-0.7285,-0.7645,-0.7812,-0.7833,-0.7743,-0.7732,-0.7724,-0.7329,-0.6762,-0.6039,-0.557,-0.4895,-0.4115,-0.3836,-0.2684,-0.1132,-0.1134,-0.1039,-0.0918,-0.0915,-0.0909,-0.0888,-0.0912,0.0,0.0,0.0,0.0,0.0,0.0,0.0,0.0,0.0,0.0,0.0,0.0,0.0,0.0,0.0,0.0,0.0,0.0,0.0,0.0,0.0,0.0,0.0,0.0,-0.1119,-0.1167,-0.1294,-0.1247,-0.1163,-0.0948,-0.0972,-0.0663,0.0253,0.0346,0.0708,0.153,0.1924,0.2144,0.2278,0.2619,0.0,0.0,0.0,0.4784,0.5744,0.5791,0.5791,0.5791,0.5791,0.5791,0.5791,0.5791,0.5791,0.5791,0.5791,0.5839,0.5934,0.5934,0.6032,0.6121,0.6094,0.6086,0.6133,0.6317,0.6361,0.6455,-0.2499,-0.2239,-0.2223,-0.2629,-0.2708,-0.292,-0.3593,-0.3702,-0.3846,-0.4249,-0.4585,-0.4804,-0.4804,-0.5106,-0.5297,-0.5297,-0.5482,-0.575,-0.6106,-0.6298,-0.6497,-0.6702,-0.6857,-0.7024,-0.7167,-0.7346,-0.7504,-0.7698,-0.7767,-0.7869,-0.7963,-0.7959,-0.7934,-0.793,-0.7693,-0.7396,-0.706,-0.6159,-0.5481,-0.4988,-0.4232,-0.3184,-0.2064,-0.2052,-0.1601,-0.0976,-0.0922,-0.0906,-0.0893,-0.0897,-0.0885,-0.0875,-0.0878,-0.0892,0.0,0.0,0.0,0.0,0.0,0.0,0.0,0.0,0.0,0.0,0.0,0.0,0.0,0.0,0.0,0.0,0.0,0.0,0.0,-0.1247,-0.1265,-0.1254,-0.128,-0.1345,-0.1265,-0.0999,-0.1033,-0.0927,-0.0576,-0.055,-0.0469,-0.0283,0.0472,0.0947,0.0951,0.1833,0.2529,0.2967,0.3062,0.3336,0.3736,0.3786,0.3786,0.3786,0.3786,0.0,0.3786,0.3786,0.3786,0.3786,0.3786,0.4233,0.5032,0.5032,0.5575,0.635,0.6159,0.6086,0.6086,0.6133,0.6269,0.6408,-0.2785,-0.2355,-0.2223,-0.2629,-0.2708,-0.292,-0.3593,-0.3702,-0.3846,-0.4249,-0.4585,-0.4804,-0.4804,-0.5106,-0.5297,-0.5297,-0.5482,-0.5803,-0.6286,-0.6314,-0.6473,-0.6833,-0.6939,-0.7114,-0.7346,-0.7439,-0.7567,-0.7661,-0.7801,-0.7931,-0.8016,-0.8203,-0.8292,-0.8284,-0.8068,-0.7887,-0.7672,-0.6933,-0.6494,-0.6198,-0.566,-0.4839,-0.3831,-0.2768,-0.2071,-0.1572,-0.1123,-0.107,-0.12,-0.1163,-0.1179,-0.1201,-0.1133,-0.1012,-0.0899,0.0,0.0,0.0,0.0,0.0,0.0,0.0,0.0,0.0,0.0,0.0,0.0,0.0,0.0,-0.1063,-0.1093,0.0,-0.1204,-0.1289,-0.1283,-0.1324,-0.134,-0.136,-0.1364,-0.1219,-0.1252,-0.1281,-0.1156,-0.1189,-0.121,-0.121,-0.0634,-0.0294,-0.0294,0.0346,0.0994,0.1688,0.1754,0.2115,0.277,0.282,0.282,0.282,0.292,0.3021,0.3021,0.3123,0.3224,0.3224,0.3224,0.3525,0.3979,0.3979,0.4632,0.5575,0.5473,0.5774,0.626,0.626,0.6309,0.6403,-0.3184,-0.2651,-0.2395,-0.2654,-0.2708,-0.2922,-0.3567,-0.3681,-0.3838,-0.4204,-0.4532,-0.4767,-0.48,-0.5074,-0.5273,-0.5341,-0.5502,-0.5827,-0.6331,-0.6261,-0.6437,-0.691,-0.6967,-0.7139,-0.7423,-0.7464,-0.75,-0.7575,-0.7825,-0.7979,-0.802,-0.8321,-0.8502,-0.8494,-0.8304,-0.8134,-0.7955,-0.7608,-0.7372,-0.718,-0.7022,-0.6516,-0.5654,-0.3694,-0.2735,-0.229,-0.1533,-0.1334,-0.1392,-0.1352,-0.1398,-0.148,-0.1384,-0.1258,-0.1143,-0.1143,-0.1086,0.0,0.0,0.0,0.0,0.0,0.0,0.0,0.0,-0.1001,-0.1014,-0.1012,-0.1078,-0.1111,-0.1142,-0.1213,-0.131,-0.1321,-0.1329,-0.134,-0.1392,-0.1404,-0.141,-0.1415,-0.1483,-0.1508,-0.1532,-0.1562,-0.158,-0.158,-0.1402,-0.1263,-0.1263,-0.1061,-0.0555,0.0403,0.0403,0.0857,0.1762,0.1762,0.1762,0.1762,0.2015,0.2116,0.2116,0.2368,0.2519,0.2519,0.2771,0.2871,0.2922,0.3123,0.3726,0.4481,0.4481,0.5033,0.5832,0.6234,0.6387,0.6387,-0.3651,-0.3282,-0.2994,-0.2741,-0.2708,-0.2882,-0.3445,-0.3624,-0.3774,-0.4,-0.4331,-0.461,-0.4788,-0.4987,-0.5238,-0.5527,-0.56,-0.577,-0.6184,-0.6219,-0.6347,-0.6726,-0.6902,-0.7082,-0.7211,-0.7403,-0.7604,-0.7767,-0.7808,-0.7866,-0.8012,-0.8057,-0.8073,-0.8073,-0.8052,-0.7947,-0.7829,-0.7768,-0.7537,-0.7184,-0.718,-0.7011,-0.6607,-0.5441,-0.401,-0.2622,-0.2327,-0.1735,-0.1056,-0.1056,-0.1258,-0.15,-0.1495,-0.1707,-0.1952,-0.1952,-0.1707,-0.1524,-0.1884,-0.1699,-0.1367,-0.1068,-0.0978,-0.0987,0.0,-0.1048,-0.1074,-0.1105,-0.1157,-0.1206,-0.1275,-0.1273,-0.1314,-0.1367,-0.1403,-0.1393,-0.1471,-0.1499,-0.1526,-0.1553,-0.1608,-0.1612,-0.1566,-0.1594,-0.1611,-0.1611,-0.1564,-0.1566,-0.1566,-0.1516,-0.1364,-0.101,-0.096,-0.0808,-0.0454,-0.0454,-0.0454,-0.0454,-0.0404,-0.0404,-0.0404,-0.0101,0.0,0.005,0.1261,0.1765,0.1865,0.2821,0.3274,0.3374,0.3374,0.3475,0.3775,0.5684,0.6387,0.6387,-0.4189,-0.3907,-0.3662,-0.3493,-0.3097,-0.2977,-0.3437,-0.3549,-0.3636,-0.381,-0.4145,-0.4414,-0.451,-0.4869,-0.5222,-0.5579,-0.549,-0.5583,-0.6004,-0.6024,-0.6188,-0.6509,-0.6704,-0.6922,-0.7066,-0.724,-0.737,-0.7452,-0.7698,-0.7837,-0.7866,-0.7967,-0.8012,-0.8012,-0.8012,-0.7918,-0.78,-0.78,-0.7655,-0.7369,-0.7369,-0.7271,-0.7001,-0.6498,-0.5412,-0.4131,-0.3398,-0.2704,0.0,-0.2277,-0.2116,-0.1829,-0.1797,-0.1787,-0.1756,-0.1756,-0.1684,-0.1644,-0.1835,-0.1569,-0.1233,-0.1104,-0.1052,-0.1074,-0.1104,-0.1155,-0.1172,-0.1168,-0.1209,-0.1286,-0.1278,-0.1322,-0.1367,-0.141,-0.1442,-0.1478,-0.1527,-0.1545,-0.1564,-0.1594,-0.1598,-0.1598,-0.1598,-0.1609,-0.1617,-0.1617,-0.1617,-0.1617,-0.1617,-0.1617,-0.1566,-0.1415,-0.1415,-0.1364,-0.1263,-0.1328,-0.1335,-0.1335,-0.1141,-0.1094,-0.1094,-0.0834,-0.0678,-0.0626,0.0104,0.0414,0.0462,0.1076,0.1731,0.2267,0.2267,0.267,0.3374,0.4933,0.5486,0.5536,-0.4631,-0.4416,-0.4245,-0.4115,-0.362,-0.3332,-0.3517,-0.3522,-0.3529,-0.3636,-0.3935,-0.4188,-0.4286,-0.4901,-0.5421,-0.5665,-0.5586,-0.5703,-0.6028,-0.59,-0.5969,-0.6327,-0.6522,-0.67,-0.6906,-0.7058,-0.7151,-0.7151,-0.746,-0.7653,-0.7657,-0.7784,-0.7866,-0.7866,-0.7866,-0.7801,-0.7722,-0.7669,-0.7537,-0.7407,-0.7396,-0.7261,-0.7131,-0.6984,-0.641,-0.5531,-0.4454,-0.3574,-0.2947,-0.3115,-0.2781,-0.2241,-0.2194,-0.2126,-0.2013,-0.2013,-0.2121,-0.2136,-0.1935,-0.1761,-0.1581,-0.1342,-0.1292,-0.1284,-0.1208,-0.1216,-0.1189,-0.1229,-0.1254,-0.1321,-0.132,-0.1361,-0.1402,-0.1442,-0.1473,-0.1511,-0.1613,-0.1579,-0.1592,-0.1614,-0.1617,-0.1617,-0.1617,-0.1617,-0.1617,-0.1617,-0.1617,-0.1617,-0.1617,-0.1625,-0.1629,-0.1629,-0.1637,-0.1641,-0.1641,-0.1663,-0.1726,-0.1674,-0.1482,-0.1385,-0.1385,-0.1119,-0.096,-0.0907,-0.064,-0.0529,-0.0523,-0.0209,0.0363,0.1075,0.1127,0.1639,0.2456,0.3529,0.4116,0.4481,-0.4852,-0.4774,-0.4671,-0.4356,-0.4209,-0.4054,-0.374,-0.3586,-0.3506,-0.351,-0.3628,-0.3866,-0.4257,-0.5242,-0.589,-0.5899,-0.6073,-0.6248,-0.6468,-0.5937,-0.5778,-0.6203,-0.6327,-0.6509,-0.6714,-0.6902,-0.6996,-0.6996,-0.7151,-0.7207,-0.7207,-0.7419,-0.75,-0.75,-0.75,-0.7496,-0.748,-0.7313,-0.7203,-0.7179,-0.7077,-0.7,-0.6975,-0.6769,-0.67,-0.6531,-0.5446,-0.4118,-0.2913,-0.2913,-0.2815,-0.2683,-0.2679,-0.297,-0.335,-0.335,-0.338,-0.3304,-0.2575,-0.2649,-0.2762,-0.1964,-0.1783,-0.1687,-0.1279,-0.1211,-0.1228,-0.1288,-0.1301,-0.1319,-0.1377,-0.1388,-0.141,-0.147,-0.1505,-0.1536,-0.1567,-0.1597,-0.1615,-0.1617,-0.1617,-0.1617,-0.1617,-0.1617,-0.1617,-0.1617,-0.1617,-0.1617,-0.1617,-0.1645,-0.1713,-0.1713,-0.1688,-0.1701,-0.1701,-0.1703,-0.1703,-0.1703,-0.1704,-0.1704,-0.1704,-0.1385,-0.1172,-0.0907,-0.0907,-0.0907,-0.0853,-0.0533,-0.0373,-0.032,-0.0053,0.0053,0.0213,0.1276,0.2338,0.3274,-0.515,-0.5132,-0.5086,-0.4989,-0.4765,-0.4559,-0.4441,-0.3983,-0.3626,-0.3626,-0.3981,0.0,0.0,0.0,0.0,0.0,-0.6319,-0.6487,-0.6563,-0.6346,-0.6245,-0.6409,-0.6184,-0.6148,-0.6351,-0.6539,-0.6656,-0.6804,-0.6988,-0.7082,-0.7082,-0.7139,-0.7167,-0.7167,-0.7167,-0.7167,-0.7163,-0.7106,-0.7082,-0.7073,-0.7012,-0.6918,-0.6761,-0.6583,-0.6436,-0.6323,0.0,-0.5199,-0.4328,-0.4209,-0.3745,-0.3153,-0.282,-0.2841,-0.3032,-0.3178,-0.3193,-0.3138,-0.2913,-0.2759,-0.2592,-0.2326,-0.227,-0.2226,-0.2089,-0.208,-0.2155,-0.2148,-0.2248,-0.2303,-0.2338,-0.2109,-0.1935,-0.1971,-0.1709,-0.1544,-0.1594,-0.1611,-0.1617,-0.1617,-0.1617,-0.1617,-0.1617,-0.1617,-0.1625,-0.1645,-0.1647,-0.1655,-0.1673,-0.1684,-0.169,-0.169,-0.1699,-0.1704,-0.1704,-0.1724,-0.1788,-0.1789,-0.1755,-0.1765,-0.1765,-0.1654,-0.1599,-0.149,-0.1269,-0.1151,-0.1139,-0.0868,-0.0754,-0.0694,-0.0373,-0.0267,-0.0213,0.032,0.0793,0.1255,-0.5316,-0.5293,-0.5293,-0.5293,-0.5125,0.0,0.0,0.0,0.0,0.0,0.0,0.0,0.0,0.0,0.0,0.0,0.0,-0.6814,-0.6923,-0.6694,-0.662,-0.6772,-0.6366,-0.6199,-0.6383,-0.6259,-0.6282,-0.6429,-0.6608,-0.6731,-0.6796,-0.6865,-0.6926,-0.6988,-0.6988,-0.6988,-0.698,-0.6849,-0.6943,-0.7147,-0.6763,-0.6694,-0.6749,-0.6371,-0.6156,0.0,-0.6086,-0.5781,-0.5356,-0.5161,-0.4588,-0.3885,-0.3322,-0.3101,-0.3086,-0.3285,-0.3335,-0.3295,-0.3335,-0.3179,-0.293,-0.2771,-0.2715,-0.2673,-0.2578,-0.2574,-0.2613,-0.2655,-0.2723,-0.2827,-0.2849,-0.2488,-0.2183,-0.2181,-0.1812,-0.1499,-0.1608,-0.1617,-0.1617,-0.1617,-0.1617,-0.1617,-0.1617,-0.1626,-0.1641,-0.1713,-0.1724,-0.1685,-0.1703,-0.1714,-0.172,-0.172,-0.1731,-0.1737,-0.1737,-0.1756,-0.1821,-0.1821,-0.1785,-0.1795,-0.1795,-0.1795,-0.1795,-0.1795,-0.157,-0.1505,-0.1435,-0.1158,-0.1042,-0.1032,-0.0706,-0.0597,-0.0543,-0.0272,-0.0163,0.0054,-0.5325,-0.5316,-0.5316,0.0,0.0,0.0,0.0,0.0,0.0,0.0,0.0,0.0,0.0,0.0,0.0,0.0,0.0,0.0,-0.7478,-0.6951,-0.6834,-0.7275,-0.6799,-0.6567,-0.6715,-0.6224,-0.5966,-0.5975,-0.6144,-0.6285,-0.6424,-0.657,-0.6775,-0.6935,-0.6935,-0.6935,-0.691,-0.6538,-0.6781,-0.7313,-0.6298,-0.6326,-0.6857,-0.6167,-0.5872,-0.5872,-0.5872,-0.5872,-0.5868,-0.5661,-0.5209,-0.4652,-0.4141,-0.3744,-0.3534,-0.375,-0.3802,-0.3802,-0.3802,-0.3802,-0.3686,-0.3258,-0.3141,-0.304,-0.2746,-0.2683,-0.272,-0.2835,-0.2907,-0.2973,-0.3035,-0.269,-0.2364,-0.2319,-0.1954,-0.1643,-0.1656,-0.1667,-0.1617,-0.1617,-0.1617,-0.1618,-0.1619,-0.1647,-0.1717,-0.1719,-0.1692,-0.1707,-0.1709,-0.179,-0.1807,-0.1807,-0.178,-0.1795,-0.1795,-0.1795,-0.1795,-0.1795,-0.1795,-0.1795,-0.1795,-0.1795,-0.1795,-0.1795,-0.1795,-0.1795,-0.1795,-0.1458,-0.1346,-0.129,-0.1009,-0.0897,-0.0897,-0.0561,-0.0449,-0.0391,0.0,0.0,0.0,0.0,0.0,0.0,0.0,0.0,0.0,0.0,0.0,0.0,0.0,0.0,0.0,0.0,0.0,0.0,-0.7498,-0.7182,-0.7114,-0.7434,-0.6875,-0.6744,-0.7128,-0.7023,-0.7021,-0.7166,-0.6759,-0.6602,-0.6621,-0.6253,-0.612,-0.6192,-0.6192,-0.6192,-0.6188,-0.6063,-0.6128,-0.627,-0.5998,-0.6029,-0.6155,-0.5803,-0.5681,-0.5681,-0.5681,-0.5681,-0.5649,-0.55,-0.4905,-0.4123,-0.3738,-0.357,-0.3534,-0.375,-0.3802,-0.3802,-0.3802,-0.3802,-0.3763,-0.3645,-0.3608,-0.3612,-0.3518,-0.3577,-0.3639,-0.3677,-0.426,-0.4758,-0.4741,-0.4781,-0.464,-0.4168,-0.3718,-0.3261,-0.2807,-0.2401,-0.2221,-0.2221,-0.1818,-0.1626,-0.1649,-0.1677,-0.1703,-0.1779,-0.1788,-0.1748,-0.177,-0.1779,-0.1783,-0.1783,-0.1791,-0.1795,-0.1795,-0.1795,-0.1795,-0.1795,-0.1795,-0.1795,-0.1795,-0.1795,-0.1795,-0.1795,-0.1795,-0.1795,-0.1795,-0.1683,-0.1683,-0.1627,-0.1346,-0.1177,-0.1177,-0.0897,-0.0785,-0.0728,0.0,0.0,0.0,0.0,0.0,0.0,0.0,0.0,0.0,0.0,0.0,0.0,0.0,0.0,0.0,0.0,0.0,0.0,0.0,-0.737,-0.7394,-0.7653,-0.7226,-0.7128,-0.7376,-0.7269,-0.7254,-0.7392,-0.7045,-0.6918,-0.6949,-0.6407,-0.6194,-0.6237,-0.6005,-0.5888,-0.588,-0.5803,-0.5953,0.0,0.0,-0.5839,-0.6075,-0.5628,-0.547,-0.547,-0.547,-0.5519,-0.5566,-0.5357,-0.4855,-0.4333,-0.4222,-0.3896,-0.3534,-0.375,-0.3802,-0.3802,-0.3802,-0.3802,-0.3802,-0.3802,-0.3802,-0.389,-0.4165,-0.4302,-0.4438,-0.4775,-0.5262,-0.5613,-0.5613,-0.5344,-0.5012,-0.4624,-0.401,-0.34,-0.2837,-0.2542,-0.2471,-0.2723,-0.2471,-0.254,-0.3156,-0.321,-0.3214,-0.3326,-0.2365,-0.1777,-0.1794,-0.1795,-0.1795,-0.1795,-0.1795,-0.1795,-0.1795,-0.1795,-0.1795,-0.1795,-0.1795,-0.1795,-0.1795,-0.1795,-0.1795,-0.1795,-0.1795,-0.1795,-0.1795,-0.1795,-0.1795,-0.1795,-0.157,-0.1514,-0.1458,-0.1177,-0.1065,-0.1009,0.0,0.0,0.0,0.0,0.0,0.0,0.0,0.0,0.0,-0.5158,-0.5284,-0.5432,-0.5353,-0.5912,0.0,0.0,0.0,0.0,0.0,0.0,-0.7511,-0.7772,-0.7553,-0.7461,-0.7559,-0.7324,-0.7206,-0.7206,-0.718,-0.7215,-0.7327,-0.6808,-0.6635,-0.6743,-0.6253,-0.6054,-0.6041,-0.5876,-0.612,-0.6577,-0.5752,-0.5739,-0.6145,0.0,-0.5285,-0.5265,-0.5289,-0.5438,-0.555,-0.5307,-0.5059,-0.4906,-0.5062,-0.447,-0.3752,-0.3866,-0.3919,-0.3919,-0.3841,-0.3802,-0.3802,-0.388,-0.3919,-0.4097,-0.4773,-0.4927,-0.5127,-0.5773,-0.5978,-0.6031,-0.6031,-0.5405,-0.4865,-0.4786,-0.4104,-0.3388,-0.2726,-0.2785,-0.2973,-0.3274,-0.3425,-0.3908,-0.4971,-0.5156,-0.5194,-0.5297,-0.3442,-0.2298,-0.2298,-0.2298,-0.2186,-0.2018,-0.1907,-0.1795,-0.1795,-0.1795,-0.1795,-0.1795,-0.1795,-0.1795,-0.1795,-0.1795,-0.1795,-0.1795,-0.1795,-0.1795,-0.1795,-0.1795,-0.1795,-0.1795,-0.1795,-0.1795,-0.1739,-0.1458,-0.1346,-0.1346,0.0,0.0,0.0,0.0,0.0,0.0,0.0,0.0,0.0,0.0,-0.6264,-0.6242,0.0,0.0,0.0,0.0,0.0,0.0,0.0,0.0,0.0,-0.7146,-0.7119,-0.7324,-0.7822,-0.7784,-0.7761,-0.7761,-0.7527,-0.7449,-0.7471,-0.7154,-0.7002,-0.7039,-0.6929,-0.6906,-0.6901,-0.686,-0.6628,-0.6266,-0.6119,-0.5764,-0.5316,-0.5317,0.0,0.0,-0.5272,-0.5438,-0.5607,-0.5733,-0.5558,-0.5283,-0.5211,-0.5045,-0.4843,-0.4632,-0.4545,-0.4426,-0.3919,-0.3802,-0.3919,-0.4426,-0.4545,-0.4704,-0.5302,-0.5546,-0.5672,-0.5776,-0.6361,-0.6816,-0.6816,-0.7127,-0.7237,-0.68,-0.6754,-0.6244,-0.4573,-0.4971,-0.4977,-0.3976,-0.4427,-0.4894,-0.5057,-0.5297,-0.5429,-0.5382,-0.502,-0.4749,-0.4749,-0.4749,-0.4305,-0.3301,-0.2297,-0.1795,-0.1795,-0.1795,-0.1795,-0.1795,-0.1795,-0.1795,-0.1795,-0.1795,-0.1795,-0.1795,-0.1795,-0.1795,-0.1795,-0.1795,-0.1795,-0.1795,-0.1795,-0.1795,-0.1795,-0.1739,-0.1739,-0.1683,0.0,0.0,0.0,0.0,0.0,0.0,0.0,-0.7087,-0.7094,-0.7021,-0.7087,-0.699,-0.6655,-0.6786,-0.6959,0.0,0.0,0.0,0.0,0.0,0.0,0.0,0.0,0.0,-0.7426,-0.7746,-0.7905,-0.7905,0.0,-0.7708,-0.769,-0.729,-0.7095,-0.7095,-0.6784,-0.6626,-0.6626,-0.6626,-0.6473,-0.6186,-0.5929,-0.5622,-0.5296,0.0,0.0,0.0,-0.526,-0.5353,-0.5474,-0.5685,-0.5713,-0.5636,-0.5545,-0.5383,-0.5192,-0.5092,-0.5115,-0.5121,-0.481,-0.4732,-0.481,-0.5082,-0.5162,-0.5356,-0.5977,-0.6086,-0.616,-0.6472,-0.6773,-0.7026,-0.7079,-0.7123,-0.7141,-0.7097,-0.7007,-0.6503,-0.5393,-0.5744,-0.5963,-0.552,-0.5924,-0.6521,-0.7238,-0.7419,-0.7473,-0.7459,-0.7479,-0.6864,-0.5472,-0.5417,-0.5139,-0.4582,-0.397,-0.3692,-0.3692,-0.3692,-0.3358,-0.2744,-0.2744,-0.2409,-0.1795,-0.1795,-0.1795,-0.1795,-0.1795,-0.1795,-0.1795,-0.1795,-0.1795,-0.1795,-0.1795,-0.1795,-0.1795,-0.1795,-0.1795,-0.1795,0.0,0.0,0.0,0.0,0.0,0.0,0.0,-0.7704,-0.767,-0.7551,-0.7725,-0.7699,-0.7274,-0.7126,-0.7165,0.0,0.0,0.0,0.0,0.0,0.0,0.0,0.0,0.0,-0.6906,0.0,0.0,-0.7712,-0.7779,0.0,0.0,0.0,0.0,0.0,-0.6774,-0.6575,-0.6575,-0.6575,-0.6503,0.0,0.0,-0.5678,-0.5403,0.0,0.0,0.0,0.0,-0.5297,-0.5325,-0.5527,-0.5734,-0.5908,-0.5892,-0.571,-0.5542,-0.5641,-0.5714,-0.5739,-0.5616,-0.5583,-0.5622,-0.578,-0.5819,-0.5967,-0.6597,-0.6602,-0.6611,-0.7061,-0.709,-0.7033,-0.7143,-0.6821,-0.6677,-0.7038,-0.6914,-0.6522,-0.5862,-0.6353,-0.6784,-0.6816,-0.7276,-0.8093,-0.919,-0.9328,-0.9413,-0.9464,-0.9434,-0.8429,-0.6253,-0.5919,-0.5753,-0.5753,-0.5528,-0.5417,-0.5417,-0.5417,-0.4916,-0.397,-0.397,-0.3469,-0.2576,-0.2576,-0.2409,-0.2186,-0.2186,-0.2018,-0.1795,-0.1795,-0.1795,-0.1795,-0.1795,-0.1795,-0.1795,-0.1795,-0.1795,-0.1795,0.0,0.0,0.0,0.0,0.0,0.0,0.0,-0.7961,-0.7691,-0.7691,-0.8064,-0.8324,-0.8264,-0.7874,-0.7592,0.0,0.0,0.0,0.0,0.0,0.0,0.0,0.0,0.0,0.0,0.0,0.0,-0.7086,-0.7397,0.0,0.0,0.0,0.0,0.0,0.0,-0.7732,-0.7732,-0.7732,0.0,0.0,0.0,0.0,0.0,0.0,0.0,0.0,0.0,-0.5297,-0.5325,-0.5527,-0.5734,-0.5925,-0.6096,-0.6362,-0.6553,-0.6523,-0.637,-0.6146,-0.5704,-0.5583,-0.5741,-0.6363,-0.6521,-0.6639,-0.7061,-0.7125,-0.7102,-0.7049,-0.7,-0.6992,-0.7008,-0.709,-0.7197,-0.7423,-0.7808,-0.7693,-0.6506,-0.7715,-0.8254,-0.6965,-0.8131,-0.9067,-0.9298,-0.9533,-0.9674,-0.9735,-0.9544,-0.9158,-0.8602,-0.754,-0.693,-0.693,-0.5919,-0.5417,-0.5417,-0.5417,-0.5361,-0.525,-0.525,-0.5194,-0.5083,-0.5083,-0.447,-0.3413,-0.3413,-0.28,-0.1795,-0.1795,-0.1795,-0.1795,-0.1795,-0.1795,-0.1795,-0.1795,-0.1795,-0.1795,0.0,0.0,0.0,0.0,0.0,0.0,-0.9065,-0.8971,-0.8939,-0.9224,-0.9431,-0.9434,-0.9144,-0.895,-0.863,-0.8093,0.0,0.0,0.0,0.0,0.0,0.0,0.0,0.0,0.0,0.0,-0.7,-0.7,-0.7141,0.0,0.0,0.0,0.0,0.0,0.0,-0.7366,-0.7366,-0.7366,0.0,0.0,0.0,0.0,0.0,0.0,0.0,0.0,0.0,0.0,-0.5309,-0.5405,-0.5547,-0.577,-0.6086,-0.6305,-0.644,-0.66,-0.6745,-0.6786,-0.6629,-0.6568,-0.6644,-0.6874,-0.6953,-0.6982,-0.7066,-0.6895,-0.6717,-0.6647,-0.6494,-0.6412,-0.6591,-0.6692,-0.6903,-0.7403,-0.7796,-0.7915,-0.7649,-0.8432,-0.8873,-0.8301,-0.8931,-0.957,-0.9815,-0.9955,-1.0046,-1.012,-0.9816,-0.9489,-0.9213,-0.8546,-0.8156,-0.8156,-0.7765,-0.7482,-0.7482,-0.7482,-0.7149,-0.6424,-0.6424,-0.6089,-0.5417,-0.5417,-0.5139,-0.4693,-0.4693,-0.4416,-0.397,-0.397,-0.3525,-0.2856,-0.2856,-0.2465,-0.1795,-0.1795,-0.1795,-0.1795,0.0,0.0,0.0,0.0,0.0,-0.9185,-0.9716,-0.9692,-0.9766,-1.0244,-1.0409,-1.0348,-1.0022,-0.989,-0.9524,-0.8811,-0.7586,0.0,0.0,0.0,0.0,0.0,0.0,0.0,0.0,0.0,-0.7112,-0.7112,-0.7112,-0.7173,0.0,0.0,-0.7287,-0.7325,0.0,0.0,0.0,0.0,0.0,0.0,0.0,0.0,0.0,0.0,0.0,0.0,0.0,0.0,0.0,0.0,0.0,-0.5657,-0.5939,-0.6131,-0.6331,-0.6698,-0.6911,-0.7078,-0.7131,-0.7147,-0.7147,-0.7147,-0.7147,-0.7082,-0.6882,-0.6599,-0.6355,-0.6282,-0.6063,-0.5982,-0.6282,-0.6384,-0.6619,-0.7265,-0.7608,-0.7906,-0.8294,-0.8762,-0.9135,-0.9193,-0.9474,-0.9823,-1.0184,-1.031,-1.0317,-1.0292,-0.9981,-0.9706,-0.9434,-0.9103,-0.8885,-0.8885,-0.8885,-0.8885,-0.8885,-0.8885,-0.8491,-0.7654,-0.7654,-0.7207,-0.642,-0.642,-0.6253,-0.5919,-0.5919,-0.5697,-0.5417,-0.5417,-0.4916,-0.4137,-0.4137,-0.3413,-0.2353,-0.2353,-0.213,-0.1795,0.0,0.0,0.0,0.0,0.0,0.0,-1.0169,-0.9896,-0.9766,-1.0244,-1.0656,-1.0901,-1.0901,-1.0524,-1.0107,-0.9628,-0.8249,0.0,0.0,0.0,0.0,0.0,0.0,0.0,0.0,0.0,-0.7391,-0.7391,-0.7391,-0.7574,-0.7899,-0.7899,-0.7955,-0.8068,0.0,0.0,0.0,0.0,0.0,0.0,0.0,0.0,0.0,0.0,0.0,0.0,0.0,0.0,0.0,0.0,0.0,0.0,0.0,-0.5986,-0.6485,-0.6882,-0.6869,-0.6737,-0.6947,-0.6992,-0.6992,-0.6992,-0.6992,-0.6898,-0.6505,-0.6387,-0.6319,-0.5965,-0.5892,-0.5971,-0.6178,-0.6298,-0.6538,-0.6935,-0.7449,-0.7906,-0.8174,-0.8732,-0.9135,-0.9193,-0.9628,-0.9957,-1.0196,-1.0481,-1.0578,-1.0312,-0.9981,-0.9706,-0.9434,-0.9103,-0.8885,-0.8885,-0.8885,-0.8885,-0.8885,-0.8885,-0.8881,-0.8881,-0.8881,-0.8881,-0.8881,-0.8881,-0.8214,-0.7096,-0.7096,-0.6424,-0.5417,-0.5417,-0.5417,-0.5361,-0.5361,-0.4637,-0.358,-0.358,-0.28,-0.1795,0.0,0.0,0.0,0.0,0.0,0.0,0.0,-1.1068,-1.1224,-1.1988,-1.2177,-1.2143,-1.1822,-1.1423,-1.076,-0.9696,-0.8461,0.0,0.0,0.0,0.0,0.0,0.0,0.0,0.0,0.0,-0.7736,-0.7736,-0.7925,-0.8072,-0.817,-0.817,-0.8203,-0.8217,-0.8056,-0.7852,0.0,0.0,0.0,0.0,0.0,0.0,-0.6297,0.0,0.0,0.0,0.0,0.0,0.0,0.0,0.0,0.0,0.0,0.0,0.0,-0.6156,-0.6473,-0.6731,-0.6796,-0.6812,-0.6749,-0.6619,-0.6587,-0.6493,-0.6136,-0.5957,-0.5835,-0.5722,-0.5575,-0.5587,-0.5943,-0.6018,-0.6254,-0.689,-0.7339,-0.7805,-0.8384,-0.8823,-0.9183,-0.944,-0.9841,-1.0151,-1.0208,-1.0485,-1.0637,-1.0582,-1.0472,-1.0198,-0.9706,-0.9596,-0.9323,-0.894,-0.8885,-0.8885,-0.8885,-0.8885,-0.8885,-0.8885,-0.8885,-0.8885,-0.8885,-0.8885,-0.8716,-0.8325,-0.8325,-0.81,-0.7817,-0.7817,-0.7315,-0.6536,-0.6536,-0.5866,-0.4804,-0.4804,-0.4081,-0.3023,0.0,0.0,0.0,0.0,0.0,0.0,0.0,-1.133,-1.1594,-1.2318,-1.2406,-1.2308,-1.2012,-1.1582,-1.0946,-0.9943,-0.9059,0.0,0.0,0.0,0.0,0.0,0.0,0.0,-0.7204,-0.7731,-0.8082,-0.8203,-0.8373,-0.8523,-0.8645,-0.8645,-0.8653,-0.8704,-0.847,-0.8252,0.0,0.0,0.0,0.0,0.0,0.0,-0.6568,0.0,0.0,0.0,0.0,0.0,0.0,0.0,0.0,0.0,0.0,0.0,0.0,0.0,-0.6067,-0.6429,-0.6502,-0.6538,-0.6546,-0.6363,-0.6314,-0.6221,-0.5864,-0.5693,-0.5592,-0.5498,-0.5454,-0.551,-0.5835,-0.5998,-0.6278,-0.6894,-0.7272,-0.7737,-0.8475,-0.8823,-0.9151,-0.9673,-0.9981,-1.0241,-1.0257,-1.0526,-1.0692,-1.0692,-1.0637,-1.0363,-1.0036,-0.9761,-0.9489,-0.9103,-0.894,-0.8885,-0.8885,-0.8885,-0.8885,-0.8885,-0.8885,-0.8885,-0.8885,-0.8885,-0.8885,-0.8885,-0.8885,-0.8885,0.0,-0.8885,-0.8436,-0.7765,-0.7765,-0.7093,-0.6031,-0.6031,-0.5308,-0.4193,0.0,0.0,0.0,0.0,0.0,0.0,0.0,-1.0908,-1.1064,-1.1547,-1.1606,-1.1606,-1.1606,-1.1172,-1.0743,-1.0338,0.0,0.0,0.0,0.0,0.0,0.0,0.0,0.0,-0.7824,-0.815,-0.8489,-0.8792,-0.8767,-0.8936,-0.9229,-0.9229,-0.9307,-0.9399,-0.9011,-0.8745,0.0,0.0,0.0,0.0,-0.7,-0.7,0.0,0.0,0.0,0.0,0.0,0.0,0.0,0.0,0.0,0.0,0.0,0.0,0.0,0.0,0.0,0.0,0.0,-0.6273,-0.6335,-0.6184,-0.617,-0.6049,-0.5669,-0.5604,0.0,-0.5349,-0.5482,-0.5689,-0.5872,-0.6189,-0.6542,-0.6911,-0.7225,-0.7669,-0.8464,-0.871,-0.9068,-0.9823,-1.0102,-1.0233,-1.0366,-1.059,-1.0692,-1.0692,-1.0476,-1.0312,-1.0312,-0.9765,-0.9434,-0.9379,-0.9103,-0.894,-0.8885,-0.8885,-0.8885,-0.8885,-0.8885,-0.8885,-0.8885,-0.8885,-0.8885,-0.8885,-0.8885,-0.8885,-0.8885,-0.8885,-0.8885,-0.8885,-0.8885,-0.8214,-0.721,-0.721,-0.648,-0.5361,0.0,0.0,0.0,0.0,0.0,0.0,0.0,0.0,0.0,0.0,-1.1606,-1.1606,-1.1606,-1.1172,-1.0743,0.0,0.0,0.0,0.0,0.0,0.0,0.0,0.0,0.0,-0.9152,-0.9443,-0.962,-0.9698,-0.9477,-0.9438,-0.9511,-0.9511,-0.9522,-0.9536,-0.9334,-0.8865,0.0,0.0,0.0,0.0,-0.7,-0.7,0.0,0.0,0.0,0.0,-0.6198,-0.5972,0.0,0.0,0.0,0.0,0.0,0.0,0.0,0.0,-0.551,-0.5685,-0.5726,0.0,-0.5969,-0.5783,-0.5738,-0.5681,0.0,-0.549,-0.56,-0.5531,-0.5697,-0.5876,-0.6086,-0.6266,-0.6511,-0.6852,-0.7188,-0.7671,-0.8403,-0.9001,-0.9497,-0.9855,-1.0102,-1.0233,-1.0366,-1.059,-1.0692,-1.0692,-1.0637,-1.0531,-1.0312,-1.0147,-0.9871,-0.9434,-0.9323,-0.9158,-0.8885,-0.8885,-0.8885,-0.8885,-0.8885,-0.8885,-0.8885,-0.8885,-0.8885,-0.8885,-0.8885,-0.8885,-0.8885,-0.8885,-0.8885,-0.8885,-0.8885,-0.8716,-0.8491,-0.8491,-0.7709,-0.6649,0.0,0.0,0.0,0.0,0.0,0.0,0.0,0.0,0.0,0.0,0.0,-1.0997,-1.0997,-1.0782,0.0,0.0,0.0,0.0,0.0,0.0,0.0,0.0,0.0,-0.9615,-1.0145,-1.0164,-1.0248,-1.0399,-1.0166,-1.006,-1.006,-0.9907,-0.9833,-0.9807,-0.9451,-0.8825,0.0,0.0,0.0,-0.7,-0.7,0.0,0.0,0.0,0.0,0.0,-0.6294,-0.6104,0.0,-0.5433,-0.5256,-0.5297,0.0,0.0,0.0,0.0,-0.5365,-0.5466,-0.5466,-0.5689,-0.5843,-0.5657,-0.5612,-0.5559,-0.5466,-0.5514,-0.5636,-0.5722,-0.5914,-0.6094,-0.6269,-0.6554,-0.6805,-0.6982,-0.7421,-0.7959,-0.8475,-0.9055,-0.9466,-0.9558,-0.995,-1.0253,-1.0302,-1.0542,-1.0692,-1.0692,-1.0692,-1.0637,-1.0472,-1.0366,-1.0091,-0.9596,-0.9489,-0.9213,-0.8885,-0.8885,-0.8885,-0.8885,-0.8885,-0.8885,-0.8885,-0.8885,-0.8885,-0.8885,-0.8885,-0.8885,-0.8885,-0.8885,-0.8885,-0.8885,-0.8885,-0.8885,-0.8885,-0.8885,-0.8491,-0.7823,0.0,0.0,0.0,0.0,0.0,0.0,0.0,0.0,0.0,0.0,0.0,0.0,0.0,0.0,0.0,0.0,0.0,0.0,0.0,0.0,0.0,0.0,0.0,-1.0338,-1.1107,-1.0881,-1.0928,-1.1269,-1.1002,-1.0844,-1.0751,-1.0468,-1.023,-1.0035,-0.945,-0.8751,0.0,0.0,-0.7579,-0.7066,-0.702,0.0,0.0,0.0,0.0,0.0,0.0,0.0,0.0,-0.5491,-0.5263,-0.5393,-0.5475,0.0,0.0,0.0,0.0,0.0,-0.5462,-0.5792,-0.6037,-0.5645,-0.5563,-0.5612,-0.5612,-0.5653,-0.5746,-0.5929,-0.6139,-0.6326,-0.6505,-0.69,-0.7191,-0.718,-0.7785,-0.8337,-0.8626,-0.9029,-0.9305,-0.9356,-0.9875,-1.0285,-1.0496,-1.0621,-1.0852,-1.1177,-1.1067,-1.1017,-1.1232,-1.1013,-1.0633,-1.0139,-0.9868,-0.9485,-0.8992,-0.8937,-0.8885,-0.8885,-0.8885,-0.8885,-0.8885,-0.8885,-0.8885,-0.8885,-0.8885,-0.8885,-0.8885,-0.8885,-0.8885,-0.8885,-0.8885,-0.8885,-0.8885,-0.8885,-0.8885,-0.8771,0.0,0.0,0.0,0.0,0.0,0.0,0.0,0.0,0.0,0.0,0.0,0.0,0.0,0.0,0.0,0.0,0.0,0.0,0.0,0.0,0.0,-1.1294,-1.1624,-1.2047,-1.257,-1.242,-1.2554,-1.2933,-1.2448,-1.1964,-1.1447,-1.1391,-1.0842,-0.9906,-0.9298,-0.8817,-0.8457,-0.806,-0.7729,-0.7397,-0.7121,0.0,0.0,0.0,0.0,0.0,0.0,0.0,0.0,-0.5693,-0.5572,-0.5797,-0.6266,0.0,0.0,0.0,0.0,0.0,-0.6213,-0.6639,-0.6948,-0.5656,-0.5474,-0.5612,-0.5612,-0.5878,-0.6147,-0.6298,-0.6481,-0.6712,-0.7005,-0.7102,-0.7172,-0.7412,-0.8042,-0.8648,-0.8916,-0.927,-0.9642,-0.9991,-1.0128,-1.0695,-1.1913,-1.1252,-1.15,-1.3437,-1.2684,-1.2575,-1.3545,-1.3545,-1.295,-1.171,-1.1328,-1.057,-0.9323,-0.9047,-0.8885,-0.8885,-0.8885,-0.8885,-0.8885,-0.8885,-0.8885,-0.8885,-0.8885,-0.8885,-0.8885,-0.8885,-0.8885,-0.8885,-0.8885,-0.8885,-0.8885,-0.8885,-0.8885,-0.8881,0.0,0.0,0.0,0.0,0.0,0.0,0.0,0.0,0.0,0.0,0.0,0.0,0.0,0.0,0.0,0.0,0.0,0.0,0.0,0.0,0.0,-1.1596,-1.224,-1.2783,-1.3213,-1.3053,-1.3158,-1.358,-1.3202,-1.2718,-1.2073,-1.1577,-1.0787,-0.9776,-0.9499,-0.9054,-0.8475,-0.8056,-0.7749,-0.7464,0.0,0.0,0.0,0.0,0.0,0.0,0.0,0.0,0.0,0.0,-0.5843,-0.6072,-0.6483,0.0,0.0,0.0,0.0,0.0,-0.6372,-0.6832,-0.7267,-0.6295,-0.6167,-0.6367,-0.6581,-0.6457,-0.6371,-0.6686,-0.6855,-0.7202,-0.7983,-0.8365,-0.8903,-1.0035,-0.9775,-0.9569,-0.9911,-1.0147,-1.0356,-1.0684,-1.1326,-1.213,-1.3126,-1.2518,-1.2585,-1.3766,-1.3393,-1.3339,-1.3879,-1.403,-1.3652,-1.2743,-1.2526,-1.1982,-1.1008,-1.0241,-0.9533,-0.8885,-0.8885,-0.8885,-0.8885,-0.8885,-0.8885,-0.8885,-0.8885,-0.8885,-0.8885,-0.8885,-0.8885,-0.8885,-0.8885,-0.8885,-0.8885,-0.8885,-0.8885,-0.8885,0.0,0.0,0.0,0.0,0.0,0.0,0.0,0.0,0.0,0.0,0.0,0.0,0.0,0.0,0.0,0.0,0.0,0.0,0.0,0.0,-1.1606,-1.1606,-1.2436,-1.3125,-1.3617,-1.3487,-1.3645,-1.4174,-1.401,-1.3524,-1.2718,-1.1579,-1.0624,-0.9861,-0.9736,-0.9272,-0.8526,-0.8205,-0.7879,-0.7571,0.0,0.0,0.0,0.0,0.0,0.0,0.0,0.0,0.0,0.0,0.0,0.0,0.0,0.0,0.0,-0.7361,-0.7488,-0.7386,-0.6867,-0.7355,-0.7915,-0.7504,-0.7365,-0.7398,-0.7703,-0.7437,-0.7236,-0.7543,-0.777,-0.8217,-0.9165,-0.9793,-1.0617,-1.1978,-1.1324,-1.0745,-1.1098,-1.1219,-1.1363,-1.157,-1.246,-1.3298,-1.4062,-1.3618,-1.3614,-1.4369,-1.4153,-1.4099,-1.4369,-1.4626,-1.4411,-1.3722,-1.3614,-1.3231,-1.2526,-1.1546,-1.0511,-0.9316,-0.9047,-0.8885,-0.8885,-0.8885,-0.8885,-0.8885,-0.8885,-0.8885,-0.8885,-0.8885,-0.8885,-0.8885,-0.8885,-0.8885,-0.8885,-0.8885,-0.8885,-0.8885,0.0,0.0,0.0,0.0,0.0,0.0,0.0,0.0,0.0,0.0,0.0,0.0,0.0,0.0,0.0,0.0,0.0,0.0,0.0,0.0,-1.1606,-1.1606,-1.2436,-1.3262,-1.4046,-1.4041,-1.4458,-1.5274,-1.5274,-1.4638,-1.3381,-1.1699,-1.0718,-1.0315,-0.989,-0.941,-0.8934,-0.8659,-0.8285,-0.7846,-0.7578,0.0,0.0,0.0,0.0,0.0,0.0,0.0,0.0,0.0,0.0,0.0,0.0,0.0,-0.7593,-0.8423,-0.8672,-0.8618,-0.8315,-0.8874,-0.9545,-0.9481,-0.9032,-0.8564,-0.8597,-0.8956,-0.9322,-0.9462,-0.9778,-1.01,-1.0603,-1.0955,-1.1226,-1.1385,-1.1654,-1.1935,-1.2139,-1.2387,-1.2653,-1.2853,-1.2971,-1.3517,-1.4778,-1.3927,-1.4207,-1.6299,-1.5494,-1.5387,-1.6411,-1.6518,-1.6033,-1.4905,-1.4632,-1.3986,-1.2856,-1.2472,-1.171,-1.0562,-0.9427,-0.8885,-0.8885,-0.8885,-0.8885,-0.8885,-0.8885,-0.8885,-0.8885,-0.8885,-0.8885,-0.8885,-0.8885,-0.8885,-0.8885,-0.8885,-0.8885,-0.8885,0.0,0.0,0.0,0.0,0.0,0.0,0.0,0.0,0.0,0.0,0.0,0.0,0.0,0.0,0.0,0.0,0.0,0.0,0.0,-1.1252,-1.1702,-1.1963,-1.2582,-1.3154,-1.3704,-1.3977,-1.4523,-1.541,-1.4608,-1.3983,-1.3472,-1.2004,-1.1009,-1.0387,-1.0215,-0.9715,-0.8988,-0.8719,-0.8452,-0.8163,-0.7685,-0.7424,0.0,0.0,0.0,0.0,0.0,0.0,0.0,0.0,-0.6789,-0.6969,-0.7682,-0.7835,-0.7888,-0.8586,-0.8904,-0.8962,-0.8528,-0.917,-0.9896,-0.973,-1.0197,-1.0579,-1.0114,-0.9796,-0.9733,-1.0102,-1.0393,-1.0937,-1.2141,-1.3182,-1.3848,-1.3915,-1.3646,-1.3414,-1.3318,-1.3545,-1.3722,-1.3863,-1.4407,-1.5117,-1.5997,-1.5393,-1.5345,-1.6371,-1.6045,-1.5992,-1.6424,-1.663,-1.6418,-1.5832,-1.5725,-1.5345,-1.475,-1.3943,-1.329,-1.2856,-1.166,-1.0735,-1.0021,-1.0021,-0.9588,-0.8885,-0.8885,-0.8885,-0.8885,-0.8885,-0.8885,-0.8885,-0.8885,-0.8885,-0.8885,-0.8885,-0.8885,-0.8885,0.0,0.0,0.0,0.0,0.0,0.0,0.0,0.0,0.0,0.0,0.0,0.0,0.0,0.0,0.0,0.0,0.0,0.0,-1.0879,-1.134,-1.178,-1.2184,-1.2646,-1.3076,-1.3496,-1.389,-1.4465,-1.5215,-1.4278,-1.3812,-1.3773,-1.272,-1.1744,-1.0958,-1.0958,-1.0339,-0.9249,-0.9064,-0.8747,-0.8355,-0.7839,-0.7578,0.0,0.0,0.0,0.0,0.0,0.0,0.0,0.0,-0.7,-0.7106,-0.7712,-0.7905,-0.8025,-0.8637,-0.8918,-0.9029,-0.8864,-0.9441,-1.0111,-1.0193,-1.1149,-1.1923,-1.1438,-1.1047,-1.0835,-1.1216,-1.157,-1.2137,-1.3339,-1.4394,-1.5083,-1.5229,-1.4777,-1.4424,-1.4407,-1.4576,-1.4718,-1.4861,-1.5488,-1.6026,-1.6387,-1.6099,-1.5998,-1.6164,-1.6164,-1.6164,-1.6164,-1.6365,-1.6365,-1.6164,-1.6164,-1.6105,-1.5891,-1.5137,-1.4761,-1.4702,-1.3884,-1.2684,-1.1214,-1.1214,-1.0566,-0.9482,-0.9482,-0.9265,-0.8885,-0.8885,-0.8885,-0.8885,-0.8885,-0.8885,-0.8885,-0.8885,-0.8885,-0.8885,0.0,0.0,0.0,0.0,0.0,0.0,0.0,0.0,0.0,0.0,0.0,0.0,0.0,0.0,0.0,0.0,0.0,0.0,-1.0879,-1.134,-1.178,-1.2184,-1.2646,-1.3101,-1.3496,-1.389,-1.4319,-1.4823,-1.4598,-1.4499,-1.4499,-1.3803,-1.302,-1.2195,-1.2195,-1.1307,-0.9788,-0.9788,-0.926,-0.8375,-0.8025,-0.7742,-0.7457,0.0,0.0,0.0,0.0,0.0,0.0,0.0,-0.7,-0.7106,-0.7712,-0.7905,-0.8025,-0.8637,-0.8811,-0.8945,-0.9526,-0.99,-1.0334,-1.1176,-1.187,-1.2346,-1.2471,-1.2741,-1.3026,-1.3002,-1.3485,-1.3958,-1.4186,-1.4265,-1.4394,-1.464,-1.4694,-1.4883,-1.5409,-1.5496,-1.5613,-1.5859,-1.5875,-1.5922,-1.5921,-1.5891,-1.5891,-1.5891,-1.5891,-1.5891,-1.5891,-1.5891,-1.5891,-1.5891,-1.5891,-1.5891,-1.5891,-1.5891,-1.5891,-1.5891,-1.5891,-1.4691,-1.2417,-1.2417,-1.1814,-1.0726,-1.0726,-1.0021,-0.894,-0.8885,-0.8885,-0.8885,-0.8885,-0.8885,-0.8885,-0.8885,-0.8885,-0.8885,0.0,0.0,0.0,0.0,0.0,0.0,0.0,0.0,0.0,0.0,0.0,0.0,0.0,0.0,0.0,0.0,0.0,0.0,-1.0879,-1.134,-1.178,-1.2184,-1.2646,-1.2964,-1.3091,-1.3743,-1.4465,-1.5225,-1.4738,-1.4499,-1.4469,-1.3503,-1.2745,-1.2159,-1.1472,-1.0646,-0.9762,-0.9387,-0.8915,-0.8375,-0.8025,-0.7742,-0.7457,0.0,0.0,0.0,0.0,0.0,0.0,0.0,0.0,0.0,-0.7712,-0.7905,-0.8025,-0.8637,-0.9098,-0.9459,-0.9668,-1.0194,-1.0848,-1.1275,-1.2024,-1.2643,-1.2515,-1.2886,-1.3382,-1.3828,-1.422,-1.4475,-1.4522,-1.487,-1.5112,-1.4981,-1.5297,-1.5554,-1.5484,-1.5639,-1.5741,-1.5637,-1.5767,-1.5913,-1.5879,-1.5891,-1.5891,-1.5891,-1.5891,-1.5891,-1.5891,-1.5891,-1.5891,-1.5891,-1.5891,-1.5891,-1.5891,-1.5891,-1.5891,-1.5891,-1.5891,-1.5131,-1.3673,-1.3673,-1.3019,-1.1869,-1.1055,-1.0511,-1.0076,-0.9265,-0.8885,-0.8885,-0.8885,-0.8885,-0.8885,-0.8885,-0.8885,-0.8885,0.0,0.0,0.0,0.0,0.0,0.0,0.0,0.0,0.0,0.0,-1.0649,-1.037,0.0,0.0,0.0,0.0,0.0,0.0,-1.0879,-1.134,-1.178,-1.2184,-1.2646,-1.2959,-1.3125,-1.3597,-1.4192,-1.4874,-1.4868,-1.4769,-1.4609,-1.3955,-1.3291,-1.2609,-1.1936,-1.1202,-1.0464,-1.0061,-0.954,-0.8926,-0.8611,-0.8197,-0.7702,0.0,0.0,0.0,0.0,0.0,0.0,0.0,0.0,0.0,-0.7712,-0.7905,-0.8025,-0.8637,-0.9138,-0.9532,-0.9653,-1.0358,-1.1062,-1.1322,-1.2184,-1.3021,-1.3293,-1.3401,-1.3598,-1.4161,-1.4502,-1.4688,-1.4688,-1.4975,-1.5166,-1.5131,-1.527,-1.5442,-1.5487,-1.5642,-1.5698,-1.5696,-1.5795,-1.5891,-1.5891,-1.5891,-1.5891,-1.5891,-1.5891,-1.5891,-1.5891,-1.5891,-1.5891,-1.5891,-1.5891,-1.5891,-1.5891,-1.5891,-1.5891,-1.5891,-1.5891,-1.5512,-1.4869,-1.4869,-1.4213,-1.3019,-1.1383,-1.0726,-1.0621,-0.9372,-0.8885,-0.8885,-0.8885,-0.8885,-0.8885,-0.8885,-0.8885,-0.8885,0.0,0.0,0.0,0.0,0.0,0.0,0.0,0.0,0.0,-1.0812,-1.0525,-1.0303,0.0,0.0,0.0,-1.0303,-1.0303,-1.0459,-1.083,-1.1281,-1.1712,-1.2067,-1.2568,-1.3018,-1.3437,-1.3486,-1.3665,-1.4055,-1.4864,-1.5098,-1.4727,-1.4687,-1.4194,-1.3292,-1.3064,-1.2432,-1.1502,-1.1318,-1.0665,-0.9713,-0.9439,-0.883,-0.8018,-0.7751,0.0,0.0,0.0,0.0,0.0,0.0,0.0,0.0,-0.7686,-0.7885,-0.8019,-0.8604,-0.8984,-0.9311,-0.9613,-1.0347,-1.1096,-1.1329,-1.2308,-1.3466,-1.4425,-1.4121,-1.3765,-1.4313,-1.4568,-1.4688,-1.4736,-1.4783,-1.4844,-1.5115,-1.4967,-1.4985,-1.5443,-1.5515,-1.5626,-1.5861,-1.5891,-1.5891,-1.5891,-1.5891,-1.5891,-1.5891,-1.5891,-1.5891,-1.5891,-1.5891,-1.5891,-1.5891,-1.5891,-1.5891,-1.5891,-1.5891,-1.5891,-1.5891,-1.5891,-1.5891,-1.5891,-1.5891,-1.5298,-1.4056,-1.1928,-1.0945,-1.0781,-0.9644,-0.921,-0.921,-0.921,-0.9154,-0.9044,-0.9044,-0.8992,-0.8885,0.0,0.0,0.0,0.0,0.0,0.0,0.0,0.0,-1.0322,-1.0409,-1.0351,-1.0303,-1.0303,-1.0303,0.0,-1.0303,-1.0303,-1.0342,-1.041,-1.0811,-1.1094,-1.117,-1.1931,-1.2568,-1.3032,-1.334,-1.3555,-1.3617,-1.4124,-1.4338,-1.4241,-1.3936,-1.3604,-1.3256,-1.2431,-1.1872,-1.1469,-1.0964,-1.0199,-0.9305,-0.8977,-0.8366,-0.7591,-0.7262,-0.7084,0.0,0.0,0.0,0.0,0.0,0.0,0.0,-0.7455,-0.7736,-0.7979,-0.8363,-0.8998,-0.9599,-0.9695,-1.0488,-1.1349,-1.1375,-1.2342,-1.3587,-1.4654,-1.4676,-1.4591,-1.5106,-1.493,-1.4831,-1.5255,-1.535,-1.5332,-1.5418,-1.5537,-1.5664,-1.5791,-1.5795,-1.5831,-1.5885,-1.5891,-1.5891,-1.5891,-1.5891,-1.5891,-1.5891,-1.5891,-1.5891,-1.5891,-1.5891,-1.5891,-1.5891,-1.5891,-1.5891,-1.5891,-1.5891,-1.5891,-1.5891,-1.5891,-1.5891,-1.5891,-1.5891,-1.5298,-1.4169,-1.3673,-1.2911,-1.2032,-1.1764,-1.1655,-1.1655,-1.1655,-1.1109,-1.0292,-1.0292,-0.9695,-0.8885,0.0,0.0,0.0,0.0,0.0,0.0,0.0,0.0,-1.0736,-1.1105,-1.0831,-1.0582,-1.0582,-1.0582,0.0,0.0,-1.0303,-1.0303,-1.0303,-1.0674,-1.1006,-1.1232,-1.166,-1.2119,-1.2559,-1.2759,-1.2998,-1.3203,-1.3428,-1.3607,-1.3802,-1.3613,-1.3322,-1.2993,-1.2398,-1.2033,-1.1852,-1.1476,-1.0929,-1.0293,-1.0103,-0.9545,-0.876,-0.8379,-0.813,-0.7923,-0.7706,0.0,0.0,0.0,0.0,0.0,0.0,0.0,-0.7965,-0.8308,-0.8898,-0.9499,-0.9646,-1.0434,-1.139,-1.2104,-1.2849,-1.3708,-1.4763,-1.4904,-1.5,-1.5528,-1.535,-1.5159,-1.5445,-1.5514,-1.5512,-1.552,-1.5639,-1.5702,-1.5689,-1.5834,-1.5891,-1.5891,-1.5891,-1.5891,-1.5891,-1.5891,-1.5891,-1.5891,-1.5891,-1.5891,-1.5891,-1.5891,-1.5891,-1.5891,-1.5891,-1.5891,-1.5891,-1.5891,-1.5891,-1.5891,-1.5891,-1.5891,-1.5891,-1.5891,-1.5571,-1.4976,-1.4439,-1.384,-1.3236,-1.2635,-1.2417,-1.2417,-1.2417,-1.2037,-1.1487,-1.1487,-1.0785,-0.975,0.0,0.0,0.0,0.0,0.0,0.0,0.0,0.0,0.0,-1.1902,-1.1423,-1.0992,-1.0992,-1.0992,-1.0859,0.0,0.0,0.0,-1.039,-1.0645,-1.0996,-1.1447,-1.1467,-1.1682,-1.2086,-1.2164,-1.2389,-1.2773,-1.2866,-1.3057,-1.3398,-1.3373,-1.3138,-1.2735,-1.2603,-1.2455,-1.2332,-1.2224,-1.1908,-1.1462,-1.1389,-1.0889,-1.0126,-0.9738,-0.9406,-0.9038,-0.8664,-0.8519,-0.8503,-0.8448,0.0,0.0,0.0,0.0,-0.8048,-0.8248,-0.8744,-0.9277,-0.9599,-1.0361,-1.1403,-1.2786,-1.3387,-1.3833,-1.4807,-1.5047,-1.5192,-1.5724,-1.5635,-1.5493,-1.554,-1.5502,-1.5501,-1.5553,-1.5549,-1.5509,-1.5553,-1.5753,-1.5891,-1.5891,-1.5891,-1.5891,-1.5891,-1.5891,-1.5891,-1.5891,-1.5891,-1.5891,-1.5891,-1.5891,-1.5891,-1.5891,-1.5891,-1.5891,-1.5891,-1.5891,-1.5891,-1.5891,-1.5891,-1.5891,-1.5891,-1.5891,-1.5891,-1.5838,-1.4922,-1.4487,-1.4433,-1.3393,-1.3009,-1.3009,-1.3009,-1.2906,-1.2689,-1.2689,-1.1978,-1.1,0.0,0.0,0.0,0.0,0.0,0.0,0.0,0.0,0.0,0.0,-1.1497,-1.1423,-1.1423,-1.1423,-1.1404,-1.1348,-1.101,-1.0821,-1.0821,0.0,0.0,-1.0977,-1.0996,-1.1201,-1.1663,-1.2031,-1.2233,-1.2291,-1.2695,-1.2935,-1.2993,-1.2861,-1.2832,-1.2856,-1.2725,-1.2603,-1.248,-1.2446,-1.2024,-1.1298,-1.1009,-1.0549,-0.9987,-0.9708,-0.9577,-0.9523,-0.9452,-0.9436,-0.9365,-0.9022,-0.8875,0.0,0.0,0.0,-0.8426,-0.8072,-0.8558,-0.9277,-0.9599,-1.0508,-1.1597,-1.2603,-1.3233,-1.3833,-1.4807,-1.519,-1.5431,-1.5724,-1.5635,-1.554,-1.573,-1.5621,-1.557,-1.582,-1.5657,-1.5563,-1.5824,-1.5867,-1.5891,-1.5891,-1.5891,-1.5891,-1.5891,-1.5891,-1.5891,-1.5891,-1.5891,-1.5891,-1.5891,-1.5891,-1.5891,-1.5891,-1.5891,-1.5891,-1.5891,-1.5891,-1.5891,-1.5891,-1.5891,-1.5891,-1.5891,-1.5891,-1.5891,-1.5891,-1.5731,-1.5678,-1.5672,-1.5512,-1.5452,-1.5452,-1.5452,-1.4809,-1.3948,-1.3948,-1.3181,-1.2195,0.0,0.0,0.0,0.0,0.0,0.0,0.0,0.0,0.0,0.0,0.0,-1.1756,-1.1516,-1.1497,-1.133,-1.0859,-1.0678,-1.0563,-1.0563,-1.039,-1.0381,-1.0547,-1.0557,-1.0782,-1.1213,-1.1387,-1.1706,-1.2203,-1.2422,-1.2646,-1.2905,-1.2759,-1.2725,-1.2783,-1.2735,-1.2578,-1.2382,-1.2382,-1.215,-1.1735,-1.1581,-1.1387,-1.1139,-1.0812,-1.0664,-1.0638,-1.0411,-1.0332,-1.0306,-1.0118,-0.988,-0.9603,-0.921,0.0,0.0,0.0,-0.9444,-0.9938,-1.0285,-1.0993,-1.175,-1.2388,-1.2953,-1.3587,-1.4309,-1.4874,-1.5237,-1.5524,-1.5624,-1.5683,-1.5784,-1.563,-1.5586,-1.584,-1.5681,-1.5606,-1.5837,-1.5891,-1.5891,-1.5891,-1.5891,-1.5891,-1.5891,-1.5891,-1.5891,-1.5891,-1.5891,-1.5891,-1.5891,-1.5891,-1.5891,-1.5891,-1.5891,-1.5891,-1.5891,-1.5891,-1.5891,-1.5891,-1.5891,-1.5891,-1.5891,-1.5891,-1.5891,-1.5891,-1.5891,-1.5891,-1.5891,-1.5891,-1.5891,-1.5891,-1.5891,-1.5565,-1.5137,-1.5137,-1.4428,-1.3403,0.0,0.0,0.0,0.0,0.0,0.0,0.0,0.0,0.0,0.0,0.0,-1.215,-1.1847,0.0,0.0,0.0,-1.0831,-1.0678,-1.0467,-1.0544,-1.0505,-1.0322,-1.039,-1.0548,-1.0742,-1.085,-1.1209,-1.1872,-1.2096,-1.2369,-1.2715,-1.2749,-1.2725,-1.27,-1.2652,-1.2529,-1.2357,-1.2298,-1.2224,-1.2101,-1.2101,-1.2101,-1.2073,-1.1779,-1.166,-1.1623,-1.1301,-1.1214,-1.1205,-1.1104,-1.0822,-1.0477,-1.0259,-1.0191,0.0,0.0,0.0,-1.0585,-1.083,-1.1303,-1.1807,-1.2197,-1.2705,-1.3267,-1.3935,-1.4586,-1.5095,-1.5337,-1.5625,-1.5784,-1.5784,-1.5628,-1.5575,-1.5863,-1.5625,-1.5518,-1.5852,-1.5842,-1.5813,-1.5885,-1.5891,-1.5891,-1.5891,-1.5891,-1.5891,-1.5891,-1.5891,-1.5891,-1.5891,-1.5891,-1.5891,-1.5891,-1.5891,-1.5891,-1.5891,-1.5891,-1.5891,-1.5891,-1.5891,-1.5891,-1.5891,-1.5891,-1.5891,-1.5891,-1.5891,-1.5891,-1.5891,-1.5891,-1.5891,-1.5891,-1.5891,-1.5891,-1.5891,-1.5891,-1.5351,-1.4648,0.0,0.0,0.0,0.0,0.0,0.0,0.0,0.0,0.0,0.0,0.0,-1.2656,-1.2639,-1.2639,-1.2609,-1.2573,-1.2222,-1.1682,-1.0916,-1.1236,-1.1105,-1.0322,-1.0678,0.0,-1.0332,-1.0703,-1.0907,-1.0977,-1.1794,-1.2213,-1.2252,-1.2686,-1.2832,-1.27,-1.2578,-1.2505,-1.248,-1.2348,-1.2224,-1.2101,-1.2101,-1.2101,-1.2101,-1.2082,-1.2073,-1.2073,-1.2046,-1.2036,-1.1981,-1.1605,-1.1453,-1.1286,-1.0468,-1.04,-1.059,0.0,0.0,0.0,-1.0906,-1.1149,-1.1563,-1.214,-1.2566,-1.3045,-1.3881,-1.4586,-1.5095,-1.5337,-1.5625,-1.5784,-1.5784,-1.5648,-1.5569,-1.5875,-1.5479,-1.532,-1.582,-1.568,-1.5614,-1.5861,-1.5891,-1.5891,-1.5891,-1.5891,-1.5891,-1.5891,-1.5891,-1.5891,-1.5891,-1.5891,-1.5891,-1.5891,-1.5891,-1.5891,-1.5891,-1.5891,-1.5891,-1.5891,-1.5891,-1.5891,-1.5891,-1.5891,-1.5891,-1.5891,-1.5891,-1.5891,-1.5891,-1.5891,-1.5891,-1.5891,-1.5891,-1.5891,-1.5891,-1.5891,-1.5838,-1.5838,0.0,0.0,0.0,0.0,0.0,0.0,0.0,0.0,0.0,0.0,0.0,0.0,0.0,-1.2834,-1.26,-1.1973,-1.1792,-1.159,-1.1311,-1.1423,-1.1116,-1.027,-1.037,-1.026,-0.9863,-1.0245,-1.0711,-1.1287,-1.16,-1.1903,-1.2186,-1.2111,-1.2187,-1.24,-1.2633,-1.2652,-1.2505,-1.2529,-1.2431,-1.2249,-1.2323,-1.2457,-1.2605,-1.2605,-1.2781,-1.2996,-1.2908,-1.2707,-1.2459,-1.2312,-1.2101,-1.1838,-1.1514,-1.1486,-1.1579,-1.1398,-1.1493,-1.1636,-1.1457,-1.1805,-1.2315,-1.2675,-1.3296,-1.4052,-1.4926,-1.5565,-1.5911,-1.5718,-1.6059,-1.6227,-1.5638,-1.5516,-1.5597,-1.5849,-1.5594,-1.5425,-1.5593,-1.5546,-1.5542,-1.5608,-1.5638,-1.5704,-1.5873,-1.5891,-1.5891,-1.5891,-1.5891,-1.5891,-1.5891,-1.5891,-1.5891,-1.5891,-1.5891,-1.5891,-1.5891,-1.5891,-1.5891,-1.5891,-1.5891,-1.5891,-1.5891,-1.5891,-1.5891,-1.5891,-1.5891,-1.5891,-1.5891,-1.5891,-1.5891,-1.5891,-1.5891,-1.5891,-1.5891,-1.5891,-1.5891,-1.5891,0.0,0.0,0.0,0.0,0.0,0.0,0.0,0.0,0.0,-1.4241,0.0,0.0,0.0,0.0,-1.3054,-1.2234,-1.217,-1.2046,-1.173,-1.1829,-1.1442,-1.04,-1.0513,-1.0298,-0.9715,-0.9967,-1.0473,-1.123,-1.122,-1.147,-1.1964,-1.1701,-1.1797,-1.2144,-1.2506,-1.2624,-1.2578,-1.2578,-1.2531,-1.2504,-1.2604,-1.2798,-1.3051,-1.3243,-1.344,-1.3636,-1.358,-1.3396,-1.3155,-1.3105,-1.2856,-1.2538,-1.2415,-1.2236,-1.2101,-1.2101,-1.2101,-1.2056,-1.1877,-1.2081,-1.2446,-1.2818,-1.3473,-1.4257,-1.5083,-1.5913,-1.6392,-1.6121,-1.6308,-1.6433,-1.5915,-1.5638,-1.5542,-1.5844,-1.5648,-1.5494,-1.5526,-1.5407,-1.5362,-1.5388,-1.5366,-1.5439,-1.5608,-1.5704,-1.5759,-1.5759,-1.5843,-1.5891,-1.5891,-1.5891,-1.5891,-1.5891,-1.5891,-1.5891,-1.5891,-1.5891,-1.5891,-1.5891,-1.5891,-1.5891,-1.5891,-1.5891,-1.5891,-1.5891,-1.5891,-1.5891,-1.5891,-1.5891,-1.5891,-1.5891,-1.5891,-1.5891,-1.5891,-1.5891,-1.5891,-1.5891,0.0,0.0,0.0,0.0,0.0,0.0,0.0,0.0,-1.4325,-1.4337,0.0,0.0,0.0,0.0,0.0,-1.3565,-1.3517,-1.3121,-1.2196,-1.2508,-1.2119,-1.078,-1.1086,-1.085,-0.9912,-0.9918,-1.0188,-1.0699,-1.0724,-1.0998,-1.149,-1.1553,-1.1745,-1.2036,-1.2138,-1.2414,-1.27,-1.2421,-1.2557,-1.2896,-1.2931,-1.3088,-1.3424,-1.3923,-1.4062,-1.3995,-1.4109,-1.4156,-1.411,-1.3891,-1.3695,-1.343,-1.301,-1.2524,-1.2101,-1.2101,-1.2101,-1.2101,0.0,0.0,0.0,-1.2552,-1.3093,-1.3603,-1.4285,-1.5504,-1.6528,-1.6503,-1.6425,-1.6418,-1.6635,-1.5993,-1.5524,-1.5772,-1.5629,-1.5501,-1.5494,-1.5281,-1.5084,-1.5115,-1.5095,-1.5101,-1.5107,-1.5342,-1.5487,-1.5487,-1.5728,-1.5879,-1.5879,-1.5939,-1.5945,-1.5891,-1.5945,-1.5945,-1.5891,-1.5891,-1.5891,-1.5891,-1.5891,-1.5891,-1.5891,-1.5891,-1.5891,-1.5891,-1.5891,-1.5891,-1.5891,-1.5891,-1.5891,-1.5891,-1.5891,-1.5891,-1.5891,-1.5891,-1.5891,-1.5891,0.0,0.0,0.0,0.0,0.0,-1.4233,-1.4722,-1.4806,-1.495,0.0,0.0,0.0,-1.4854,-1.4498,-1.4229,-1.4084,-1.4091,-1.3804,-1.3164,-1.3221,-1.2657,-1.1268,-1.0947,-1.0538,-0.9983,-1.0258,-1.0492,-1.0699,-1.1093,-1.1346,-1.1486,0.0,-1.1654,-1.2647,-1.2333,-1.2627,-1.331,-1.292,-1.2916,-1.3189,-1.3292,-1.3863,-1.4706,-1.484,-1.5259,-1.5752,-1.565,-1.536,-1.499,-1.4646,-1.4194,-1.3682,-1.2962,-1.2448,-1.2101,-1.2101,-1.2101,-1.2101,-1.2101,0.0,0.0,0.0,0.0,0.0,-1.5534,-1.6289,-1.6763,-1.6745,-1.7072,-1.7224,-1.6649,-1.63,-1.6145,-1.6412,-1.6053,-1.5668,-1.5508,-1.5287,-1.5105,-1.5078,-1.4917,-1.4902,-1.5089,-1.5173,-1.5215,-1.5215,-1.5457,-1.5608,-1.5608,-1.6575,-1.6736,-1.5945,-1.6683,-1.6736,-1.5891,-1.5891,-1.5891,-1.5891,-1.5891,-1.5891,-1.5891,-1.5891,-1.5891,-1.5891,-1.5891,-1.5891,-1.5891,-1.5891,-1.5891,-1.5891,-1.5891,-1.5891,-1.5891,-1.5891,-1.5891,-1.5891,0.0,0.0,-1.3734,-1.4454,-1.4586,-1.4766,-1.5253,-1.5336,-1.5444,0.0,0.0,0.0,-1.5372,-1.5103,-1.4847,-1.4598,-1.4586,-1.4377,-1.3867,-1.3626,-1.3028,-1.1989,-1.1442,-1.082,-1.0128,-1.0344,-1.0599,-1.0877,-1.1006,-1.13,-1.1737,0.0,-1.1787,-1.2888,-1.2615,-1.2896,-1.3583,-1.3488,-1.347,-1.359,-1.4026,-1.4685,-1.5425,-1.5829,-1.628,-1.6647,-1.6586,-1.6474,-1.63,-1.5783,-1.5034,-1.423,-1.3552,-1.2896,-1.2312,-1.2147,-1.2101,-1.2101,-1.2101,-1.2266,-1.2542,-1.2955,0.0,0.0,-1.5322,-1.6138,-1.6706,-1.6819,-1.7135,-1.7271,-1.6862,-1.6562,-1.6485,-1.6771,-1.6387,-1.591,-1.5555,-1.5356,-1.5182,-1.4953,-1.4783,-1.4704,-1.4757,-1.4877,-1.4944,-1.4944,-1.5185,-1.5585,-1.62,-1.7392,-1.78,-1.7298,-1.747,-1.7265,-1.663,-1.6158,-1.5891,-1.5891,-1.5891,-1.5891,-1.5945,-1.6365,-1.663,-1.663,-1.663,-1.663,-1.6577,-1.6099,-1.5891,-1.5891,-1.5891,-1.5891,-1.5891,-1.5891,-1.5891,-1.5891,0.0,0.0,-1.398,-1.4917,-1.5097,-1.5253,-1.572,-1.584,-1.5876,0.0,-1.5936,-1.5994,-1.5994,-1.5912,-1.5696,-1.5217,-1.5121,-1.489,-1.441,-1.3939,-1.339,-1.2818,-1.227,-1.1508,-1.051,-1.0425,-1.0639,-1.112,-1.0765,-1.1114,-1.2095,0.0,0.0,0.0,-1.2992,-1.3259,-1.3784,-1.4198,-1.4255,-1.4133,-1.4907,-1.5464,-1.5906,-1.686,-1.714,-1.7097,-1.7292,-1.7576,-1.7725,-1.7028,-1.6052,-1.5027,-1.4458,-1.3626,-1.277,-1.2319,-1.2165,-1.2156,-1.211,-1.2101,0.0,-1.2533,-1.2946,0.0,-1.4203,-1.5276,-1.6196,-1.6624,-1.6732,-1.6824,-1.7115,-1.6771,-1.6577,-1.6964,-1.6604,-1.6122,-1.5631,-1.5522,-1.5257,-1.474,-1.4717,-1.4592,-1.4346,-1.4521,-1.4672,-1.4672,-1.5014,-1.5777,-1.7054,-1.8216,-1.8979,-1.9162,-1.8387,-1.7891,-1.7786,-1.663,-1.6099,-1.6099,-1.5945,-1.5891,-1.5945,-1.7107,-1.7582,-1.7635,-1.7733,-1.7687,-1.7529,-1.6524,-1.5998,-1.5891,-1.5891,-1.5891,-1.5891,-1.5891,-1.5891,-1.5891,-1.4036,-1.4442,-1.4905,-1.5528,-1.5636,-1.5672,-1.578,-1.6175,-1.6451,-1.6451,-1.6811,-1.7087,-1.7087,-1.6703,-1.6403,-1.6307,-1.5888,-1.5408,-1.4902,-1.4782,-1.4289,-1.3385,-1.283,-1.2234,-1.1608,-1.1159,-1.1054,-1.1265,-1.1182,-1.1463,0.0,0.0,0.0,0.0,-1.359,-1.3919,-1.4845,-1.5279,-1.5368,-1.5191,-1.531,-1.6043,-1.7113,-1.7619,-1.8027,-1.8333,-1.8718,-1.8821,-1.8584,-1.7646,-1.6764,-1.5904,-1.5093,-1.4401,-1.3737,-1.2982,-1.2681,-1.2505,-1.2183,-1.2101,-1.2119,-1.2202,-1.2514,0.0,-1.3415,-1.4222,-1.4974,-1.5368,-1.5969,-1.6504,-1.6892,-1.6579,-1.6451,-1.704,-1.6517,-1.6031,-1.6145,-1.554,-1.496,-1.4646,-1.4652,-1.4592,-1.4346,-1.4346,-1.4377,-1.4377,-1.5358,-1.6176,-1.671,-1.8814,-1.964,-1.8833,-1.9757,-1.9797,-1.8916,-1.7832,-1.7265,-1.7265,-1.6311,-1.5891,-1.5945,-1.7107,-1.7582,-1.7635,-1.8506,-1.8408,-1.7582,-1.7371,-1.6736,-1.5891,-1.5891,-1.5891,-1.5891,-1.5891,-1.5891,-1.5891,-1.449,-1.4842,-1.5169,-1.5696,-1.5792,-1.5876,-1.6175,-1.6427,-1.6703,-1.6955,-1.7484,-1.7905,-1.8169,-1.7724,-1.7387,-1.7387,-1.6907,-1.6379,-1.5828,-1.554,-1.5037,-1.4285,-1.351,-1.2854,-1.2306,-1.1776,-1.1535,-1.1601,-1.1601,-1.186,0.0,0.0,0.0,0.0,-1.4017,-1.4495,-1.5544,-1.6243,-1.6627,-1.674,-1.6554,-1.6992,-1.7744,-1.8164,-1.8559,-1.9023,-1.9443,-1.9525,-1.9356,-1.8858,-1.804,-1.7064,-1.6332,-1.5553,-1.4777,-1.383,-1.3301,-1.2919,-1.2505,-1.2248,-1.2101,-1.2101,-1.2248,0.0,0.0,-1.3461,-1.402,-1.4414,-1.5139,-1.5771,-1.5973,-1.6156,-1.636,-1.6684,-1.6366,-1.6104,-1.6244,-1.6089,-1.5967,-1.5899,-1.5917,-1.5886,-1.5704,-1.5251,-1.4986,-1.5038,-1.6558,-1.7644,-1.7972,-1.966,-2.0516,-2.0353,-2.0485,-2.0405,-2.0055,-1.8975,-1.8408,-1.8401,-1.7825,-1.7252,-1.6789,-1.8454,-1.8923,-1.8454,-1.9591,-1.9746,-1.9183,-1.861,-1.8035,-1.7457,-1.6305,-1.5891,-1.5891,-1.5891,-1.5891,-1.5891,-1.4845,-1.5085,-1.5289,-1.572,-1.5876,-1.6092,-1.6535,-1.6859,-1.7279,-1.7916,-1.8398,-1.8831,-1.9263,-1.8819,-1.8506,-1.8506,-1.7929,-1.7363,-1.6931,-1.6415,-1.5816,-1.5181,-1.4381,-1.3643,-1.3023,-1.2379,-1.2102,-1.221,-1.2005,-1.2174,0.0,0.0,0.0,0.0,0.0,-1.5126,-1.6101,-1.7178,-1.7879,-1.8284,-1.8283,-1.8441,-1.8773,-1.9259,-1.9765,-2.0216,-2.0468,-2.0446,-2.0283,-2.0195,-1.9493,-1.8516,-1.7832,-1.6968,-1.5997,-1.4924,-1.4137,-1.3534,-1.3056,-1.2634,-1.2321,-1.2229,-1.2211,-1.2275,0.0,0.0,0.0,-1.3608,-1.424,-1.4781,-1.4854,-1.5404,-1.5845,-1.5845,-1.5926,-1.5953,-1.5811,-1.6288,-1.6702,-1.6869,-1.7003,-1.7056,-1.6914,-1.6333,-1.5959,-1.6067,-1.7817,-1.9015,-1.9264,-2.0309,-2.1156,-2.1764,-2.1016,-2.0763,-2.1095,-2.0076,-1.9539,-1.9539,-1.928,-1.8767,-1.7996,-2.0012,-2.0416,-1.9591,-2.0731,-2.1089,-2.0834,-1.9901,-1.9383,-1.902,-1.6988,-1.6365,-1.6465,-1.6045,-1.6045,-1.6211,-1.4989,-1.5384,-1.572,-1.578,-1.6199,-1.6535,-1.6595,-1.782,-1.9083,-2.0089,-2.0281,-2.0341,-2.0418,-1.9937,-1.9627,-1.9627,-1.8686,-1.8085,-1.8025,-1.7507,-1.6763,-1.5744,-1.561,-1.5103,-1.4132,-1.3131,-1.2836,-1.3324,-1.2367,-1.2174,0.0,0.0,0.0,0.0,-1.5235,-1.5972,-1.6633,-1.8151,-1.901,-1.9413,-2.0325,-2.0929,-2.1392,-2.2248,-2.2916,-2.3319,-2.2977,-2.2322,-2.1602,-2.1171,-2.0826,-2.0418,-1.9399,-1.8636,-1.781,-1.6392,-1.5452,-1.4726,-1.3984,-1.3488,-1.3066,-1.2716,-1.2625,-1.2542,-1.2239,0.0,-1.2772,-1.2817,0.0,-1.3607,-1.3956,0.0,0.0,-1.4157,-1.4745,-1.5011,-1.4411,-1.501,-1.5538,-1.568,-1.6266,-1.6556,-1.6344,-1.6817,-1.7131,-1.6956,-1.8331,-1.908,-1.8897,-2.0159,-2.0917,-2.1002,-2.1548,-2.1816,-2.1858,-2.1097,-2.0731,-2.0672,-1.9694,-1.9124,-1.9072,-2.0313,-2.0834,-2.0783,-2.192,-2.1818,-2.0885,-2.0783,-2.0107,-1.9072,-1.7891,-1.7989,-1.8603,-1.6624,-1.6524,-1.7265,-1.5456,-1.5648,-1.5792,-1.5792,-1.6247,-1.6811,-1.7423,-1.9167,-2.067,-2.1428,-2.1801,-2.2101,-2.2414,-2.2,-2.1542,-2.1199,-2.049,-1.9793,-1.9155,-1.8626,-1.8001,-1.7219,-1.6307,-1.5598,-1.5175,-1.4149,-1.3734,-1.3951,-1.3517,-1.3409,0.0,0.0,0.0,0.0,-1.5478,-1.6283,-1.7159,-1.877,-1.9901,-2.0717,-2.2123,-2.331,-2.4163,-2.3371,-2.3743,-2.4577,-2.4115,-2.3875,-2.3749,-2.3278,-2.2653,-2.19,-2.1057,-2.029,-1.9382,-1.7773,-1.6863,-1.6169,-1.5219,-1.4478,-1.3901,-1.3507,-1.3396,-1.3295,-1.29,-1.2744,-1.2689,-1.2689,0.0,0.0,0.0,0.0,0.0,0.0,-1.402,-1.4298,-1.4022,-1.4483,-1.4919,-1.5139,-1.559,-1.6006,-1.6213,-1.7195,-1.7914,-1.8126,-1.9125,-1.9774,-1.9894,-2.03,-2.0643,-2.0874,-2.1182,-2.1559,-2.1996,-2.1686,-2.1661,-2.1869,-2.1404,-2.0834,-2.021,-2.1353,-2.1505,-2.0987,-2.2131,-2.2333,-2.1869,-2.1869,-2.1607,-2.1038,-1.9952,-1.9383,-1.9072,-1.8185,-1.814,-1.8454,-1.5991,-1.5903,-1.584,-1.5984,-1.6463,-1.7267,-1.865,-2.043,-2.1861,-2.2534,-2.3075,-2.3604,-2.4133,-2.3725,-2.3244,-2.2859,-2.2221,-2.15,-2.0735,-2.0049,-1.942,-1.8891,-1.7447,-1.6547,-1.6236,-1.5235,-1.4642,-1.4486,-1.4361,-1.4309,0.0,0.0,0.0,0.0,-1.5864,-1.6751,-1.7724,-1.9492,-2.0851,-2.1969,-2.3556,-2.5131,-2.6403,-2.5087,-2.5066,-2.568,-2.5365,-2.5304,-2.5303,-2.4982,-2.4298,-2.3461,-2.2671,-2.2068,-2.1341,-1.9555,-1.8643,-1.7973,-1.6897,-1.5852,-1.4961,-1.4508,-1.4212,-1.3947,-1.3543,-1.3157,-1.2836,-1.2716,-1.2689,0.0,0.0,0.0,0.0,0.0,0.0,-1.3479,-1.3167,-1.3571,-1.414,-1.4824,-1.5166,-1.5586,-1.6214,-1.7351,-1.8196,-1.8568,-1.9669,-2.0386,-2.0614,-2.0503,-2.0557,-2.085,-2.0869,-2.1139,-2.1687,-2.1991,-2.2231,-2.2448,-2.2601,-2.2232,-2.1404,-2.2232,-2.2131,-2.1404,-2.2232,-2.2594,-2.2594,-2.2594,-2.2594,-2.2544,-2.1717,-2.0885,-2.0055,-1.9435,-1.9383,-1.9642,-1.6479,-1.611,-1.5948,-1.6487,-1.7015,-1.8097,-2.0205,-2.1452,-2.2534,-2.3613,-2.4157,-2.4675,-2.5204,-2.4748,-2.4424,-2.4412,-2.352,-2.2919,-2.2915,-2.1909,-2.1091,-2.0562,-1.948,-1.841,-1.7363,-1.6307,-1.5492,-1.4977,-1.4522,-1.4309,-1.4301,0.0,0.0,0.0,-1.6655,-1.7664,-1.8313,-2.0454,-2.1969,-2.3063,-2.4626,-2.6226,-2.7678,-2.8143,-2.7815,-2.711,-2.7139,-2.6554,-2.5797,-2.5744,-2.5608,-2.5229,-2.4096,-2.4052,-2.3962,-2.1981,-2.1026,-2.0356,-1.9203,-1.7726,-1.6379,-1.5799,-1.5056,-1.4378,-1.3956,-1.3561,-1.3158,-1.2772,-1.2689,-1.2569,-1.2193,0.0,0.0,0.0,0.0,0.0,0.0,-1.1882,-1.3015,-1.4692,-1.5095,-1.5452,-1.6052,-1.7195,-1.7878,-1.7846,-1.9637,-2.0648,-2.0438,-2.0588,-2.0708,-2.0717,-2.0816,-2.0891,-2.0964,-2.1878,-2.225,-2.2021,-2.2681,-2.2846,-2.2544,-2.2594,-2.2594,-2.2544,-2.2594,-2.2594,-2.2594,-2.2594,-2.2594,-2.2594,-2.2544,-2.2544,-2.2232,-2.0004,-1.9901,-2.068,-1.6955,-1.7157,-1.7156,-1.6686,-1.7039,-1.8253,-2.0742,-2.2349,-2.3637,-2.465,-2.524,-2.5769,-2.6285,-2.6662,-2.6548,-2.5624,-2.5718,-2.5317,-2.4071,-2.3352,-2.2582,-2.1692,-2.0634,-1.9564,-1.8482,-1.7399,-1.6607,-1.6066,-1.5538,-1.5295,-1.5307,0.0,0.0,0.0,-1.6835,-1.7712,-1.8338,-2.049,-2.2209,-2.3734,-2.5985,-2.744,-2.827,-2.8438,-2.8311,-2.8047,-2.8047,-2.7846,-2.7592,-2.7592,-2.7174,-2.6498,-2.5802,-2.5081,-2.4357,-2.3544,-2.2757,-2.2017,-2.1486,-2.0354,-1.9086,-1.8135,-1.7073,-1.6146,-1.562,-1.4772,-1.4057,-1.3919,-1.3259,-1.2652,-1.2514,0.0,0.0,0.0,0.0,0.0,0.0,-1.1731,-1.2041,-1.2999,-1.3144,0.0,0.0,0.0,0.0,0.0,-1.9138,0.0,-2.0647,-2.0554,-2.0607,-2.0898,-2.0958,-2.1105,-2.1377,-2.1972,-2.2311,-2.2477,-2.3012,-2.3097,-2.2846,-2.2846,-2.2745,-2.2594,-2.2594,-2.2594,-2.2594,-2.2594,-2.2594,-2.2594,-2.2594,-2.2594,-2.2493,-2.1717,-2.1709,-2.1869,-1.8092,-1.8275,-1.8148,-1.7293,-1.8065,-1.9549,-2.1712,-2.3577,-2.516,-2.6265,-2.6819,-2.741,-2.8225,-2.8114,-2.7854,-2.7543,-2.7284,-2.678,-2.5854,-2.5316,-2.4509,-2.334,-2.2561,-2.145,-1.9877,-1.8806,-1.7808,-1.6883,-1.6355,-1.5994,-1.5792,-1.5792,0.0,0.0,-1.7003,-1.8025,-1.9167,-2.0935,-2.2702,-2.4518,-2.6803,-2.8041,-2.8534,-2.8715,-2.8907,-2.9039,-2.8859,-2.8919,-2.9039,-2.8859,-2.8412,-2.7819,-2.7013,-2.637,-2.5801,-2.519,-2.4389,-2.3708,-2.358,-2.2412,-2.1036,-2.0048,-1.9035,-1.7973,-1.7042,-1.6016,-1.5204,-1.4964,-1.4075,-1.3304,-1.3148,0.0,0.0,0.0,0.0,0.0,0.0,-1.1669,-1.1462,0.0,0.0,0.0,0.0,0.0,0.0,0.0,0.0,0.0,0.0,-2.0611,-2.0739,-2.1132,-2.1042,-2.1121,-2.1387,-2.187,-2.2262,-2.2509,-2.3055,-2.3214,-2.3147,-2.3147,-2.3046,-2.2896,-2.2795,-2.2745,-2.2745,-2.2644,-2.2594,-2.2594,-2.2594,-2.2594,-2.2594,-2.2594,-2.2594,-2.2493,-1.9748,-1.9405,-1.8969,-1.8535,-2.0155,-2.1926,-2.3135,-2.5171,-2.7041,-2.8299,-2.8756,-2.9452,-3.0755,-2.9125,-2.8522,-3.0012,-2.83,-2.7458,-2.8133,-2.7679,-2.6772,-2.5478,-2.5145,-2.3903,-2.156,-2.043,-1.9095,-1.7507,-1.6931,-1.6379,-1.5876,-1.584,0.0,0.0,-1.7219,-1.8638,-2.0675,-2.1819,-2.3496,-2.5564,-2.709,-2.8089,-2.8643,-2.9124,-2.9665,-3.0098,-2.9532,-2.9665,-3.0013,-2.9508,-2.934,-2.9109,-2.7708,-2.7841,-2.8239,-2.6901,-2.5931,-2.5337,-2.5485,-2.4033,-2.2358,-2.1663,-2.0886,-1.9869,-1.8328,-1.7354,-1.6609,-1.5928,-1.5139,-1.4442,-1.4049,-1.3304,0.0,0.0,0.0,0.0,0.0,0.0,0.0,0.0,0.0,0.0,0.0,0.0,0.0,0.0,0.0,0.0,0.0,-2.0646,-2.0976,-2.1356,-2.1177,-2.1042,-2.1042,-2.167,-2.2075,-2.2224,-2.2817,-2.322,-2.3397,-2.3397,-2.3397,-2.3406,-2.3147,-2.2996,-2.2996,-2.2745,-2.2594,-2.2594,-2.2603,-2.2594,-2.2594,-2.2594,-2.2594,-2.2594,-2.0319,-2.0525,-2.1298,-2.2938,-2.3382,-2.3883,-2.5049,-2.6414,-2.7892,-2.9441,-2.9741,-3.0071,-3.083,-3.095,-3.0895,-3.071,-3.0763,-3.0414,-2.9632,-2.8893,-2.7985,-2.6856,-2.5777,-2.4587,-2.3216,-2.1728,-2.0394,-1.9167,-1.7857,-1.7123,-1.6979,-1.6583,-1.6679,-1.7255,-1.8181,-1.9351,-2.0723,-2.2602,-2.4807,-2.7126,-2.7981,-2.8859,-2.9653,-2.94,-3.0122,-3.1187,-3.0218,-2.9965,-3.0062,-2.9929,-2.9881,-2.9743,-2.901,-2.8463,-2.811,-2.8011,-2.7365,-2.6754,-2.705,-2.6274,-2.5262,-2.4542,-2.3536,-2.2306,-2.0742,-1.9776,-1.8844,-1.7549,-1.6373,-1.5442,-1.4894,-1.4121,0.0,0.0,0.0,0.0,0.0,0.0,0.0,-1.1644,0.0,0.0,0.0,0.0,0.0,0.0,0.0,0.0,-1.9567,-2.0199,-2.0775,-2.1176,-2.1398,-2.1508,-2.1508,-2.1989,-2.2399,-2.2715,-2.3162,-2.3514,-2.3696,-2.3696,-2.3605,-2.3397,-2.3347,-2.3297,-2.3297,-2.2996,-2.2896,-2.2896,-2.2695,-2.2594,-2.2594,-2.2594,-2.2594,-2.2594,-2.2137,-2.2752,-2.3977,-2.5894,-2.6419,-2.6678,-2.7059,-2.8338,-2.9676,-3.0942,-3.103,-3.1332,-3.2229,-3.2135,-3.2206,-3.2735,-3.2283,-3.1803,-3.1396,-3.069,-2.9764,-2.8597,-2.7811,-2.6644,-2.5001,-2.3535,-2.2017,-2.049,-1.9119,-1.8205,-1.7748,-1.7195,-1.7351,-1.8133,-1.8722,-2.0001,-2.1807,-2.4145,-2.6142,-2.7726,-2.8294,-2.9003,0.0,-2.9677,-3.0338,-3.1308,-3.0946,-3.0814,-3.0735,-3.0506,-3.0434,-3.0338,-2.9809,-2.9297,-2.8898,-2.8882,-2.8227,-2.7608,-2.7961,-2.745,-2.6662,-2.6055,-2.5362,-2.447,-2.2935,-2.1885,-2.1006,-2.0042,-1.8844,-1.7697,-1.6706,-1.5906,-1.4954,0.0,0.0,0.0,0.0,0.0,0.0,0.0,-1.155,0.0,0.0,0.0,0.0,0.0,0.0,0.0,0.0,-1.9815,-2.0521,-2.1089,-2.1476,-2.1696,-2.1696,-2.1906,-2.2227,-2.2638,-2.3041,-2.3395,-2.369,-2.3872,-2.3895,-2.3755,-2.3655,-2.3546,-2.3546,-2.3297,-2.3147,-2.3147,-2.2996,-2.2946,-2.2946,-2.2946,-2.2795,-2.2594,-2.4669,-2.5442,-2.6596,-2.7961,-2.9127,-2.9729,-2.9306,-3.0521,-3.1702,-3.2476,-3.2441,-3.2849,-3.406,-3.3013,-3.303,-3.5022,-3.3403,-3.2551,-3.324,-3.2608,-3.1698,-3.0537,-3.0233,-2.9126,-2.7031,-2.5669,-2.4025,-2.1952,-2.0819,-1.9685,-1.8614,-1.8001,-1.8253,-1.9215,-1.9348,-2.0887,-2.3544,-2.5997,-2.7306,-2.7834,-2.8402,-2.8931,-2.946,-2.9989,-3.0518,-3.1091,-3.1536,-3.1705,-3.1633,-3.1175,-3.1019,-3.0922,-3.035,-3.0194,-3.0086,-2.9556,-2.8881,-2.8307,-2.855,-2.8073,-2.7366,-2.6885,-2.6757,-2.6381,-2.484,-2.3859,-2.3171,-2.2805,-2.1707,-2.0405,-1.9083,-1.7971,-1.6604,-1.4471,0.0,0.0,0.0,0.0,0.0,0.0,0.0,0.0,0.0,0.0,0.0,0.0,0.0,0.0,0.0,0.0,-2.0223,-2.1007,-2.1449,-2.1696,-2.1696,-2.1696,-2.1888,-2.2282,-2.2712,-2.3114,-2.3508,-2.3969,-2.4202,-2.4202,-2.3954,-2.3845,-2.3845,-2.3546,-2.3447,-2.3397,-2.3397,-2.3397,-2.3397,-2.3397,-2.3097,-2.2695,-2.7074,-2.7327,-2.806,-2.9961,-3.0867,-3.1518,-3.2061,-3.2193,-3.2498,-3.3275,-3.3655,-3.3918,-3.4189,-3.444,-3.4752,-3.5175,-3.4855,-3.4659,-3.4822,-3.3582,-3.2729,-3.2509,-3.0947,-2.9902,-2.948,-2.8382,-2.6853,-2.4951,-2.3487,-2.2097,-2.0827,-1.9829,-1.9708,-2.037,-2.1247,-2.3087,-2.5636,-2.7007,-2.7885,-2.8414,-2.8943,-2.9484,-3.0013,-3.0585,-3.1103,-3.1585,-3.1681,-3.1705,-3.1693,-3.1597,-3.1573,-3.1476,-3.0946,-3.0778,-3.0627,-3.011,-2.9858,-2.9654,-2.9263,-2.9037,-2.8824,-2.8299,-2.8156,-2.7774,-2.6393,-2.5972,-2.5486,-2.4192,-2.3096,-2.2157,-2.141,-1.9334,-1.7204,-1.5649,-1.4827,0.0,0.0,0.0,0.0,0.0,0.0,0.0,0.0,0.0,0.0,0.0,0.0,0.0,0.0,0.0,-2.0104,-2.0613,-2.1302,-2.1696,0.0,0.0,-2.1888,-2.2282,-2.2712,-2.3114,-2.3508,-2.3969,-2.4202,-2.4202,-2.4152,-2.4152,-2.4102,-2.3854,-2.3596,-2.3397,-2.3397,-2.3397,-2.3397,-2.3397,-2.3347,-2.3247,-2.9387,-2.9515,-2.9998,-3.161,-3.2122,-3.2716,-3.3876,-3.3827,-3.3788,-3.4157,-3.4683,-3.5135,-3.5461,-3.567,-3.5944,-3.6269,-3.5888,-3.5667,-3.5667,-3.4715,-3.4007,-3.3652,-3.2316,-3.1345,-3.0731,-2.9817,-2.8403,-2.6517,-2.5241,-2.3916,-2.2606,-2.1566,-2.132,-2.1897,-2.322,-2.4662,-2.6166,-2.726,-2.8186,-2.8943,-2.9196,-2.9785,-3.0518,-3.0783,-3.1247,-3.1705,-3.1705,-3.1705,-3.1705,-3.1705,-3.1705,-3.1657,-3.1404,-3.1332,-3.1223,-3.0651,-3.0494,-3.0386,-2.9845,-2.9701,-2.9581,-2.9051,-2.8919,-2.8654,-2.7758,-2.7337,-2.6909,-2.6161,-2.544,-2.4534,-2.324,-2.0874,0.0,-1.8175,-1.7061,0.0,0.0,0.0,0.0,0.0,0.0,0.0,0.0,0.0,0.0,0.0,0.0,0.0,0.0,0.0,-1.9888,-2.0493,-2.1266,-2.1696,-2.1696,0.0,-2.1787,-2.198,-2.2611,-2.3004,-2.3215,-2.3877,-2.4202,-2.4202,-2.4202,-2.4202,-2.4202,-2.4053,-2.3954,-2.3795,-2.3795,-2.3795,-2.3795,-2.3795,-2.3755,-2.3555,-3.1357,-3.1472,-3.1872,-3.3164,-3.3378,-3.3833,-3.5163,-3.5345,-3.5267,-3.5067,-3.559,-3.6233,-3.681,-3.6883,-3.7096,-3.7643,-3.713,-3.6676,-3.6511,-3.592,-3.5302,-3.4624,-3.385,-3.2965,-3.1932,-3.1285,-3.0053,-2.8139,-2.7011,-2.5511,-2.3705,-2.3123,-2.3135,-2.3701,-2.5059,-2.5949,-2.6502,-2.7476,-2.8426,-2.9304,-2.9424,-3.0025,-3.0891,-3.1043,-3.1416,-3.1886,-3.1886,-3.1958,-3.2054,-3.2054,-3.1898,-3.1705,-3.1705,-3.1705,-3.1633,-3.1211,-3.1091,-3.0927,-3.0441,-3.0254,-3.0122,-2.9593,-2.9388,-2.9184,-2.8775,-2.827,-2.7885,-2.7885,-2.7426,-2.6491,-2.465,-2.2689,0.0,-2.0547,-1.9434,0.0,0.0,0.0,0.0,0.0,0.0,0.0,0.0,0.0,0.0,0.0,0.0,0.0,-1.7449,-1.8641,-1.9677,-2.0451,-2.1183,-2.1604,-2.1696,0.0,-2.1696,-2.1705,-2.2428,-2.2821,-2.2931,-2.3703,-2.4119,-2.4202,-2.4202,-2.4202,-2.4202,-2.4202,-2.4202,-2.4202,-2.4202,-2.4202,-2.4202,-2.4202,-2.4202,-2.4183,-3.2611,-3.2739,-3.3207,-3.464,-3.4891,-3.5192,-3.6077,-3.67,-3.6787,-3.6,-3.6306,-3.6862,-3.7463,-3.8063,-3.856,-3.8975,-3.8975,-3.8557,-3.7765,-3.7161,-3.6581,-3.5963,-3.5326,-3.4671,-3.3926,-3.3862,-3.2878,-3.0924,-2.9601,-2.7082,-2.3465,-2.4527,-2.53,-2.5829,-2.6453,-2.7042,-2.7609,-2.8186,-2.8775,-2.934,-2.9821,-3.0362,-3.0927,-3.1452,-3.1982,-3.243,-3.243,-3.2731,-3.314,-3.314,-3.2478,-3.1705,-3.1705,-3.1705,-3.1705,-3.1645,-3.1633,-3.1524,-3.0995,-3.085,-3.0718,-3.0146,-2.9653,-2.928,-2.9232,-2.8823,-2.8438,-2.8438,-2.8017,-2.7133,-2.5551,-2.4797,-2.3689,-2.1528,-2.0933,-2.0425,0.0,0.0,-1.7758,0.0,0.0,0.0,0.0,0.0,0.0,0.0,0.0,0.0,0.0,-1.8641,-1.9677,-2.0451,-2.0943,-2.1346,-2.1687,-2.1696,-2.1696,-2.1696,-2.2126,-2.2538,-2.2922,-2.3352,-2.3804,-2.4202,-2.4202,-2.4202,-2.4202,-2.4202,-2.4202,-2.4202,-2.4202,-2.4202,-2.4202,-2.4202,-2.4775,-2.5499,-3.4903,-3.4946,-3.5119,-3.5731,-3.5817,-3.62,-3.7288,-3.768,-3.7991,-3.8393,-3.8303,-3.8424,-3.903,-3.9229,-3.9384,-3.9562,-3.9456,-3.9221,-3.8871,-3.8524,-3.7865,-3.6862,-3.6451,-3.5836,-3.4801,-3.4421,-3.3562,-3.2323,-3.0609,-2.8705,-2.6728,-2.6895,-2.7088,-2.731,-2.7879,-2.813,-2.8234,-2.8763,-2.9472,-3.0266,-3.047,-3.0922,-3.1452,-3.1961,-3.2298,-3.2539,-3.2863,-3.3104,-3.3284,-3.3284,-3.2791,-3.2166,-3.2166,-3.1982,-3.1705,-3.1705,-3.1705,-3.1657,-3.1452,-3.1392,-3.1259,-3.0687,-3.0398,-3.017,-2.9845,-2.9364,-2.8979,-2.8979,-2.8558,-2.79,-2.6963,-2.6167,-2.5381,-2.4626,-2.3653,-2.2926,0.0,0.0,0.0,-2.0629,0.0,0.0,0.0,0.0,0.0,0.0,0.0,0.0,0.0,-1.9316,-2.0271,-2.0493,-2.1687,-2.2111,-2.1687,-2.1696,-2.1696,-2.1696,-2.2089,-2.2501,-2.2922,-2.3316,-2.3767,-2.4202,-2.4202,-2.4202,-2.4202,-2.4202,-2.4538,-2.5118,-2.5118,-2.5489,-2.6003,-2.6003,-2.6244,-2.658,-3.6301,-3.6301,-3.6431,-3.6794,-3.6867,-3.7288,-3.8565,-3.8754,-3.9146,-4.0249,-4.0017,-3.9915,-4.035,-4.0289,-4.0242,-4.0349,-4.0242,-4.0048,-3.9822,-3.966,-3.9069,-3.7912,-3.7568,-3.6845,-3.5752,-3.5082,-3.4404,-3.3665,-3.1844,-3.0256,-2.8931,-2.8116,-2.8265,-2.9197,-2.9341,-2.9369,-2.9382,-2.9487,-3.005,-3.0922,-3.0922,-3.1332,-3.1994,-3.2346,-3.2683,-3.3008,-3.3368,-3.3609,-3.3741,-3.3741,-3.3392,-3.2899,-3.2599,-3.2226,-3.1922,-3.1753,-3.1705,-3.1705,-3.1705,-3.1705,-3.1621,-3.1247,-3.1043,-3.0783,-3.0398,-2.9917,-2.9484,-2.9328,-2.8883,-2.8402,-2.8029,-2.736,-2.6806,-2.66,-2.5857,-2.5176,-2.4805,-2.3875,0.0,-2.2726,-2.14,-2.0584,-2.0909,0.0,0.0,0.0,0.0,0.0,0.0,-2.0082,-2.1083,-2.1492,-2.2427,-2.2805,-2.2511,-2.1998,-2.182,-2.2122,-2.2402,-2.2832,-2.3383,-2.3906,-2.417,-2.4202,-2.4202,-2.435,-2.4637,-2.4637,-2.5206,-2.6167,-2.6167,-2.658,-2.7189,-2.7189,-2.7379,-2.7626,-3.6301,-3.6301,-3.6707,-3.7955,-3.8188,-3.8609,-3.9886,-4.0075,-4.0321,-4.1004,-4.1076,-4.1076,-4.1091,-4.1091,-4.1242,-4.1657,-4.1673,-4.1331,-4.0537,-4.0494,-4.0085,-3.9201,-3.8592,-3.7876,-3.7017,-3.6399,-3.578,-3.5175,-3.3679,-3.164,-2.9063,-2.7613,-2.8657,-3.1705,-3.085,-3.0809,-3.1323,-3.0467,-3.0386,-3.0922,-3.0922,-3.1529,-3.2491,-3.2503,-3.3128,-3.397,-3.3982,-3.4318,-3.4763,-3.4763,-3.4414,-3.379,-3.2827,-3.2491,-3.2382,-3.1874,-3.1705,-3.1705,-3.1705,-3.1705,-3.1705,-3.1705,-3.1308,-3.0922,-3.091,-3.0458,-2.9929,-2.9412,-2.8883,-2.851,-2.8498,-2.8498,-2.804,-2.6734,-2.698,-2.6909,-2.56,-2.4846,0.0,-2.5185,-2.2386,-2.1162,-2.3173,-2.09,0.0,0.0,0.0,0.0,0.0,-2.085,-2.208,-2.3795,-2.2968,0.0,-2.4445,-2.2643,-2.2157,-2.3096,-2.3105,-2.3599,-2.4516,-2.5293,-2.5109,-2.4202,-2.4202,-2.4775,-2.5693,-2.5693,-2.6254,-2.7189,-2.7189,-2.7189,-2.7189,-2.7189,-2.7814,-2.8678,-3.8884,-3.8884,-3.9015,-3.9421,-3.9494,-3.9784,-4.0655,-4.0771,-4.1018,-4.1686,-4.1773,-4.1932,-4.2339,-4.202,-4.1819,-4.1966,-4.1953,-4.1867,-4.1596,-4.1429,-4.1003,-4.033,-3.9967,-3.9406,-3.8526,-3.748,-3.6753,-3.6441,-3.4568,-3.3268,-3.2413,-3.1956,-3.2287,-3.3288,-3.3019,-3.2857,-3.2778,-3.1901,-3.1861,-3.2308,-3.2083,-3.219,-3.2575,-3.3238,-3.3706,-3.4042,-3.4402,-3.4643,-3.4775,-3.4775,-3.4667,-3.4414,-3.3718,-3.3068,-3.2466,-3.2286,-3.2006,-3.1705,-3.1705,-3.1705,-3.1705,-3.1705,-3.1585,-3.1452,-3.1452,-3.1043,-3.0374,-2.9484,-2.916,-2.8931,-2.857,-2.851,-2.8371,-2.7953,-2.8009,-2.783,-2.6894,-2.6593,-2.6359,-2.603,-2.5055,-2.4623,-2.5108,-2.3623,0.0,0.0,0.0,0.0,0.0,-2.2738,-2.3646,-2.3888,-2.4462,0.0,-2.4498,-2.3897,-2.3757,-2.4059,-2.4059,-2.4517,-2.5401,-2.6306,-2.6532,-2.6244,-2.6244,-2.6436,-2.6723,-2.6723,-2.7342,-2.82,-2.82,-2.8667,-2.9268,-2.9268,-2.9463,-2.9703,-4.0104,-4.0104,-4.0176,-4.0423,-4.0481,-4.0699,-4.1366,-4.1671,-4.1961,-4.2382,-4.2658,-4.2948,-4.3326,-4.3036,-4.2803,-4.2803,-4.2571,-4.244,-4.244,-4.2069,-4.1627,-4.1167,-4.0814,-4.0308,-3.9678,-3.8655,-3.7962,-3.7604,-3.5812,-3.4734,-3.4451,-3.4451,-3.4561,-3.4782,-3.441,-3.4295,-3.4285,-3.3646,-3.3322,-3.3314,-3.3325,-3.3241,-3.3152,-3.3742,-3.4114,-3.433,-3.4667,-3.4775,-3.4775,-3.4775,-3.4775,-3.4727,-3.439,-3.3706,-3.3008,-3.2611,-3.225,-3.1982,-3.1765,-3.1705,-3.1705,-3.1705,-3.1705,-3.1705,-3.1705,-3.1296,-3.073,-3.0025,-2.9737,-2.9436,-2.8907,-2.8811,-2.8739,-2.8546,-2.851,-2.835,-2.7857,-2.7809,-2.76,-2.7084,-2.6578,0.0,0.0,-2.5267,-2.4617,0.0,0.0,-2.4104,-2.3749,-2.4412,-2.492,-2.5124,-2.5594,-2.5704,-2.5516,-2.484,-2.4659,-2.4999,-2.5401,-2.5867,-2.6349,-2.7334,-2.7579,-2.7189,-2.7189,-2.7426,-2.7757,-2.7757,-2.8376,-2.9279,-2.9279,-2.9658,-3.0216,-3.0216,-3.0216,-3.0216,-4.0234,-4.0263,-4.0495,-4.112,-4.1265,-4.1512,-4.2136,-4.2702,-4.3065,-4.3065,-4.3602,-4.4008,-4.4052,-4.4052,-4.4066,-4.4124,-4.3471,-4.3065,-4.3065,-4.2498,-4.2053,-4.1801,-4.1196,-4.0797,-4.0566,-3.9922,-3.9279,-3.8649,-3.7262,-3.6208,-3.5494,-3.5442,-3.5752,-3.6262,-3.5382,-3.5328,-3.5913,-3.5586,-3.4917,-3.4079,-3.4653,-3.4569,-3.4137,-3.4173,-3.445,-3.4775,-3.4775,-3.4775,-3.4775,-3.4775,-3.4775,-3.4775,-3.4775,-3.4438,-3.385,-3.2851,-3.2527,-3.2382,-3.1862,-3.1705,-3.1705,-3.1705,-3.1705,-3.1705,-3.1705,-3.1332,-3.0915,-3.0922,-3.0482,-2.9977,-2.9448,-2.9328,-2.9136,-2.8643,-2.8534,-2.851,-2.851,-2.851,-2.8431,-2.8259,-2.7137,0.0,-2.7117,-2.6048,-2.5607,0.0,0.0,-2.6888,-2.6888,-2.5925,-2.5924,-2.7167,-2.6351,-2.631,-2.719,-2.5516,-2.5094,-2.5979,-2.7019,-2.7437,-2.7403,-2.839,-2.833,-2.7463,-2.7463,-2.7992,-2.8863,-2.8863,-2.9428,-3.0273,-3.0273,-3.0273,-3.0261,-3.0216,-3.0216,-3.0216,-4.1628,-4.199,-4.2353,-4.2513,-4.2963,-4.3355,-4.3529,-4.366,-4.3761,-4.3761,-4.3892,-4.4168,-4.4632,-4.4676,-4.4879,-4.5401,-4.44,-4.3761,-4.3761,-4.3137,-4.2774,-4.2676,-4.2096,-4.1681,-4.1403,-4.0812,-4.0098,-3.9307,-3.8783,-3.845,-3.8229,-3.811,-3.81,-3.8241,-3.7985,-3.7974,-3.8086,-3.7301,-3.6836,-3.6634,-3.6506,-3.5947,-3.5171,-3.5593,-3.5365,-3.4775,-3.4775,-3.4775,-3.4775,-3.4775,-3.4775,-3.4775,-3.4775,-3.4691,-3.439,-3.3404,-3.2815,-3.2382,-3.1862,-3.1705,-3.1705,-3.1705,-3.1705,-3.1705,-3.1705,-3.1609,-3.1404,-3.0963,-3.0814,-3.053,-3.0001,-2.9581,-2.9256,-2.9136,-2.8775,-2.851,-2.851,-2.851,-2.8471,-2.8419,-2.814,-2.7937,-2.7949,-2.7671,-2.7481,0.0,0.0,-2.7624,-2.7624,-2.7411,-2.7256,-2.7179,-2.6962,-2.6974,-2.719,-2.6757,-2.6866,-2.7489,-2.8103,-2.8678,-2.9209,-2.9872,-3.0114,-3.008,-3.008,-3.0227,-3.0465,-3.0465,-3.0601,-3.0793,-3.0793,-3.0793,-3.0793,-3.0578,-3.0532,-3.0487,-4.2963,-4.3224,-4.3442,-4.3442,-4.3747,-4.3993,-4.3993,-4.4226,-4.44,-4.44,-4.4676,-4.498,-4.53,-4.5343,-4.5488,-4.5851,-4.498,-4.44,-4.44,-4.3805,-4.3311,-4.3007,-4.2687,-4.2326,-4.1897,-4.155,-4.0977,-4.0072,-3.9679,-3.943,-3.9335,-3.9228,-3.9147,-3.9039,-3.9039,-3.8998,-3.8875,-3.8658,-3.8292,-3.7881,-3.7953,-3.7447,-3.6588,-3.6849,-3.6649,-3.6131,-3.5667,-3.5488,-3.5488,-3.5488,-3.5488,-3.5488,-3.5488,-3.5488,-3.5184,-3.3725,-3.308,-3.2683,-3.1922,-3.1705,-3.1705,-3.1705,-3.1705,-3.1705,-3.1705,-3.1705,-3.1633,-3.1344,-3.1284,-3.1115,-3.0543,-3.0218,-2.9857,-2.9376,-2.9051,-2.8787,-2.8546,-2.851,-2.851,-2.851,-2.851,-2.8471,-2.8339,-2.8339,-2.8299,-2.8203,-2.8082,0.0,-2.803,-2.7962,-2.776,-2.7516,-2.7383,-2.733,-2.733,-2.726,-2.7483,-2.7989,-2.8471,-2.9095,-2.9834,-3.0345,-3.0724,-3.0984,-3.0984,-3.0984,-3.0984,-3.0984,-3.0984,-3.0984,-3.0984,-3.0984,-3.0984,-3.0826,-3.0781,-3.0769,-4.3993,-4.4066,-4.4124,-4.4124,-4.4211,-4.4284,-4.4284,-4.4705,-4.5039,-4.5039,-4.5532,-4.588,-4.588,-4.588,-4.588,-4.588,-4.5358,-4.5039,-4.5039,-4.4458,-4.3863,-4.3297,-4.3195,-4.2861,-4.2237,-4.215,-4.1734,-4.0992,-4.0403,-4.0009,-3.9848,-3.9808,-3.9701,-3.9525,-3.9525,-3.9444,-3.9308,-3.9788,-3.9493,-3.8765,-3.9226,-3.8868,-3.8024,-3.8024,-3.7946,-3.7671,-3.6837,-3.6555,-3.6555,-3.6555,-3.6555,-3.6555,-3.6555,-3.6414,-3.5978,-3.4357,-3.3703,-3.3262,-3.2172,-3.2001,-3.2033,-3.1913,-3.1913,-3.1913,-3.1913,-3.1781,-3.1705,-3.1705,-3.1705,-3.1573,-3.1115,-3.0927,-3.0579,-2.9689,-2.94,-2.9136,-2.8691,-2.8558,-2.851,-2.851,-2.851,-2.851,-2.851,-2.851,-2.851,-2.851,-2.8339,-2.8259,-2.8259,-2.807,-2.8002,-2.8002,-2.7696,-2.7563,-2.7563,-2.7383,-2.76,-2.8218,-2.8633,-2.9228,-3.0027,-3.0514,-3.0859,-3.1118,-3.1118,-3.1118,-3.1118,-3.1118,-3.1118,-3.1118,-3.1118,-3.1118,-3.1107,-3.1062,-3.1062,-3.1017,-4.3993,-4.44,-4.4748,-4.4748,-4.5213,-4.559,-4.559,-4.5663,-4.5721,-4.5721,-4.5822,-4.588,-4.588,-4.588,-4.588,-4.588,-4.5779,-4.5721,-4.5721,-4.5111,-4.469,-4.4603,-4.411,-4.3529,-4.2861,-4.2353,-4.2049,-4.1906,-4.1555,-4.14,-4.1358,-4.1165,-4.1096,-4.1068,-4.1068,-4.1026,-4.0984,-4.0873,-4.0718,-4.0548,-4.0503,-3.9867,-3.8988,-3.8988,-3.8509,-3.7763,-3.7625,-3.7579,-3.7579,-3.7579,-3.7579,-3.7579,-3.7579,-3.6977,-3.6335,-3.6386,-3.5467,-3.4167,-3.309,-3.3365,-3.3733,-3.2993,-3.2778,-3.2778,-3.2778,-3.2239,-3.1705,-3.1705,-3.1705,-3.1681,-3.1597,-3.1223,-3.0862,-3.0694,-2.9881,-2.9268,-2.9184,-2.8799,-2.851,-2.851,-2.851,-2.851,-2.851,-2.851,-2.851,-2.851,-2.8471,-2.8471,-2.8471,-2.8431,-2.8391,-2.8391,-2.8042,-2.7841,-2.7841,-2.78,-2.8269,-2.9195,-2.9277,-2.9891,-3.1054,-3.1125,-3.135,-3.1572,-3.1572,-3.1572,-3.1572,-3.1572,-3.1572,-3.1572,-3.1572,-3.1572,-3.1572,-3.135,-3.1261,-3.1229,-4.501,-4.5227,-4.5416,-4.5416,-4.5677,-4.588,-4.588,-4.588,-4.588,-4.588,-4.588,-4.588,-4.588,-4.588,-4.588,-4.588,-4.588,-4.588,-4.588,-4.559,-4.5271,-4.4908,-4.4618,-4.4182,-4.3544,-4.2905,-4.2571,-4.2571,-4.2154,-4.1897,-4.1897,-4.1829,-4.1689,-4.1535,-4.1535,-4.1507,-4.1396,-4.1255,-4.1198,-4.1198,-4.0972,-4.056,-4.0144,-4.0027,-3.9736,-3.9295,-3.8734,-3.8554,-3.8554,-3.8554,-3.8554,-3.8554,-3.8554,-3.8225,-3.7743,-3.7166,-3.6028,-3.4768,-3.3922,-3.3972,-3.4223,-3.3804,-3.3678,-3.3678,-3.3678,-3.3036,-3.2413,-3.2413,-3.2045,-3.1705,-3.1705,-3.1512,-3.1247,-3.097,-3.0458,-3.005,-2.9761,-2.9268,-2.8931,-2.8931,-2.8691,-2.851,-2.851,-2.851,-2.851,-2.851,-2.851,-2.851,-2.851,-2.851,-2.851,-2.851,-2.8231,-2.8002,-2.7893,-2.8204,-2.8668,-2.9397,-2.9679,-3.0339,-3.1306,-3.1306,-3.1439,-3.1705,-3.1705,-3.1705,-3.1705,-3.1705,-3.1705,-3.1705,-3.1705,-3.1705,-3.1705,-3.1572,-3.1528,-3.1484,-4.588,-4.588,-4.588,-4.588,-4.588,-4.588,-4.588,-4.588,-4.588,-4.588,-4.588,-4.588,-4.588,-4.588,-4.588,-4.588,-4.588,-4.588,-4.588,-4.588,-4.5648,-4.514,-4.4966,-4.4676,-4.4211,-4.3558,-4.3152,-4.2992,-4.2528,-4.2237,-4.2092,-4.2092,-4.1995,-4.1785,-4.1785,-4.1717,-4.1578,-4.148,-4.148,-4.1438,-4.1184,-4.11,-4.1057,-4.0859,-4.0773,-4.0674,-3.9853,-3.9533,-3.9533,-3.9533,-3.9577,-3.9607,-3.9577,-3.9431,-3.9115,-3.8127,-3.7047,-3.5883,-3.4627,-3.4596,-3.4897,-3.4678,-3.465,-3.465,-3.465,-3.393,-3.331,-3.331,-3.2778,-3.2283,-3.2283,-3.2164,-3.1867,-3.1454,-3.1124,-3.0778,-3.0326,-2.9821,-2.9484,-2.9484,-2.9124,-2.8823,-2.8703,-2.8691,-2.8643,-2.8522,-2.851,-2.851,-2.851,-2.851,-2.857,-2.8691,-2.8411,-2.825,-2.8219,-2.8621,-2.913,-2.9744,-3.0158,-3.0707,-3.1395,-3.1395,-3.1484,-3.1705,-3.1705,-3.1705,-3.1705,-3.1705,-3.1705,-3.1705,-3.1705,-3.1705,-3.1705,-3.1705,-3.1837,-3.2001,-4.588,-4.588,-4.588,-4.588,-4.588,-4.588,-4.588,-4.588,-4.588,-4.588,-4.588,-4.588,-4.588,-4.588,-4.588,-4.588,-4.588,-4.588,-4.588,-4.588,-4.5866,-4.5822,-4.5213,-4.4864,-4.4821,-4.4226,-4.3616,-4.2992,-4.2948,-4.2644,-4.2092,-4.2092,-4.2092,-4.2092,-4.2092,-4.2051,-4.2051,-4.18,-4.1702,-4.166,-4.1465,-4.1396,-4.1339,-4.11,-4.1001,-4.0958,-4.0674,-4.0602,-4.0602,-4.0602,-4.0716,-4.0816,-4.0645,-4.0099,-3.9678,-4.0273,-3.9578,-3.8006,-3.5078,-3.5507,-3.6612,-3.579,-3.5588,-3.5588,-3.5588,-3.4856,-3.4223,-3.4223,-3.4139,-3.4098,-3.4098,-3.3437,-3.2895,-3.2845,-3.1773,-3.091,-3.0862,-3.0362,-3.0025,-3.0025,-2.9989,-2.9785,-2.9292,-2.9244,-2.9039,-2.8546,-2.851,-2.851,-2.851,-2.851,-2.8739,-2.9232,-2.8723,-2.8711,-2.9191,-2.9239,-2.9767,-3.0776,-3.0812,-3.1156,-3.1661,-3.1661,-3.1661,-3.1705,-3.1705,-3.1705,-3.1705,-3.1705,-3.1705,-3.1705,-3.1705,-3.1705,-3.1705,-3.1705,-3.2208,-3.2907,-4.588,-4.588,-4.588,-4.588,-4.588,-4.588,-4.588,-4.588,-4.588,-4.588,-4.588,-4.588,-4.588,-4.588,-4.588,-4.588,-4.588,-4.588,-4.588,-4.588,-4.588,-4.588,-4.5648,-4.5503,-4.5503,-4.4879,-4.4414,-4.4168,-4.3384,-4.2876,-4.2644,-4.2281,-4.2092,-4.2092,-4.2092,-4.2092,-4.2092,-4.1995,-4.1939,-4.1939,-4.1675,-4.1591,-4.1535,-4.1325,-4.1241,-4.1198,-4.0972,-4.0887,-4.0887,-4.0887,-4.0916,-4.1001,-4.1128,-4.0944,-4.0618,-4.0094,-3.9555,-3.8675,-3.6839,-3.6677,-3.694,-3.6573,-3.6494,-3.6494,-3.6494,-3.5816,-3.5156,-3.5156,-3.4733,-3.4306,-3.4306,-3.4014,-3.3649,-3.3066,-3.2561,-3.2019,-3.1491,-3.0946,-3.0779,-3.1334,-3.1121,-3.1028,-3.1422,-3.1489,-3.14,-3.1183,-3.117,-3.117,-3.117,-3.0613,-3.0673,-3.1436,-3.0726,-3.0131,-2.9785,-3.011,-3.0482,-3.0879,-3.1247,-3.1512,-3.1705,-3.1705,-3.1705,-3.1705,-3.1705,-3.1705,-3.1705,-3.1705,-3.2001,-3.25,-3.25,-3.2821,-3.331,-3.331,-3.3522,-3.3817,-4.588,-4.588,-4.588,-4.588,-4.588,-4.588,-4.588,-4.588,-4.588,-4.588,-4.588,-4.588,-4.588,-4.588,-4.588,-4.588,-4.588,-4.588,-4.588,-4.588,-4.588,-4.588,-4.588,-4.588,-4.588,-4.543,-4.5097,-4.4879,-4.4008,-4.3384,-4.2977,-4.2571,-4.2281,-4.2092,-4.2092,-4.2092,-4.2092,-4.2092,-4.2092,-4.2092,-4.1897,-4.1841,-4.18,-4.1591,-4.1507,-4.1465,-4.1198,-4.1142,-4.1142,-4.1142,-4.1184,-4.1226,-4.1339,-4.1396,-4.1139,-3.9853,-3.9415,-3.9039,-3.7929,-3.738,-3.7187,-3.7109,-3.7109,-3.707,-3.7017,-3.6533,-3.6123,-3.6123,-3.5602,-3.5142,-3.5142,-3.4925,-3.4555,-3.3943,-3.3606,-3.3194,-3.2618,-3.2209,-3.2187,-3.278,-3.2533,-3.2513,-3.2987,-3.3014,-3.2948,-3.2804,-3.2791,-3.2791,-3.2791,-3.2351,-3.236,-3.3014,-3.2568,-3.2016,-3.1418,-3.1344,-3.14,-3.1583,-3.1656,-3.1705,-3.1705,-3.1705,-3.1825,-3.212,-3.212,-3.2239,-3.2544,-3.2544,-3.2864,-3.3395,-3.3395,-3.3775,-3.4306,-3.4306,-3.4472,-3.4733,-4.588,-4.588,-4.588,-4.588,-4.588,-4.588,-4.588,-4.588,-4.588,-4.588,-4.588,-4.588,-4.588,-4.588,-4.588,-4.588,-4.588,-4.588,-4.588,-4.588,-4.588,-4.588,-4.588,-4.588,-4.588,-4.588,-4.5561,-4.4893,-4.4879,-4.424,-4.3007,-4.2992,-4.2673,-4.2092,-4.2092,-4.2092,-4.2092,-4.2092,-4.2092,-4.2092,-4.2092,-4.2092,-4.2092,-4.1785,-4.1688,-4.1702,-4.1465,-4.1396,-4.1396,-4.1396,-4.1549,-4.166,-4.148,-4.1396,-4.1139,-3.9867,-3.9482,-3.921,-3.7953,-3.761,-3.7572,-3.7341,-3.7303,-3.7264,-3.707,-3.6978,-3.6978,-3.6978,-3.6978,-3.6978,-3.6978,-3.6282,-3.5709,-3.5709,-3.4938,-3.4306,-3.4306,-3.4306,-3.4306,-3.4306,-3.4306,-3.4125,-3.359,-3.3537,-3.3342,-3.2857,-3.2843,-3.2843,-3.2843,-3.3276,-3.3537,-3.3537,-3.4047,-3.4306,-3.4306,-3.2931,-3.2483,-3.298,-3.212,-3.1705,-3.1705,-3.1705,-3.2208,-3.3023,-3.3023,-3.3479,-3.4306,-3.4306,-3.4306,-3.4306,-3.4306,-3.4306,-3.4306,-3.4306,-3.4897,-3.5709,-4.588,-4.6001,-4.6046,-4.5925,-4.6001,-4.6046,-4.5925,-4.588,-4.588,-4.588,-4.588,-4.588,-4.588,-4.588,-4.588,-4.588,-4.588,-4.588,-4.588,-4.588,-4.588,-4.588,-4.588,-4.588,-4.588,-4.588,-4.5779,-4.559,-4.5111,-4.4472,-4.3674,-4.321,-4.2673,-4.2092,-4.2092,-4.2092,-4.2092,-4.2092,-4.2092,-4.2092,-4.2092,-4.2092,-4.2092,-4.1995,-4.1995,-4.1953,-4.1717,-4.1619,-4.1619,-4.1619,-4.166,-4.1702,-4.187,-4.1773,-4.1416,-4.0242,-3.9841,-3.9449,-3.8337,-3.8014,-3.7938,-3.761,-3.738,-3.7264,-3.7226,-3.7109,-3.7017,-3.7187,-3.7109,-3.7017,-3.7187,-3.69,-3.6401,-3.579,-3.5454,-3.5074,-3.4389,-3.4306,-3.4555,-3.5196,-3.5278,-3.5453,-3.5888,-3.5967,-3.5884,-3.5758,-3.5744,-3.5744,-3.5744,-3.5289,-3.5304,-3.5928,-3.552,-3.5575,-3.6189,-3.452,-3.3762,-3.3888,-3.3649,-3.3522,-3.3522,-3.3522,-3.3691,-3.3888,-3.3888,-3.4056,-3.4306,-3.4306,-3.4692,-3.5278,-3.5278,-3.5655,-3.6189,-3.6189,-3.6348,-3.6612,-4.588,-4.6046,-4.6165,-4.6046,-4.6225,-4.6269,-4.6046,-4.6001,-4.6015,-4.5925,-4.588,-4.588,-4.588,-4.588,-4.588,-4.588,-4.588,-4.588,-4.588,-4.588,-4.588,-4.588,-4.588,-4.588,-4.588,-4.588,-4.588,-4.588,-4.5474,-4.4966,-4.4327,-4.3689,-4.305,-4.244,-4.2208,-4.2092,-4.2092,-4.2092,-4.2092,-4.2092,-4.2092,-4.2092,-4.2092,-4.2092,-4.2092,-4.2092,-4.1897,-4.1841,-4.1841,-4.1841,-4.1841,-4.1897,-4.2051,-4.1995,-4.1681,-4.076,-4.0228,-3.9743,-3.8832,-3.8405,-3.8127,-3.7915,-3.7687,-3.7495,-3.7419,-3.7303,-3.7264,-3.738,-3.7303,-3.7264,-3.7303,-3.7187,-3.694,-3.6401,-3.6322,-3.6149,-3.5669,-3.5628,-3.5803,-3.6269,-3.6322,-3.6533,-3.694,-3.6978,-3.6978,-3.6978,-3.6978,-3.6978,-3.6978,-3.6494,-3.6455,-3.6978,-3.6494,-3.6494,-3.6978,-3.5923,-3.5183,-3.4856,-3.4472,-3.4306,-3.4306,-3.4306,-3.4513,-3.4856,-3.4856,-3.5061,-3.5386,-3.5386,-3.5682,-3.6203,-3.6203,-3.6533,-3.6978,-3.6978,-3.6978,-3.6978,-4.5925,-4.609,-4.621,-4.621,-4.6447,-4.6535,-4.6254,-4.621,-4.6135,-4.5925,-4.588,-4.588,-4.588,-4.588,-4.588,-4.588,-4.588,-4.588,-4.588,-4.588,-4.588,-4.588,-4.588,-4.588,-4.588,-4.588,-4.588,-4.588,-4.588,-4.5547,-4.4879,-4.4269,-4.3631,-4.2963,-4.2368,-4.2092,-4.2092,-4.2092,-4.2092,-4.2092,-4.2092,-4.2092,-4.2092,-4.2092,-4.2092,-4.2092,-4.2092,-4.2092,-4.2092,-4.2092,-4.2092,-4.2092,-4.2092,-4.2092,-4.1961,-4.1294,-4.0626,-3.9958,-3.9363,-3.871,-3.8202,-3.8202,-3.8066,-3.7853,-3.7663,-3.7625,-3.7625,-3.7625,-3.7625,-3.7534,-3.738,-3.7341,-3.7303,-3.7303,-3.7303,-3.738,-3.7534,-3.7586,-3.7534,-3.7341,-3.7341,-3.7264,-3.707,-3.7017,-3.7017,-3.6978,-3.6978,-3.6978,-3.6978,-3.6978,-3.6978,-3.6978,-3.6978,-3.6978,-3.6978,-3.6978,-3.6612,-3.583,-3.4938,-3.4555,-3.4555,-3.4555,-3.502,-3.583,-3.583,-3.6282,-3.6978,-3.6978,-3.6978,-3.6978,-3.6978,-3.6978,-3.6978,-3.6978,-3.6978,-3.6978,-4.6135,-4.6358,-4.6447,-4.6254,-4.6565,-4.6712,-4.6269,-4.621,-4.6135,-4.5925,-4.588,-4.588,-4.588,-4.588,-4.588,-4.588,-4.588,-4.588,-4.588,-4.588,-4.588,-4.588,-4.588,-4.588,-4.588,-4.588,-4.588,-4.588,-4.588,-4.5547,-4.4879,-4.4269,-4.3631,-4.2963,-4.2368,-4.2092,-4.2092,-4.2092,-4.2092,-4.2092,-4.2092,-4.2092,-4.2092,-4.2092,-4.2092,-4.2092,-4.2092,-4.2092,-4.2092,-4.2092,-4.2092,-4.2092,-4.2092,-4.2092,-4.1961,-4.1294,-4.0626,-3.9958,-3.9363,-3.871,-3.8202,-3.8202,-3.8165,-3.8104,-3.7891,-3.7701,-3.7663,-3.7815,-3.7701,-3.7625,-3.7739,-3.7663,-3.7457,-3.7341,-3.7419,-3.7495,-3.738,-3.7495,-3.7586,-3.7534,-3.7534,-3.7495,-3.7457,-3.7341,-3.7187,-3.7017,-3.6978,-3.6978,-3.6978,-3.6978,-3.6978,-3.6978,-3.6978,-3.6978,-3.6978,-3.6978,-3.69,-3.673,-3.652,-3.6387,-3.6387,-3.6387,-3.6533,-3.673,-3.673,-3.6822,-3.6978,-3.6978,-3.6978,-3.6978,-3.6978,-3.6978,-3.6978,-3.6978,-3.6978,-3.6978,-4.6403,-4.658,-4.6712,-4.6565,-4.6844,-4.6975,-4.6565,-4.6447,-4.6314,-4.609,-4.597,-4.588,-4.588,-4.588,-4.588,-4.588,-4.588,-4.588,-4.588,-4.588,-4.588,-4.588,-4.588,-4.588,-4.588,-4.588,-4.588,-4.588,-4.588,-4.5706,-4.5343,-4.4429,-4.3805,-4.3427,-4.2513,-4.2092,-4.2092,-4.2092,-4.2092,-4.2092,-4.2092,-4.2092,-4.2092,-4.2092,-4.2092,-4.2092,-4.2092,-4.2092,-4.2092,-4.2092,-4.2092,-4.2092,-4.2092,-4.2092,-4.2034,-4.1671,-4.0873,-4.0031,-3.9712,-3.8928,-3.8202,-3.8202,-3.8202,-3.8165,-3.8066,-3.7953,-3.7915,-3.8028,-3.7953,-3.7877,-3.7891,-3.7815,-3.7701,-3.7625,-3.7663,-3.7739,-3.7725,-3.7825,-3.7839,-3.7739,-3.7739,-3.7701,-3.7625,-3.7495,-3.7341,-3.7148,-3.7148,-3.7109,-3.7017,-3.6978,-3.6978,-3.6978,-3.6978,-3.6978,-3.6978,-3.6978,-3.6978,-3.6978,-3.6978,-3.6978,-3.6978,-3.6978,-3.6978,-3.6978,-3.6978,-3.6978,-3.6978,-3.6978,-3.6978,-3.6978,-3.6978,-3.6978,-3.6978,-3.6978,-3.6978,-3.6978,-4.6639,-4.68,-4.6873,-4.6829,-4.7121,-4.7207,-4.6887,-4.6727,-4.6506,-4.6254,-4.6001,-4.588,-4.588,-4.588,-4.588,-4.588,-4.588,-4.588,-4.588,-4.588,-4.588,-4.588,-4.588,-4.588,-4.588,-4.588,-4.588,-4.588,-4.588,-4.588,-4.5866,-4.469,-4.4095,-4.3935,-4.2774,-4.2194,-4.2092,-4.2092,-4.2092,-4.2092,-4.2092,-4.2092,-4.2092,-4.2092,-4.2092,-4.2092,-4.2092,-4.2092,-4.2092,-4.2092,-4.2092,-4.2092,-4.2092,-4.2092,-4.2092,-4.2092,-4.1221,-4.0249,-4.0133,-3.9247,-3.8347,-3.8231,-3.8202,-3.8202,-3.8202,-3.8202,-3.8202,-3.8202,-3.8202,-3.8127,-3.7967,-3.7967,-3.7929,-3.7891,-3.7929,-3.8005,-3.8127,-3.8165,-3.8127,-3.7967,-3.7967,-3.7853,-3.7663,-3.7663,-3.7586,-3.738,-3.7341,-3.7264,-3.7109,-3.7109,-3.7109,-3.707,-3.707,-3.7017,-3.6978,-3.6978,-3.6978,-3.6978,-3.6978,-3.6978,-3.6978,-3.6978,-3.6978,-3.6978,-3.6978,-3.6978,-3.6978,-3.6978,-3.6978,-3.6978,-3.6978,-3.6978,-3.6978,-3.6978,-3.6978,-3.6978,-4.6873,-4.6873,-4.6844,-4.6683,-4.699,-4.7164,-4.6727,-4.6639,-4.6506,-4.6254,-4.6001,-4.588,-4.588,-4.588,-4.588,-4.588,-4.588,-4.588,-4.588,-4.588,-4.588,-4.588,-4.588,-4.588,-4.588,-4.588,-4.588,-4.588,-4.588,-4.588,-4.5866,-4.5111,-4.4487,-4.3964,-4.3195,-4.2586,-4.2092,-4.2092,-4.2092,-4.2092,-4.2092,-4.2092,-4.2092,-4.2092,-4.2092,-4.2092,-4.2092,-4.2092,-4.2092,-4.2092,-4.2092,-4.2092,-4.2092,-4.2092,-4.2092,-4.2092,-4.1555,-4.0829,-4.0249,-3.9596,-3.8928,-3.8347,-3.8202,-3.8202,-3.8202,-3.8202,-3.8202,-3.8202,-3.8202,-3.8202,-3.8165,-3.8165,-3.8104,-3.7929,-3.8043,-3.8104,-3.7967,-3.8104,-3.8202,-3.8165,-3.8165,-3.8066,-3.7891,-3.7853,-3.7777,-3.7586,-3.7572,-3.7534,-3.7495,-3.7495,-3.7419,-3.7264,-3.7264,-3.7187,-3.6978,-3.6978,-3.6978,-3.6978,-3.6978,-3.6978,-3.6978,-3.6978,-3.6978,-3.6978,-3.6978,-3.6978,-3.6978,-3.6978,-3.6978,-3.6978,-3.6978,-3.6978,-3.6978,-3.6978,-3.6978,-3.6978,-4.7121,-4.7121,-4.7121,-4.699,-4.7179,-4.7222,-4.7033,-4.6771,-4.655,-4.6447,-4.6105,-4.588,-4.588,-4.588,-4.588,-4.588,-4.588,-4.588,-4.588,-4.588,-4.588,-4.588,-4.588,-4.588,-4.588,-4.588,-4.588,-4.588,-4.588,-4.588,-4.588,-4.5198,-4.456,-4.3964,-4.3297,-4.2658,-4.2092,-4.2092,-4.2092,-4.2092,-4.2092,-4.2092,-4.2092,-4.2092,-4.2092,-4.2092,-4.2092,-4.2092,-4.2092,-4.2092,-4.2092,-4.2092,-4.2092,-4.2092,-4.2092,-4.2092,-4.1628,-4.0945,-4.0278,-3.9654,-3.9044,-3.8376,-3.8202,-3.8202,-3.8202,-3.8202,-3.8202,-3.8202,-3.8202,-3.8202,-3.8202,-3.8202,-3.8165,-3.8066,-3.8127,-3.8165,-3.8066,-3.8127,-3.8202,-3.8202,-3.8202,-3.8179,-3.8066,-3.8066,-3.7991,-3.7777,-3.7777,-3.7739,-3.7625,-3.7625,-3.7572,-3.7457,-3.7457,-3.738,-3.7187,-3.7187,-3.7109,-3.6978,-3.6978,-3.6978,-3.6978,-3.6978,-3.6978,-3.6978,-3.6978,-3.6978,-3.6978,-3.6978,-3.6978,-3.6978,-3.6978,-3.6978,-3.6978,-3.6978,-3.6978,-3.6978]},{"header":{"parameterUnit":"m.s-1","parameterCategory":1,"la1":30.6,"la2":28.766,"lo1":-90.7593,"lo2":-88.6598,"dx":0.0162,"dy":0.0183,"nx":116,"ny":114,"refTime":"2022-12-05T18:00:00:Z","depth":0,"parameterNumber":3,"parameterNumberName":"V-component_of_WINDS"},"data":[0.0,0.0,0.0,0.0,0.0,0.0,0.0,0.0,0.0,0.0,0.0,0.0,0.0,0.0,0.0,0.0,0.0,0.0,0.0,0.0,0.0,0.0,0.0,0.0,0.0,0.0,0.0,0.0,0.0,0.0,0.0,0.0,0.0,0.0,0.0,0.0,0.0,0.0,0.0,0.0,0.0,0.0,0.0,0.0,0.0,0.0,0.0,0.0,0.0,0.0,0.0,0.0,0.0,0.0,0.0,0.0,0.0,0.0,0.0,0.0,0.0,0.0,0.0,0.0,0.0,0.0,0.0,0.0,0.0,0.0,0.0,0.0,0.0,0.0,0.0,0.0,0.0,0.0,0.0,0.0,0.0,0.0,0.0,0.0,0.0,0.0,0.0,0.0,0.0,0.0,0.0,0.0,0.0,0.0,0.0,0.0,0.0,0.0,0.0,0.0,0.0,0.0,0.0,0.0,0.0,0.0,0.0,0.0,0.0,0.0,0.0,0.0,0.0,0.0,0.0,0.0,0.0,0.0,0.0,0.0,0.0,0.0,0.0,0.0,0.0,0.0,0.0,0.0,0.0,0.0,0.0,0.0,0.0,0.0,0.0,0.0,0.0,0.0,0.0,0.0,0.0,0.0,0.0,0.0,0.0,0.0,0.0,0.0,0.0,0.0,0.0,0.0,0.0,0.0,0.0,0.0,0.0,0.0,0.0,0.0,0.0,0.0,0.0,0.0,0.0,0.0,0.0,0.0,0.0,0.0,0.0,0.0,0.0,0.0,0.0,0.0,0.0,0.0,0.0,0.0,0.0,0.0,0.0,0.0,0.0,0.0,0.0,0.0,0.0,0.0,0.0,0.0,0.0,0.0,0.0,0.0,0.0,0.0,0.0,0.0,0.0,0.0,0.0,0.0,0.0,0.0,0.0,0.0,0.0,0.0,0.0,0.0,0.0,0.0,0.0,0.0,0.0,0.0,0.0,0.0,0.0,0.0,0.0,0.0,0.0,0.0,0.0,0.0,0.0,0.0,0.0,0.0,0.0,0.0,0.0,0.0,0.0,0.0,0.0,0.0,0.0,0.0,0.0,0.0,0.0,0.0,0.0,0.0,0.0,0.0,0.0,0.0,0.0,0.0,0.0,0.0,0.0,0.0,0.0,0.0,0.0,0.0,0.0,0.0,0.0,0.0,0.0,0.0,0.0,0.0,0.0,0.0,0.0,0.0,0.0,0.0,0.0,0.0,0.0,0.0,0.0,0.0,0.0,0.0,0.0,0.0,0.0,0.0,0.0,0.0,0.0,0.0,0.0,0.0,0.0,0.0,0.0,0.0,0.0,0.0,0.0,0.0,0.0,0.0,0.0,0.0,0.0,0.0,0.0,0.0,0.0,0.0,0.0,0.0,0.0,0.0,0.0,0.0,0.0,0.0,0.0,0.0,0.0,0.0,0.0,0.0,0.0,0.0,0.0,0.0,0.0,0.0,0.0,0.0,0.0,0.0,0.0,0.0,0.0,0.0,0.0,0.0,0.0,0.0,0.0,0.0,0.0,0.0,0.0,0.0,0.0,0.0,0.0,0.0,0.0,0.0,0.0,0.0,0.0,0.0,0.0,0.0,0.0,0.0,0.0,0.0,0.0,0.0,0.0,0.0,0.0,0.0,0.0,0.0,0.0,0.0,0.0,0.0,0.0,0.0,0.0,0.0,0.0,0.0,0.0,0.0,0.0,0.0,0.0,0.0,0.0,0.0,0.0,0.0,0.0,0.0,0.0,0.0,0.0,0.0,0.0,0.0,0.0,0.0,0.0,0.0,0.0,0.0,0.0,0.0,0.0,0.0,0.0,0.0,0.0,0.0,0.0,0.0,0.0,0.0,0.0,0.0,0.0,0.0,0.0,0.0,0.0,0.0,0.0,0.0,0.0,0.0,0.0,0.0,0.0,0.0,0.0,0.0,0.0,0.0,0.0,0.0,0.0,0.0,0.0,0.0,0.0,0.0,0.0,0.0,0.0,0.0,0.0,0.0,0.0,0.0,0.0,0.0,0.0,0.0,0.0,0.0,0.0,0.0,0.0,0.0,0.0,0.0,0.0,0.0,0.0,0.0,0.0,0.0,0.0,0.0,0.0,0.0,0.0,0.0,0.0,0.0,0.0,0.0,0.0,0.0,0.0,0.0,0.0,0.0,0.0,0.0,0.0,0.0,0.0,0.0,0.0,0.0,0.0,0.0,0.0,0.0,0.0,0.0,0.0,0.0,0.0,0.0,0.0,0.0,0.0,0.0,0.0,0.0,0.0,0.0,0.0,0.0,0.0,0.0,0.0,0.0,0.0,0.0,0.0,0.0,0.0,0.0,0.0,0.0,0.0,0.0,0.0,0.0,0.0,0.0,0.0,0.0,0.0,0.0,0.0,0.0,0.0,0.0,0.0,0.0,0.0,0.0,0.0,0.0,0.0,0.0,0.0,0.0,0.0,0.0,0.0,0.0,0.0,0.0,0.0,0.0,0.0,0.0,0.0,0.0,0.0,0.0,0.0,0.0,0.0,0.0,0.0,0.0,0.0,0.0,0.0,0.0,0.0,0.0,0.0,0.0,0.0,0.0,0.0,0.0,0.0,0.0,0.0,0.0,0.0,0.0,0.0,0.0,0.0,0.0,0.0,0.0,0.0,0.0,0.0,0.0,0.0,0.0,0.0,0.0,0.0,0.0,0.0,0.0,0.0,0.0,0.0,0.0,0.0,0.0,0.0,0.0,0.0,0.0,0.0,0.0,0.0,0.0,0.0,0.0,0.0,0.0,0.0,0.0,0.0,0.0,0.0,0.0,0.0,0.0,0.0,0.0,0.0,0.0,0.0,0.0,0.0,0.0,0.0,0.0,0.0,0.0,0.0,0.0,0.0,0.0,0.0,0.0,0.0,0.0,0.0,0.0,0.0,0.0,0.0,0.0,0.0,0.0,0.0,0.0,0.0,0.0,0.0,0.0,0.0,0.0,0.0,0.0,0.0,0.0,0.0,0.0,0.0,0.0,0.0,0.0,0.0,0.0,0.0,0.0,0.0,0.0,0.0,0.0,0.0,0.0,0.0,0.0,0.0,0.0,0.0,0.0,0.0,0.0,0.0,0.0,0.0,0.0,0.0,0.0,0.0,0.0,0.0,0.0,0.0,0.0,0.0,0.0,0.0,0.0,0.0,0.0,0.0,0.0,0.0,0.0,0.0,0.0,0.0,0.0,0.0,0.0,0.0,0.0,0.0,0.0,0.0,0.0,0.0,0.0,0.0,0.0,0.0,0.0,0.0,0.0,0.0,0.0,0.0,0.0,0.0,0.0,0.0,0.0,0.0,0.0,0.0,0.0,0.0,0.0,0.0,0.0,0.0,0.0,0.0,0.0,0.0,0.0,0.0,0.0,0.0,0.0,0.0,0.0,0.0,0.0,0.0,0.0,0.0,0.0,0.0,0.0,0.0,0.0,0.0,0.0,0.0,0.0,0.0,0.0,0.0,0.0,0.0,0.0,0.0,0.0,0.0,0.0,0.0,0.0,0.0,0.0,0.0,0.0,0.0,0.0,0.0,0.0,0.0,0.0,0.0,0.0,0.0,0.0,0.0,0.0,0.0,0.0,0.0,0.0,0.0,0.0,0.0,0.0,0.0,0.0,0.0,0.0,0.0,0.0,0.0,0.0,0.0,0.0,0.0,0.0,0.0,0.0,0.0,0.0,0.0,0.0,0.0,0.0,0.0,0.0,0.0,0.0,0.0,0.0,0.0,0.0,0.0,0.0,0.0,0.0,0.0,0.0,0.0,0.0,0.0,0.0,0.0,0.0,0.0,0.0,0.0,0.0,0.0,0.0,0.0,0.0,0.0,0.0,0.0,0.0,0.0,0.0,0.0,0.0,0.0,0.0,0.0,0.0,0.0,0.0,0.0,0.0,0.0,0.0,0.0,0.0,0.0,0.0,0.0,0.0,0.0,0.0,0.0,0.0,0.0,0.0,0.0,0.0,0.0,0.0,0.0,0.0,0.0,0.0,0.0,0.0,0.0,0.0,0.0,0.0,0.0,0.0,0.0,0.0,0.0,0.0,0.0,0.0,0.0,0.0,0.0,0.0,0.0,0.0,0.0,0.0,0.0,0.0,0.0,0.0,0.0,0.0,0.0,0.0,0.0,0.0,0.0,0.0,0.0,0.0,0.0,0.0,0.0,0.0,0.0,0.0,0.0,0.0,0.0,0.0,0.0,0.0,0.0,0.0,0.0,0.0,0.0,0.0,0.0,0.0,0.0,0.0,0.0,0.0,0.0,0.0,0.0,0.0,0.0,0.0,0.0,0.0,0.0,0.0,0.0,0.0,0.0,0.0,0.0,0.0,0.0,0.0,0.0,0.0,0.0,0.0,0.0,0.0,0.0,0.0,0.0,0.0,0.0,0.0,0.0,0.0,0.0,0.0,0.0,0.0,0.0,0.0,0.0,0.0,0.0,0.0,0.0,0.0,0.0,0.0,0.0,0.0,0.0,0.0,0.0,0.0,0.0,0.0,0.0,0.0,0.0,0.0,0.0,0.0,0.0,0.0,0.0,0.0,0.0,0.0,0.0,0.0,0.0,0.0,0.0,0.0,0.0,0.0,0.0,0.0,0.0,0.0,0.0,0.0,0.0,0.0,0.0,0.0,0.0,0.0,0.0,0.0,0.0,0.0,0.0,0.0,0.0,0.0,0.0,0.0,0.0,0.0,0.0,0.0,0.0,0.0,0.0,0.0,0.0,0.0,0.0,0.0,0.0,0.0,0.0,0.0,0.0,0.0,0.0,0.0,0.0,0.0,0.0,0.0,0.0,0.0,0.0,0.0,0.0,0.0,0.0,0.0,0.0,0.0,0.0,0.0,0.0,0.0,0.0,0.0,0.0,0.0,0.0,0.0,0.0,0.0,0.0,0.0,0.0,0.0,0.0,0.0,0.0,0.0,0.0,0.0,0.0,0.0,0.0,0.0,0.0,0.0,0.0,0.0,0.0,0.0,0.0,0.0,0.0,0.0,0.0,0.0,0.0,0.0,0.0,0.0,0.0,0.0,0.0,0.0,0.0,0.0,0.0,0.0,0.0,0.0,0.0,0.0,0.0,0.0,0.0,0.0,0.0,0.0,0.0,0.0,0.0,0.0,0.0,0.0,0.0,0.0,0.0,0.0,0.0,0.0,0.0,0.0,0.0,0.0,0.0,0.0,0.0,0.0,0.0,0.0,0.0,0.0,0.0,0.0,0.0,0.0,0.0,0.0,0.0,0.0,0.0,0.0,0.0,0.0,0.0,0.0,0.0,0.0,0.0,0.0,0.0,0.0,0.0,0.0,0.0,0.0,0.0,0.0,0.0,0.0,0.0,0.0,0.0,0.0,0.0,0.0,0.0,0.0,0.0,0.0,0.0,0.0,0.0,0.0,0.0,0.0,0.0,0.0,0.0,0.0,0.0,0.0,0.0,0.0,0.0,0.0,0.0,0.0,0.0,0.0,0.0,0.0,0.0,0.0,0.0,0.0,0.0,0.0,0.0,0.0,0.0,0.0,0.0,0.0,0.0,0.0,0.0,0.0,0.0,0.0,0.0,0.0,0.0,0.0,0.0,0.0,0.0,0.0,0.0,0.0,0.0,0.0,0.0,0.0,0.0,0.0,0.0,0.0,0.0,0.0,0.0,0.0,0.0,0.0,0.0,0.0,0.0,0.0,0.0,0.0,0.0,0.0,0.0,0.0,0.0,0.0,0.0,0.0,0.0,0.0,0.0,0.0,0.0,0.0,0.0,0.0,0.0,0.0,0.0,0.0,0.0,0.0,0.0,0.0,0.0,0.0,0.0,0.0,0.0,0.0,0.0,0.0,0.0,0.0,0.0,0.0,0.0,0.0,0.0,0.0,0.0,0.0,0.0,0.0,0.0,0.0,0.0,0.0,0.0,0.0,0.0,0.0,0.0,0.0,0.0,0.0,0.0,0.0,0.0,0.0,0.0,0.0,0.0,0.0,0.0,0.0,0.0,0.0,0.0,0.0,0.0,0.0,0.0,0.0,0.0,0.0,0.0,0.0,0.0,0.0,0.0,0.0,0.0,0.0,0.0,0.0,0.0,0.0,0.0,0.0,0.0,0.0,1.9945,1.7773,0.0,0.0,0.0,0.0,0.0,0.0,0.0,0.0,0.0,0.0,0.0,0.0,0.0,0.0,0.0,0.0,0.0,0.0,0.0,0.0,0.0,0.0,0.0,1.1206,1.1458,1.1458,1.1475,0.0,0.0,0.0,0.0,0.0,0.0,0.0,0.0,0.0,1.2415,1.2805,1.3254,1.4328,1.5967,1.5501,1.4877,1.4097,0.0,0.0,0.0,0.0,0.0,0.0,0.0,0.0,0.0,0.0,0.0,0.0,0.0,0.0,0.0,0.0,0.0,0.0,0.0,0.0,0.0,0.0,0.0,0.0,0.0,0.0,0.0,0.0,0.0,0.0,0.0,0.0,0.0,0.0,0.0,0.0,0.0,0.0,0.0,0.0,0.0,0.0,0.0,0.0,0.0,0.0,0.0,0.0,0.0,0.0,0.0,0.0,0.0,0.0,0.0,0.0,0.0,0.0,0.0,0.0,0.0,0.0,0.0,0.0,0.0,0.0,0.0,0.0,0.0,0.0,2.2136,2.0275,0.0,0.0,0.0,0.0,0.0,0.0,0.0,0.0,0.0,0.0,0.0,0.0,0.0,0.0,0.0,0.0,0.0,0.0,0.0,0.0,0.0,1.1629,1.1634,1.2386,1.2908,1.2931,1.3108,1.3152,1.3018,1.3195,0.0,0.0,0.0,0.0,1.3322,1.3463,1.3933,1.4752,1.5223,1.6552,1.87,1.9558,1.8817,1.6712,1.6282,0.0,0.0,0.0,0.0,0.0,0.0,0.0,0.0,0.0,0.0,0.0,0.0,0.0,0.0,0.0,0.0,0.0,0.0,0.0,0.0,0.0,0.0,0.0,0.0,0.0,0.0,0.0,0.0,0.0,0.0,0.0,0.0,0.0,0.0,0.0,0.0,0.0,0.0,0.0,0.0,0.0,0.0,0.0,0.0,0.0,0.0,0.0,0.0,0.0,0.0,0.0,0.0,0.0,0.0,0.0,0.0,0.0,0.0,0.0,0.0,0.0,0.0,0.0,2.4423,2.4791,2.5418,2.5418,2.5482,2.5501,2.3941,2.2663,2.1654,2.1494,0.0,0.0,0.0,0.0,0.0,0.0,0.0,0.0,0.0,0.0,0.0,0.0,0.0,0.0,0.0,0.0,0.0,0.0,0.0,1.2524,1.2531,1.3258,1.3762,1.3818,1.4482,1.4589,1.3889,1.4566,0.0,0.0,0.0,1.4972,1.4972,1.5739,1.6539,1.74,1.9667,2.0982,2.1392,2.2213,2.2428,2.1999,1.9773,1.788,1.6358,0.0,0.0,0.0,0.0,0.0,0.0,0.0,0.0,0.0,0.0,0.0,0.0,0.0,0.0,0.0,0.0,0.0,0.0,0.0,0.0,0.0,0.0,0.0,0.0,0.0,0.0,0.0,0.0,0.0,0.0,0.0,0.0,0.0,0.0,0.0,0.0,0.0,0.0,0.0,0.0,0.0,1.8574,1.8746,0.0,0.0,0.0,0.0,0.0,0.0,0.0,0.0,0.0,0.0,0.0,0.0,0.0,2.4891,2.538,2.6473,2.7045,2.7084,2.7269,2.7391,2.7506,2.7506,2.7511,2.7528,2.7262,0.0,2.3534,2.3512,0.0,0.0,0.0,0.0,0.0,0.0,0.0,0.0,0.0,0.0,0.0,0.0,0.0,0.0,0.0,0.0,0.0,0.0,0.0,0.0,0.0,1.5507,1.6015,1.6128,1.6462,1.6538,1.6206,1.6555,0.0,0.0,1.7289,1.7746,1.8276,1.8642,1.9271,2.015,2.174,2.2798,2.3304,2.3676,2.3832,2.3774,2.2661,2.1217,1.9616,1.9616,0.0,0.0,0.0,0.0,0.0,0.0,0.0,0.0,0.0,0.0,0.0,0.0,0.0,0.0,0.0,0.0,0.0,0.0,0.0,0.0,0.0,0.0,0.0,0.0,0.0,0.0,0.0,0.0,0.0,0.0,0.0,0.0,0.0,0.0,0.0,0.0,0.0,0.0,0.0,1.9153,2.0203,2.1122,2.1604,2.1987,0.0,0.0,0.0,0.0,0.0,0.0,0.0,0.0,0.0,2.6135,2.6525,2.7096,2.7881,2.8316,2.8775,2.9231,2.9319,2.9349,2.9308,2.9308,2.9316,2.9313,2.9313,2.8637,2.7464,2.6418,2.5697,2.5221,0.0,0.0,0.0,0.0,2.4493,2.3853,0.0,0.0,0.0,0.0,0.0,0.0,0.0,0.0,0.0,0.0,0.0,0.0,1.6647,1.7447,1.8076,1.8403,1.8628,1.8786,1.884,1.9046,1.9331,1.975,1.9981,2.0428,2.1151,2.1396,2.1955,2.2847,2.3668,2.453,2.5394,2.5394,2.5394,2.5394,2.5394,2.4203,2.2212,2.2212,2.0964,1.8993,0.0,0.0,0.0,0.0,0.0,0.0,0.0,0.0,0.0,0.0,0.0,0.0,0.0,0.0,0.0,0.0,0.0,0.0,0.0,0.0,0.0,0.0,0.0,0.0,0.0,0.0,0.0,0.0,0.0,0.0,0.0,0.0,0.0,0.0,0.0,0.0,0.0,2.1121,2.1947,2.3424,2.3834,2.4047,0.0,0.0,0.0,0.0,0.0,0.0,2.732,2.815,2.8594,2.8594,2.8787,2.9207,2.9858,3.009,3.0514,3.1132,3.1132,3.1121,3.1075,3.1075,3.1077,3.1068,3.1068,3.1062,3.091,2.9071,2.83,2.8268,2.8167,2.8103,2.8074,2.8074,2.7516,2.6871,0.0,0.0,0.0,0.0,0.0,0.0,0.0,0.0,0.0,0.0,0.0,1.7489,1.7527,1.831,1.9194,2.0107,2.0878,2.134,2.1413,2.213,2.2179,2.1338,2.2077,2.2575,2.2692,2.3566,2.4474,2.5409,2.6289,2.7186,2.8108,2.8108,2.8108,2.8108,2.8108,2.6214,2.3033,2.3033,2.2525,2.1705,2.1705,0.0,0.0,0.0,0.0,0.0,0.0,0.0,0.0,0.0,0.0,0.0,0.0,0.0,0.0,0.0,0.0,0.0,0.0,0.0,0.0,0.0,0.0,0.0,0.0,0.0,0.0,0.0,0.0,0.0,0.0,0.0,0.0,0.0,0.0,0.0,0.0,0.0,0.0,2.5369,2.6191,0.0,0.0,0.0,0.0,2.7817,2.8606,2.9128,2.9166,2.9993,3.0458,3.0458,3.1212,3.1627,3.1665,3.2496,3.2885,3.2877,3.2877,3.2877,3.2871,3.2871,3.2871,3.2871,3.2871,3.2873,3.2728,3.0973,3.0183,3.0073,3.0066,2.9971,2.9878,2.9878,2.9312,2.8582,0.0,0.0,0.0,1.078,1.1102,1.1845,1.3507,1.4523,1.5876,1.803,1.8378,1.906,2.0699,2.0671,2.0884,2.1829,2.2168,2.2357,2.2377,2.2647,2.2889,2.3122,2.3964,2.4967,2.6126,2.6524,2.6854,2.7139,2.7504,2.7835,2.8165,2.8217,2.825,2.823,2.8275,2.762,2.641,2.5845,2.4809,2.3519,2.3519,2.231,0.0,0.0,0.0,0.0,0.0,0.0,0.0,0.0,0.0,0.0,0.0,0.0,0.0,0.0,0.0,0.0,0.0,0.0,0.0,0.0,0.0,0.0,0.0,0.0,0.0,0.0,0.0,0.0,0.0,0.0,0.0,0.0,0.0,0.0,0.0,0.0,0.0,2.6346,2.7217,0.0,2.8824,2.8861,2.9282,3.0366,3.0733,3.1159,3.1715,3.2043,3.2474,3.304,3.3325,3.3996,3.5074,3.5383,3.5803,3.6352,3.6352,3.636,3.6342,3.6342,3.6311,3.6273,3.6273,3.6286,3.6235,3.5605,3.3994,3.193,3.193,3.191,3.187,3.187,3.1678,3.141,0.0,0.0,0.0,1.116,1.1539,1.2494,1.4752,1.5574,1.6854,1.9372,1.9716,2.0398,2.2077,2.1985,2.2183,2.3118,2.321,2.3437,2.4004,2.4042,2.4437,2.5288,2.5866,2.6718,2.7874,2.8229,2.8537,2.8816,2.9147,2.9478,2.9757,2.9813,2.9855,2.9858,2.9922,2.9792,2.9494,2.8618,2.7103,2.5277,2.5277,2.4262,2.2738,0.0,0.0,0.0,0.0,0.0,0.0,0.0,0.0,0.0,0.0,0.0,0.0,0.0,0.0,0.0,0.0,0.0,0.0,0.0,0.0,0.0,0.0,0.0,0.0,0.0,0.0,0.0,0.0,0.0,0.0,0.0,0.0,0.0,0.0,2.5967,2.6963,2.8072,2.8728,2.9503,3.0571,3.063,3.1181,3.257,3.2957,3.3494,3.4345,3.4654,3.5079,3.5665,3.5684,3.6226,3.7328,3.7348,3.7632,3.8193,3.8193,3.8206,3.8208,3.8208,3.8176,3.8138,3.8138,3.8132,3.8119,3.8119,3.6755,3.4642,3.4642,3.4642,3.4642,3.4642,3.4462,3.4161,0.0,0.0,1.0362,1.1198,1.2033,1.3179,1.4901,1.6571,1.7928,1.886,2.0394,2.1426,2.1464,2.2166,2.3019,2.3967,2.4048,2.4735,2.639,2.6499,2.6868,2.7701,2.7765,2.7797,2.7816,2.867,2.9555,3.0477,3.1331,3.2171,3.2996,3.3063,3.3096,3.3096,3.316,3.2752,3.1977,3.1142,2.9381,2.7151,2.7074,2.6019,2.4475,0.0,0.0,0.0,0.0,0.0,0.0,0.0,0.0,0.0,0.0,0.0,0.0,0.0,0.0,0.0,0.0,0.0,0.0,0.0,0.0,0.0,0.0,0.0,0.0,0.0,0.0,0.0,0.0,0.0,0.0,0.0,0.0,0.0,2.6991,2.7732,2.8922,3.0636,3.0889,3.1547,3.3131,3.3308,3.3658,3.4453,3.5308,3.6115,3.6909,3.7773,3.8251,3.827,3.8309,3.8328,3.8367,3.8367,3.8367,3.8367,3.8367,3.8367,3.8367,3.8367,3.8367,3.8367,3.8367,3.8355,3.8363,3.8363,3.8331,3.8241,3.8144,3.8106,3.8106,3.8106,3.7565,3.6716,1.1463,1.0646,1.0553,1.1995,1.2434,1.3561,1.6472,1.7297,1.8349,2.0432,2.112,2.186,2.3078,2.3403,2.3892,2.4785,2.4862,2.5321,2.6362,2.6438,2.7089,2.8581,2.9193,2.9812,3.045,3.1308,3.1884,3.214,3.2378,3.2622,3.2872,3.2924,3.2943,3.2963,3.3088,3.3005,3.278,3.2641,3.1836,3.0466,2.8664,2.7288,2.6293,0.0,0.0,0.0,0.0,0.0,0.0,0.0,0.0,0.0,0.0,0.0,0.0,0.0,0.0,0.0,0.0,0.0,0.0,0.0,0.0,0.0,0.0,0.0,0.0,0.0,0.0,0.0,0.0,0.0,0.0,0.0,2.922,2.9556,2.894,2.9605,3.0545,3.1621,3.2829,3.3987,3.5051,3.5688,3.6381,3.7235,3.7482,3.7676,3.7909,3.8701,3.9423,4.0075,4.0655,4.1255,4.1893,4.1912,4.1912,4.1912,4.1912,4.1912,4.1912,4.1912,4.1912,4.1912,4.1912,4.1906,4.1899,4.1899,4.1893,4.1609,3.909,3.8106,3.8106,3.8106,3.7951,3.7705,1.1463,1.0646,1.0629,1.23,1.2603,1.3736,1.7087,1.7603,1.8387,2.058,2.1478,2.2262,2.325,2.4014,2.465,2.5153,2.5516,2.6064,2.688,2.7606,2.8593,2.9945,3.048,3.115,3.1972,3.2855,3.3302,3.3291,3.4003,3.4355,3.4355,3.4757,3.4953,3.4941,3.4686,3.4582,3.4578,3.3971,3.344,3.285,3.1061,2.9446,2.805,2.7679,2.6683,2.5492,2.5492,2.4398,2.2953,2.2953,0.0,0.0,0.0,0.0,0.0,0.0,0.0,0.0,0.0,0.0,0.0,0.0,0.0,0.0,0.0,0.0,0.0,0.0,0.0,0.0,0.0,0.0,0.0,0.0,3.0801,3.1564,3.2191,3.2407,3.2801,3.3628,3.4921,3.6054,3.6903,3.7731,3.8575,3.9431,3.976,4.0084,4.045,4.0915,4.1397,4.1867,4.2346,4.282,4.3305,4.3305,4.3305,4.3305,4.3305,4.3305,4.3305,4.3305,4.3305,4.3305,4.3305,4.3305,4.3305,4.3305,4.3305,4.3105,0.0,0.0,0.0,0.0,4.0242,4.024,1.146,1.0646,1.0629,1.23,1.2603,1.3736,1.7087,1.7603,1.8192,1.9883,2.1569,2.2601,2.2601,2.4154,2.5191,2.5191,2.5931,2.6803,2.7771,2.9325,3.0567,3.1362,3.156,3.2019,3.2833,3.3681,3.4186,3.4273,3.5774,3.6557,3.6653,3.743,3.7791,3.7753,3.7056,3.6707,3.6575,3.5167,3.4557,3.4443,3.3669,3.1879,2.9646,2.8864,2.7988,2.7133,2.7035,2.6019,2.4671,2.4573,0.0,0.0,0.0,0.0,0.0,0.0,0.0,0.0,0.0,0.0,0.0,0.0,0.0,0.0,0.0,0.0,0.0,0.0,0.0,0.0,0.0,0.0,0.0,0.0,3.2031,3.3417,3.5934,3.5701,3.5528,3.6218,3.7136,3.8002,3.873,3.9666,4.0541,4.1241,4.1968,4.27,4.3475,4.3593,0.0,0.0,0.0,4.3684,4.3627,4.3621,4.3621,4.3621,4.3621,4.3621,4.3621,4.3621,4.3621,4.3621,4.3621,4.3615,4.3602,4.3602,4.3608,4.3556,4.3363,4.3305,4.3298,4.3232,4.3206,4.3192,1.1449,1.0646,1.0629,1.23,1.2603,1.3736,1.7087,1.7603,1.8192,1.9883,2.1569,2.2601,2.2601,2.4154,2.5191,2.5191,2.5931,2.7052,2.8574,2.9631,3.0567,3.1362,3.2088,3.2871,3.3719,3.456,3.5305,3.6023,3.6347,3.6825,3.7464,3.7644,3.7729,3.771,3.76,3.7182,3.6531,3.6317,3.5873,3.5215,3.4468,3.2697,3.0477,3.0302,2.9331,2.7952,2.725,2.6781,2.6391,2.5687,2.5336,2.5063,2.4379,2.4046,0.0,0.0,0.0,0.0,0.0,0.0,0.0,0.0,0.0,0.0,0.0,0.0,0.0,0.0,0.0,0.0,0.0,0.0,0.0,3.4626,3.5133,3.5916,3.783,3.8512,3.8632,3.8151,3.944,4.0439,4.0582,4.2028,4.3005,4.3163,4.3279,4.3408,4.3564,4.42,4.4538,4.453,4.5209,4.5562,4.557,4.5566,4.5566,4.5566,4.5566,0.0,4.5566,4.5566,4.5566,4.5566,4.5566,4.5526,4.5484,4.5484,4.5401,4.5181,4.3827,4.3305,4.3305,4.3298,4.3239,4.3199,1.1383,1.0621,1.0629,1.23,1.2603,1.3736,1.7087,1.7603,1.8192,1.9883,2.1569,2.2601,2.2601,2.4154,2.5191,2.5191,2.5931,2.73,2.9414,2.9548,3.0293,3.1973,3.247,3.3291,3.456,3.4999,3.5411,3.5851,3.67,3.7311,3.7712,3.8591,3.9011,3.8973,3.8579,3.7919,3.7086,3.6734,3.614,3.5379,3.4994,3.3895,3.2372,3.1637,3.0574,2.9391,2.8591,2.8007,2.7474,2.6635,2.6341,2.6203,2.5326,2.5058,2.4964,0.0,0.0,0.0,0.0,0.0,0.0,0.0,0.0,0.0,0.0,0.0,0.0,0.0,0.0,3.045,3.1309,0.0,3.4471,3.5797,3.6735,3.7906,3.9606,4.0192,4.0309,3.9903,4.0977,4.1914,4.2367,4.3577,4.4358,4.4358,4.4722,4.494,4.494,4.5331,4.5536,4.5496,4.5923,4.6123,4.6108,4.6105,4.6105,4.6105,4.6099,4.6092,4.6092,4.6105,4.6098,4.6098,4.6098,4.6076,4.6059,4.6059,4.5998,4.5814,4.4981,4.4608,4.4543,4.4543,4.4536,4.4503,1.1339,1.0833,1.0972,1.2355,1.2603,1.3676,1.6873,1.7508,1.8153,1.9673,2.1321,2.2429,2.2581,2.4001,2.5077,2.5401,2.6026,2.7415,2.9784,2.9299,2.9961,3.2336,3.2604,3.3406,3.4923,3.5114,3.5286,3.545,3.6814,3.754,3.7731,3.9145,3.9785,3.9747,3.9069,3.8266,3.7426,3.678,3.6031,3.5293,3.5304,3.4944,3.4243,3.2741,3.1659,3.0813,2.9882,2.909,2.8345,2.7525,2.7249,2.7108,2.6409,2.6181,2.6186,2.6186,2.6188,0.0,0.0,0.0,0.0,0.0,0.0,0.0,0.0,2.8674,2.9025,2.9905,3.086,3.1816,3.2695,3.4725,3.6363,3.6695,3.8063,3.9626,4.1148,4.15,4.1675,4.1831,4.2474,4.3177,4.3879,4.4738,4.5246,4.5246,4.5896,4.6291,4.6291,4.6296,4.6286,4.6229,4.6229,4.6183,4.6138,4.6138,4.6138,4.6138,4.6147,4.6143,4.6143,4.615,4.6142,4.6142,4.6128,4.6122,4.6118,4.6105,4.606,4.6013,4.6013,4.5956,4.5841,4.5808,4.5807,4.5807,1.132,1.1636,1.2237,1.2556,1.2603,1.3485,1.612,1.7141,1.7947,1.8918,2.0485,2.1803,2.2524,2.346,2.4645,2.6141,2.6345,2.7147,2.8936,2.8949,2.97,3.1477,3.2298,3.3138,3.4109,3.4827,3.5583,3.6347,3.6538,3.7005,3.7693,3.7903,3.798,3.798,3.7884,3.7387,3.6634,3.6547,3.6037,3.5312,3.5293,3.5247,3.5007,3.3407,3.237,3.1551,2.9988,2.9421,2.9317,2.8457,2.8116,2.8046,2.7948,2.7917,2.792,2.792,2.7917,2.7908,2.7807,2.778,2.7818,2.7968,2.801,2.8264,0.0,3.0001,3.0762,3.1641,3.3124,3.453,3.5407,3.6443,3.7633,3.9136,4.019,4.1168,4.2123,4.2923,4.3704,4.4465,4.4658,4.4756,4.4855,4.5636,4.6144,4.6144,4.6243,4.6302,4.6302,4.6303,4.6308,4.6297,4.6299,4.6282,4.6287,4.6287,4.6287,4.6287,4.6287,4.6287,4.6287,4.6289,4.6289,4.6269,4.6213,4.6197,4.6173,4.6125,4.6095,4.6087,4.6087,4.608,4.6037,4.588,4.5807,4.5807,1.2521,1.2346,1.2461,1.3036,1.3216,1.4004,1.6082,1.6697,1.7198,1.802,1.9606,2.0766,2.1105,2.2786,2.4568,2.6249,2.5969,2.6408,2.8096,2.8192,2.8956,3.0624,3.1541,3.2394,3.3242,3.4063,3.4674,3.5057,3.6023,3.6672,3.7005,3.7483,3.7693,3.7693,3.7693,3.7254,3.65,3.65,3.6012,3.5234,3.5234,3.4955,3.4412,3.3238,3.2343,3.1645,3.1025,3.0525,0.0,2.9757,2.9338,2.8868,2.8361,2.8205,2.8207,2.8207,2.8564,2.8957,2.8965,2.9333,2.972,2.9745,3.0138,3.0743,3.1602,3.2069,3.2557,3.3437,3.4608,3.5719,3.6599,3.7848,3.9156,4.0366,4.1283,4.2337,4.3723,4.4231,4.4777,4.5656,4.5753,4.5753,4.5753,4.6085,4.63,4.63,4.63,4.63,4.63,4.63,4.6302,4.6306,4.6306,4.6308,4.6291,4.6797,4.7051,4.7051,4.7525,4.7741,4.7761,4.7805,4.7808,4.7808,4.7773,4.7479,4.7009,4.698,4.6647,4.6155,4.6155,4.6134,4.6087,4.5966,4.5923,4.5917,1.3402,1.3104,1.3017,1.3406,1.3811,1.4505,1.5785,1.6224,1.6602,1.7198,1.8512,1.9597,2.0055,2.234,2.4325,2.5551,2.5329,2.5723,2.7191,2.7319,2.8083,2.9765,3.0682,3.1522,3.2317,3.3203,3.3643,3.3643,3.5095,3.5812,3.5832,3.6623,3.7005,3.7005,3.7005,3.67,3.6137,3.5889,3.5458,3.4846,3.4609,3.4159,3.3547,3.268,3.2041,3.157,3.1444,3.1065,3.0601,3.0603,3.0263,2.972,2.9097,2.9043,2.9247,2.9247,2.9866,3.055,3.0544,3.1005,3.1484,3.1514,3.1986,3.269,3.3552,3.3767,3.4061,3.5193,3.5916,3.6695,3.7789,3.898,4.0151,4.1283,4.2181,4.3274,4.4795,4.5207,4.5597,4.6222,4.63,4.63,4.63,4.63,4.63,4.63,4.63,4.63,4.63,4.6534,4.6651,4.6651,4.6866,4.6983,4.6983,4.7627,4.7938,4.7939,4.8512,4.8808,4.8808,4.8854,4.8877,4.8898,4.8902,4.8532,4.7966,4.7968,4.7557,4.6941,4.6939,4.6924,4.6869,4.6801,4.6459,4.6013,1.3469,1.4014,1.4377,1.3556,1.4153,1.4807,1.4929,1.5769,1.6407,1.6426,1.716,1.8287,1.9921,2.2262,2.3733,2.3771,2.4472,2.5294,2.6186,2.6371,2.7186,2.8872,2.9765,3.0624,3.1419,3.2298,3.2737,3.2737,3.3643,3.409,3.409,3.4904,3.5286,3.5286,3.5286,3.5267,3.519,3.4407,3.4071,3.3956,3.3119,3.2756,3.2642,3.1847,3.1522,3.1398,3.0692,3.0505,3.0604,3.0604,3.0633,3.0664,3.0625,3.1207,3.1875,3.1875,3.25,3.3176,3.3181,3.3195,3.3245,3.3301,3.3331,3.359,3.4468,3.4666,3.5154,3.6872,3.7243,3.777,3.9429,3.9761,4.0366,4.2084,4.3099,4.3977,4.4875,4.5734,4.6261,4.63,4.63,4.63,4.63,4.63,4.63,4.63,4.63,4.63,4.63,4.71,4.7567,4.7567,4.833,4.872,4.872,4.8759,4.8759,4.8759,4.8798,4.8798,4.8798,4.8808,4.8833,4.8898,4.8898,4.8878,4.886,4.8864,4.8846,4.8827,4.8828,4.8828,4.8808,4.8733,4.7599,4.6095,1.415,1.4344,1.4464,1.4187,1.4449,1.4741,1.4756,1.5129,1.5399,1.5399,1.6117,0.0,0.0,0.0,0.0,0.0,2.3481,2.4103,2.4386,2.5572,2.6521,2.7084,2.8037,2.8924,2.972,3.0598,3.1312,3.184,3.2699,3.3138,3.3138,3.3406,3.354,3.354,3.354,3.354,3.352,3.3253,3.3138,3.31,3.2814,3.2374,3.1809,3.0968,3.028,2.9746,0.0,2.9863,3.0554,3.1182,3.1064,3.0639,3.0691,3.1297,3.2221,3.3384,3.3932,3.4153,3.4153,3.4577,3.4884,3.4335,3.4633,3.5144,3.5427,3.5936,3.6538,3.7106,3.8117,3.9053,3.9638,4.0238,4.1224,4.2982,4.3501,4.4211,4.5656,4.6124,4.63,4.63,4.63,4.63,4.63,4.63,4.6534,4.712,4.7159,4.7393,4.792,4.8232,4.8408,4.8408,4.8662,4.8798,4.8798,4.9364,4.9655,4.9675,5.0243,5.0535,5.0535,5.0539,5.0541,5.0564,5.055,5.0221,4.9694,4.9699,4.9389,4.8901,4.8905,4.8905,4.8906,4.8866,4.847,4.7933,1.4506,1.4493,1.4493,1.4493,1.4574,0.0,0.0,0.0,0.0,0.0,0.0,0.0,0.0,0.0,0.0,0.0,0.0,2.3098,2.3371,2.4553,2.5482,2.6068,2.6773,2.7533,2.8353,2.898,2.9555,3.0082,3.0923,3.1496,3.1801,3.2126,3.2413,3.2699,3.2699,3.2699,3.2661,3.205,3.2489,3.3444,3.1649,3.1324,3.1752,2.9975,2.8962,0.0,2.8478,2.89,2.9617,3.0841,3.0931,3.0535,3.0641,3.1488,3.2804,3.4512,3.5037,3.5021,3.5037,3.5444,3.5739,3.5204,3.5482,3.5975,3.6295,3.6805,3.737,3.7974,3.8948,3.9802,4.0114,4.0686,4.1661,4.3422,4.3693,4.431,4.6046,4.63,4.63,4.63,4.63,4.63,4.63,4.6573,4.7002,4.7567,4.7859,4.8252,4.8779,4.9091,4.9267,4.9267,4.9579,4.9735,4.9735,5.0282,5.0553,5.0573,5.1121,5.1394,5.1394,5.1394,5.1394,5.1394,5.1402,5.1071,5.0565,5.0553,5.0263,4.9794,4.98,4.9781,4.9782,4.9784,4.9785,4.9687,1.4482,1.4506,1.4506,0.0,0.0,0.0,0.0,0.0,0.0,0.0,0.0,0.0,0.0,0.0,0.0,0.0,0.0,0.0,2.3015,2.3281,2.4129,2.5689,2.594,2.6463,2.7312,2.7508,2.7625,2.7663,2.8446,2.9254,3.0063,3.0911,3.1706,3.2451,3.2451,3.2451,3.2336,3.0758,3.1904,3.4407,2.9631,2.9605,3.2088,2.886,2.7625,2.7625,2.7625,2.7625,2.7905,2.964,3.0317,3.0447,3.0679,3.193,3.3623,3.5309,3.5795,3.5795,3.5795,3.5795,3.5826,3.5887,3.5898,3.6103,3.6949,3.7208,3.7714,3.9312,3.9698,4.0007,4.0844,4.1045,4.1632,4.3336,4.3667,4.4286,4.5986,4.6278,4.63,4.63,4.63,4.6319,4.6358,4.7159,4.7684,4.7723,4.8447,4.8896,4.8935,4.9714,5.0163,5.0163,5.0965,5.1394,5.1394,5.1394,5.1394,5.1394,5.1394,5.1394,5.1394,5.1394,5.1394,5.1394,5.1394,5.1394,5.1394,5.1405,5.1408,5.1409,5.1396,5.1398,5.1398,5.1403,5.1404,5.117,0.0,0.0,0.0,0.0,0.0,0.0,0.0,0.0,0.0,0.0,0.0,0.0,0.0,0.0,0.0,0.0,0.0,0.0,2.1173,2.194,2.2823,2.3849,2.4077,2.4843,2.6257,2.6325,2.6669,2.7338,2.7622,2.7901,2.8118,2.8502,2.879,2.8975,2.8975,2.8975,2.8956,2.8523,2.8829,2.9497,2.8217,2.8211,2.8803,2.73,2.6727,2.6727,2.6727,2.6727,2.7013,2.8796,2.9913,3.0799,3.2186,3.2932,3.3623,3.5309,3.5795,3.5795,3.5795,3.5795,3.5799,3.5811,3.5834,3.5873,3.6118,3.7152,3.8226,3.8634,3.9694,4.0581,4.0819,4.0775,4.1126,4.2315,4.3043,4.3883,4.5088,4.5816,4.6236,4.6236,4.6273,4.6554,4.7217,4.8017,4.8759,4.9401,4.9655,5.0048,5.0692,5.0945,5.1063,5.1063,5.1277,5.1394,5.1394,5.1394,5.1394,5.1394,5.1394,5.1394,5.1394,5.1394,5.1394,5.1394,5.1394,5.1394,5.1394,5.1398,5.1398,5.14,5.1408,5.1393,5.1393,5.1398,5.14,5.1342,0.0,0.0,0.0,0.0,0.0,0.0,0.0,0.0,0.0,0.0,0.0,0.0,0.0,0.0,0.0,0.0,0.0,0.0,0.0,2.1031,2.1705,2.2545,2.3095,2.3779,2.4703,2.5142,2.5614,2.6102,2.6178,2.6394,2.6749,2.6944,2.7234,2.7565,2.7656,2.7701,2.7663,2.73,2.8007,0.0,0.0,2.7472,2.858,2.6619,2.5873,2.5873,2.5873,2.6103,2.6612,2.8048,2.9407,3.083,3.2618,3.3229,3.3623,3.5309,3.5795,3.5795,3.5795,3.5795,3.5795,3.5795,3.5795,3.5883,3.6206,3.7036,3.7846,3.8199,3.8982,3.9624,3.9624,3.9917,4.0452,4.1383,4.2624,4.3813,4.4773,4.5652,4.6184,4.617,4.6184,4.6532,4.7356,4.8174,4.9035,4.9909,5.0394,5.0887,5.1375,5.1394,5.1394,5.1394,5.1394,5.1394,5.1394,5.1394,5.1394,5.1394,5.1394,5.1394,5.1394,5.1394,5.1394,5.1394,5.1394,5.1394,5.1394,5.1394,5.1394,5.1394,5.1402,5.1403,5.1405,5.1393,5.1395,5.1396,0.0,0.0,0.0,0.0,0.0,0.0,0.0,0.0,0.0,1.5142,1.487,1.5129,1.5942,1.6637,0.0,0.0,0.0,0.0,0.0,0.0,2.0566,2.1427,2.2249,2.2794,2.3009,2.3862,2.4326,2.4326,2.4436,2.4853,2.5552,2.5857,2.6365,2.7043,2.7221,2.7306,2.7249,2.6505,2.7891,3.029,2.6632,2.6855,2.9065,0.0,2.5134,2.5038,2.5153,2.572,2.6535,2.7461,2.8876,3.0546,3.242,3.3118,3.358,3.5297,3.5782,3.5782,3.5791,3.5795,3.5795,3.5786,3.5782,3.5959,3.6565,3.6801,3.7069,3.7784,3.8009,3.808,3.808,3.8766,3.9624,4.044,4.2144,4.3658,4.4565,4.554,4.6135,4.6095,4.6084,4.6418,4.7298,4.8044,4.8905,4.9876,5.0821,5.1355,5.1355,5.1355,5.136,5.1367,5.139,5.1394,5.1394,5.1394,5.1394,5.1394,5.1394,5.1394,5.1394,5.1394,5.1394,5.1394,5.1394,5.1394,5.1394,5.1394,5.1394,5.1394,5.1394,5.1394,5.1396,5.1405,5.1408,5.1408,0.0,0.0,0.0,0.0,0.0,0.0,0.0,0.0,0.0,0.0,1.6424,1.6474,0.0,0.0,0.0,0.0,0.0,0.0,0.0,0.0,0.0,1.9701,1.9897,2.0612,2.2011,2.2211,2.2301,2.2301,2.3081,2.3537,2.3694,2.4545,2.5035,2.5167,2.5197,2.5224,2.5205,2.5054,2.5399,2.5974,2.5245,2.4968,2.5008,2.5147,0.0,0.0,2.4937,2.572,2.6523,2.7415,2.8427,2.9769,3.2218,3.3015,3.3401,3.5185,3.5728,3.5723,3.5782,3.5795,3.5782,3.5723,3.5728,3.5727,3.5742,3.6297,3.6851,3.6993,3.7511,3.7928,3.7928,3.799,3.8346,3.9319,4.0911,4.2414,4.351,4.4941,4.5903,4.602,4.5979,4.656,4.8114,4.8363,4.9076,5.0672,5.0964,5.1069,5.1069,5.1069,5.1128,5.1222,5.1335,5.1394,5.1394,5.1394,5.1394,5.1394,5.1394,5.1394,5.1394,5.1394,5.1394,5.1394,5.1394,5.1394,5.1394,5.1394,5.1394,5.1394,5.1394,5.1394,5.1394,5.1396,5.1396,5.1398,0.0,0.0,0.0,0.0,0.0,0.0,0.0,1.799,1.8009,1.7995,1.799,1.786,1.7508,1.7793,1.8187,0.0,0.0,0.0,0.0,0.0,0.0,0.0,0.0,0.0,2.0472,2.1353,2.1794,2.1794,0.0,2.2464,2.2491,2.3034,2.3299,2.3299,2.3371,2.3396,2.3396,2.3396,2.3439,2.3496,2.3562,2.3417,2.3172,0.0,0.0,0.0,2.488,2.5459,2.5892,2.6746,2.7618,2.8829,3.1448,3.2605,3.3249,3.4588,3.5276,3.559,3.5634,3.5644,3.5634,3.5596,3.5604,3.5575,3.5477,3.5418,3.5386,3.535,3.5254,3.5324,3.5791,3.622,3.6953,3.8293,3.9996,4.1644,4.3141,4.4376,4.5293,4.5782,4.577,4.6399,4.8071,4.8202,4.8905,5.0665,5.08,5.0847,5.0996,5.1002,5.1031,5.1084,5.1155,5.1195,5.1195,5.1195,5.1238,5.1294,5.1294,5.133,5.1394,5.1394,5.1394,5.1394,5.1394,5.1394,5.1394,5.1394,5.1394,5.1394,5.1394,5.1394,5.1394,5.1394,5.1394,5.1394,0.0,0.0,0.0,0.0,0.0,0.0,0.0,1.9069,1.9104,1.9109,1.906,1.8818,1.8231,1.8206,1.8484,0.0,0.0,0.0,0.0,0.0,0.0,0.0,0.0,0.0,1.904,0.0,0.0,2.1262,2.1445,0.0,0.0,0.0,0.0,0.0,2.207,2.2109,2.2109,2.2109,2.2131,0.0,0.0,2.2256,2.2184,0.0,0.0,0.0,0.0,2.5191,2.5325,2.6141,2.6975,2.8096,3.0312,3.1776,3.2896,3.4166,3.4847,3.5239,3.5456,3.5501,3.5495,3.5489,3.5483,3.5419,3.5168,3.457,3.4012,3.3762,3.3177,3.2909,3.3605,3.4488,3.559,3.7072,3.8962,4.0889,4.2725,4.3819,4.4723,4.5607,4.5615,4.6191,4.7836,4.7988,4.8708,5.0448,5.0593,5.071,5.0926,5.0966,5.0985,5.0985,5.099,5.1002,5.1002,5.1002,5.1053,5.1155,5.1155,5.1211,5.1302,5.1302,5.133,5.136,5.136,5.1367,5.1394,5.1394,5.1394,5.1394,5.1394,5.1394,5.1394,5.1394,5.1394,5.1394,0.0,0.0,0.0,0.0,0.0,0.0,0.0,1.8984,1.9095,1.9095,1.8941,1.8807,1.8726,1.8893,1.903,0.0,0.0,0.0,0.0,0.0,0.0,0.0,0.0,0.0,0.0,0.0,0.0,1.9536,2.0254,0.0,0.0,0.0,0.0,0.0,0.0,2.1835,2.1835,2.1835,0.0,0.0,0.0,0.0,0.0,0.0,0.0,0.0,0.0,2.5191,2.5325,2.6141,2.6975,2.7873,2.8835,3.0256,3.2032,3.4566,3.4793,3.4416,3.5264,3.5501,3.5496,3.5409,3.54,3.518,3.432,3.4068,3.3773,3.2986,3.2756,3.2718,3.2795,3.3536,3.4412,3.5302,3.7536,3.981,4.1663,4.3203,4.4534,4.5584,4.553,4.6109,4.7835,4.7928,4.8637,5.0376,5.0572,5.0643,5.0721,5.083,5.0917,5.0917,5.0966,5.1002,5.1002,5.1002,5.1008,5.102,5.102,5.1025,5.1036,5.1036,5.1094,5.1214,5.1214,5.1291,5.1394,5.1394,5.1394,5.1394,5.1394,5.1394,5.1394,5.1394,5.1394,5.1394,0.0,0.0,0.0,0.0,0.0,0.0,1.922,1.9349,1.9558,2.0007,1.9997,1.9779,1.9333,1.9359,1.9269,1.895,0.0,0.0,0.0,0.0,0.0,0.0,0.0,0.0,0.0,0.0,1.9297,1.9297,1.962,0.0,0.0,0.0,0.0,0.0,0.0,2.0307,2.0307,2.0307,0.0,0.0,0.0,0.0,0.0,0.0,0.0,0.0,0.0,0.0,2.5249,2.5568,2.6236,2.7147,2.8478,2.935,3.03,3.2441,3.3527,3.4117,3.4506,3.4597,3.4582,3.4557,3.4561,3.4316,3.3421,3.2439,3.1599,3.1274,3.0388,3.0006,3.1006,3.1484,3.2477,3.4827,3.6481,3.8472,4.127,4.2631,4.3857,4.534,4.5419,4.6007,4.7712,4.7862,4.8562,5.0301,5.05,5.0582,5.0633,5.073,5.0775,5.0775,5.0816,5.0819,5.0819,5.0819,5.0867,5.0944,5.0944,5.0966,5.1002,5.1002,5.1031,5.1074,5.1074,5.1118,5.1155,5.1155,5.1207,5.1288,5.1288,5.1327,5.1394,5.1394,5.1394,5.1394,0.0,0.0,0.0,0.0,0.0,1.8728,1.9381,1.9545,1.9857,2.0602,2.065,2.0418,1.9883,1.9621,1.9367,1.9058,1.7552,0.0,0.0,0.0,0.0,0.0,0.0,0.0,0.0,0.0,1.9277,1.9277,1.9277,1.9379,0.0,0.0,1.9753,1.9989,0.0,0.0,0.0,0.0,0.0,0.0,0.0,0.0,0.0,0.0,0.0,0.0,0.0,0.0,0.0,0.0,0.0,2.6612,2.779,2.8688,2.9624,3.1343,3.2516,3.3299,3.3547,3.3624,3.3624,3.3624,3.3624,3.3318,3.2203,3.1045,3.0058,2.9555,2.8523,2.8141,2.9555,3.0032,3.114,3.3998,3.5602,3.7596,4.0766,4.2126,4.3444,4.5187,4.5548,4.6214,4.7654,4.8246,4.9064,5.0306,5.0468,5.0521,5.0593,5.0653,5.0712,5.0712,5.0712,5.0712,5.0712,5.0712,5.074,5.0833,5.0833,5.0879,5.0905,5.0905,5.0926,5.0966,5.0966,5.0991,5.1002,5.1002,5.1053,5.1141,5.1141,5.1214,5.1333,5.1333,5.1362,5.1394,0.0,0.0,0.0,0.0,0.0,0.0,1.9125,1.9421,1.9857,2.0602,2.0524,2.0394,2.0394,1.9688,1.9312,1.9577,1.7639,0.0,0.0,0.0,0.0,0.0,0.0,0.0,0.0,0.0,1.9192,1.9192,1.9192,1.9603,2.0378,2.0378,2.0859,2.1651,0.0,0.0,0.0,0.0,0.0,0.0,0.0,0.0,0.0,0.0,0.0,0.0,0.0,0.0,0.0,0.0,0.0,0.0,0.0,2.816,3.051,3.2203,3.2145,3.1694,3.2508,3.2718,3.2718,3.2718,3.2718,3.2279,3.0605,3.0211,2.9726,2.8064,2.772,2.7943,2.8758,2.9631,3.0758,3.2451,3.4857,3.7396,3.9954,4.1753,4.3444,4.5187,4.6035,4.6844,4.7712,4.9308,5.0306,5.0401,5.0468,5.0521,5.0593,5.0653,5.0712,5.0712,5.0712,5.0712,5.0712,5.0712,5.0693,5.0693,5.0693,5.0693,5.0693,5.0693,5.0785,5.0894,5.0894,5.0944,5.1002,5.1002,5.1002,5.1008,5.1008,5.1079,5.1203,5.1203,5.1291,5.1394,0.0,0.0,0.0,0.0,0.0,0.0,0.0,1.9814,2.0353,2.1626,2.1744,2.1517,2.1003,2.0241,1.9716,1.9608,1.8144,0.0,0.0,0.0,0.0,0.0,0.0,0.0,0.0,0.0,2.0022,2.0022,2.0577,2.096,2.1215,2.1215,2.137,2.1616,2.1405,2.1002,0.0,0.0,0.0,0.0,0.0,0.0,1.9599,0.0,0.0,0.0,0.0,0.0,0.0,0.0,0.0,0.0,0.0,0.0,0.0,2.8962,3.0293,3.1496,3.1801,3.1878,3.1752,3.114,3.0987,3.0548,2.8867,2.8026,2.7453,2.6918,2.637,2.6427,2.781,2.8313,2.9421,3.2241,3.4342,3.6719,3.987,4.1734,4.3434,4.5137,4.6549,4.7502,4.7769,4.9328,5.0314,5.0325,5.0348,5.0404,5.0521,5.0542,5.0613,5.0702,5.0712,5.0712,5.0712,5.0712,5.0712,5.0712,5.0712,5.0712,5.0712,5.0712,5.0721,5.0767,5.0767,5.0784,5.0789,5.0789,5.0844,5.093,5.093,5.0992,5.1063,5.1063,5.1146,5.1258,0.0,0.0,0.0,0.0,0.0,0.0,0.0,1.9575,2.0031,2.1282,2.1434,2.1265,2.0805,2.0061,1.9546,1.9462,1.842,0.0,0.0,0.0,0.0,0.0,0.0,0.0,1.8406,1.9689,2.0516,2.0825,2.1325,2.1707,2.2016,2.2016,2.218,2.2454,2.2209,2.1853,0.0,0.0,0.0,0.0,0.0,0.0,1.9489,0.0,0.0,0.0,0.0,0.0,0.0,0.0,0.0,0.0,0.0,0.0,0.0,0.0,2.8542,3.0082,3.0426,3.0758,3.0796,2.9937,2.9707,2.9268,2.7587,2.6784,2.6307,2.6007,2.5797,2.6064,2.7453,2.8217,2.9535,3.226,3.4396,3.6793,3.9871,4.1734,4.3521,4.5507,4.6959,4.7922,4.8258,4.9519,5.0302,5.0302,5.0314,5.0371,5.0457,5.0511,5.0582,5.0653,5.0702,5.0712,5.0712,5.0712,5.0712,5.0712,5.0712,5.0712,5.0712,5.0712,5.0712,5.0712,5.0712,5.0712,0.0,5.0712,5.0749,5.0816,5.0816,5.0875,5.0953,5.0953,5.1033,5.1137,0.0,0.0,0.0,0.0,0.0,0.0,0.0,1.8894,1.9164,1.99,2.0002,2.0002,2.0002,1.935,1.8988,1.9189,0.0,0.0,0.0,0.0,0.0,0.0,0.0,0.0,1.9125,1.9984,2.0816,2.1557,2.1631,2.2047,2.2771,2.2771,2.3182,2.386,2.3173,2.2857,0.0,0.0,0.0,0.0,1.9297,1.9297,0.0,0.0,0.0,0.0,0.0,0.0,0.0,0.0,0.0,0.0,0.0,0.0,0.0,0.0,0.0,0.0,0.0,2.9357,2.9803,2.8936,2.872,2.8306,2.667,2.6364,0.0,2.544,2.5931,2.6765,2.7625,2.9115,3.0777,3.2516,3.4925,3.7485,4.0033,4.1877,4.3837,4.6214,4.7272,4.8143,4.9033,4.9824,5.0302,5.0302,5.0367,5.0401,5.0401,5.053,5.0593,5.0603,5.0653,5.0702,5.0712,5.0712,5.0712,5.0712,5.0712,5.0712,5.0712,5.0712,5.0712,5.0712,5.0712,5.0712,5.0712,5.0712,5.0712,5.0712,5.0712,5.0785,5.0898,5.0898,5.0937,5.1008,0.0,0.0,0.0,0.0,0.0,0.0,0.0,0.0,0.0,0.0,2.0002,2.0002,2.0002,1.935,1.8988,0.0,0.0,0.0,0.0,0.0,0.0,0.0,0.0,0.0,1.9459,2.1024,2.1928,2.2107,2.288,2.3361,2.3542,2.3542,2.3643,2.3827,2.3697,2.302,0.0,0.0,0.0,0.0,1.9297,1.9297,0.0,0.0,0.0,0.0,2.1975,2.2987,0.0,0.0,0.0,0.0,0.0,0.0,0.0,0.0,2.6064,2.6746,2.6937,0.0,2.8083,2.7205,2.6995,2.6727,0.0,2.5969,2.6345,2.616,2.6803,2.7644,2.8478,2.9478,3.0963,3.3306,3.5331,3.7704,4.0844,4.3273,4.5165,4.6366,4.7272,4.8143,4.9033,4.9824,5.0302,5.0302,5.0314,5.0356,5.0401,5.0435,5.0489,5.0593,5.0613,5.0643,5.0712,5.0712,5.0712,5.0712,5.0712,5.0712,5.0712,5.0712,5.0712,5.0712,5.0712,5.0712,5.0712,5.0712,5.0712,5.0712,5.0712,5.0721,5.074,5.074,5.0825,5.0935,0.0,0.0,0.0,0.0,0.0,0.0,0.0,0.0,0.0,0.0,0.0,1.9,1.9,1.8628,0.0,0.0,0.0,0.0,0.0,0.0,0.0,0.0,0.0,1.9496,2.0629,2.2112,2.3017,2.3356,2.4392,2.49,2.49,2.452,2.4339,2.4349,2.407,2.314,0.0,0.0,0.0,1.9297,1.9297,0.0,0.0,0.0,0.0,0.0,2.1419,2.2487,0.0,2.4382,2.4861,2.5191,0.0,0.0,0.0,0.0,2.5516,2.5854,2.5854,2.6765,2.7491,2.6612,2.6402,2.6294,2.5854,2.6084,2.6517,2.6918,2.7676,2.8516,2.9338,3.0835,3.2538,3.4316,3.6679,3.934,4.2364,4.4259,4.551,4.595,4.7065,4.7979,4.8468,4.9595,5.0302,5.0302,5.0302,5.0314,5.0348,5.039,5.0446,5.0542,5.0582,5.0633,5.0712,5.0712,5.0712,5.0712,5.0712,5.0712,5.0712,5.0712,5.0712,5.0712,5.0712,5.0712,5.0712,5.0712,5.0712,5.0712,5.0712,5.0712,5.0712,5.0712,5.074,5.0827,0.0,0.0,0.0,0.0,0.0,0.0,0.0,0.0,0.0,0.0,0.0,0.0,0.0,0.0,0.0,0.0,0.0,0.0,0.0,0.0,0.0,0.0,0.0,2.0511,2.1917,2.3006,2.391,2.4656,2.5608,2.6099,2.6116,2.543,2.5084,2.4994,2.4301,2.3251,0.0,0.0,2.0894,1.9481,1.9352,0.0,0.0,0.0,0.0,0.0,0.0,0.0,0.0,2.3548,2.424,2.4971,2.4953,0.0,0.0,0.0,0.0,0.0,2.5156,2.6263,2.7229,2.6415,2.6313,2.6402,2.6402,2.6593,2.7033,2.7892,2.8726,2.9605,3.0605,3.2638,3.4572,3.5691,3.8697,4.1674,4.3867,4.4882,4.5484,4.5732,4.6961,4.7872,4.8087,4.9438,5.0248,5.0156,5.0181,5.0212,5.0144,5.0193,5.0294,5.0396,5.047,5.0563,5.0673,5.0683,5.0712,5.0712,5.0712,5.0712,5.0712,5.0712,5.0712,5.0712,5.0712,5.0712,5.0712,5.0712,5.0712,5.0712,5.0712,5.0712,5.0712,5.0712,5.0712,5.0712,0.0,0.0,0.0,0.0,0.0,0.0,0.0,0.0,0.0,0.0,0.0,0.0,0.0,0.0,0.0,0.0,0.0,0.0,0.0,0.0,0.0,1.9911,2.0599,2.1347,2.2218,2.3237,2.4116,2.4843,2.5242,2.5583,2.5861,2.5736,2.5464,2.5067,2.4381,2.3581,2.2694,2.207,2.1235,2.0254,1.9565,0.0,0.0,0.0,0.0,0.0,0.0,0.0,0.0,2.2313,2.3208,2.3917,2.3798,0.0,0.0,0.0,0.0,0.0,2.4921,2.5558,2.6042,2.5513,2.5892,2.6402,2.6402,2.7504,2.8765,2.9631,3.0491,3.158,3.3135,3.4332,3.5852,3.8134,4.1374,4.3723,4.4068,4.4813,4.5853,4.7256,4.7646,4.8243,4.9384,4.9979,5.0063,4.9498,4.9716,4.9744,4.9468,4.9468,4.9627,4.9974,5.0062,5.0268,5.0613,5.0663,5.0712,5.0712,5.0712,5.0712,5.0712,5.0712,5.0712,5.0712,5.0712,5.0712,5.0712,5.0712,5.0712,5.0712,5.0712,5.0712,5.0712,5.0712,5.0712,5.0693,0.0,0.0,0.0,0.0,0.0,0.0,0.0,0.0,0.0,0.0,0.0,0.0,0.0,0.0,0.0,0.0,0.0,0.0,0.0,0.0,0.0,1.9985,2.1147,2.2141,2.2885,2.3916,2.4813,2.554,2.6263,2.6739,2.7036,2.6785,2.6122,2.5139,2.4827,2.4056,2.2896,2.2134,2.129,2.0437,0.0,0.0,0.0,0.0,0.0,0.0,0.0,0.0,0.0,0.0,2.2193,2.2961,2.3376,0.0,0.0,0.0,0.0,0.0,2.4861,2.5386,2.5874,2.5725,2.6318,2.7174,2.8087,2.8977,2.9975,3.1286,3.2248,3.3172,3.4238,3.5874,3.7994,4.0816,4.2764,4.4071,4.4475,4.4843,4.5536,4.6744,4.7175,4.7761,4.8772,4.9516,4.9781,4.9427,4.955,4.9565,4.9416,4.9333,4.9439,4.9721,4.9776,4.991,5.0174,5.0336,5.0514,5.0712,5.0712,5.0712,5.0712,5.0712,5.0712,5.0712,5.0712,5.0712,5.0712,5.0712,5.0712,5.0712,5.0712,5.0712,5.0712,5.0712,5.0712,5.0712,0.0,0.0,0.0,0.0,0.0,0.0,0.0,0.0,0.0,0.0,0.0,0.0,0.0,0.0,0.0,0.0,0.0,0.0,0.0,0.0,2.0002,2.0002,2.1485,2.2733,2.3644,2.4457,2.5328,2.6241,2.7057,2.7651,2.7988,2.7612,2.6715,2.5441,2.528,2.4474,2.3189,2.2392,2.1575,2.0731,0.0,0.0,0.0,0.0,0.0,0.0,0.0,0.0,0.0,0.0,0.0,0.0,0.0,0.0,0.0,2.4361,2.4588,2.4639,2.4972,2.5544,2.6194,2.672,2.7366,2.8226,2.9519,3.0392,3.1343,3.2836,3.3826,3.4725,3.5758,3.8037,4.0507,4.2829,4.3592,4.412,4.4718,4.4788,4.5155,4.619,4.6706,4.7348,4.8246,4.9104,4.951,4.9296,4.9358,4.9374,4.9296,4.918,4.9243,4.948,4.951,4.9594,4.9776,5.0012,5.026,5.0575,5.0663,5.0712,5.0712,5.0712,5.0712,5.0712,5.0712,5.0712,5.0712,5.0712,5.0712,5.0712,5.0712,5.0712,5.0712,5.0712,5.0712,5.0712,0.0,0.0,0.0,0.0,0.0,0.0,0.0,0.0,0.0,0.0,0.0,0.0,0.0,0.0,0.0,0.0,0.0,0.0,0.0,0.0,2.0002,2.0002,2.1485,2.297,2.4389,2.4504,2.5233,2.6657,2.6724,2.71,2.7742,2.7561,2.7035,2.6186,2.5514,2.4756,2.3975,2.3161,2.2383,2.1629,2.0749,0.0,0.0,0.0,0.0,0.0,0.0,0.0,0.0,0.0,0.0,0.0,0.0,0.0,2.3368,2.4036,2.4237,2.4422,2.531,2.6049,2.6954,2.8648,2.9201,2.9383,2.9495,3.1363,3.333,3.4264,3.5109,3.6418,3.8893,4.1427,4.3214,4.3435,4.4071,4.4542,4.4527,4.4479,4.5054,4.6742,4.6972,4.7529,4.891,4.9382,4.9343,4.8713,4.8954,4.8988,4.8695,4.866,4.8801,4.9137,4.9198,4.9386,4.9712,4.979,4.9974,5.023,5.0554,5.0712,5.0712,5.0712,5.0712,5.0712,5.0712,5.0712,5.0712,5.0712,5.0712,5.0712,5.0712,5.0712,5.0712,5.0712,5.0712,5.0712,0.0,0.0,0.0,0.0,0.0,0.0,0.0,0.0,0.0,0.0,0.0,0.0,0.0,0.0,0.0,0.0,0.0,0.0,0.0,1.9439,2.0217,2.072,2.1738,2.2784,2.3797,2.4271,2.5218,2.6691,2.7116,2.7444,2.7698,2.8025,2.7508,2.6284,2.6016,2.5225,2.4039,2.3243,2.2758,2.2428,2.1043,2.0327,0.0,0.0,0.0,0.0,0.0,0.0,0.0,0.0,1.9579,2.0096,2.1397,2.2048,2.2588,2.3832,2.4548,2.5046,2.5486,2.6443,2.7658,2.8976,3.0365,3.1617,3.2322,3.3337,3.4655,3.658,3.7634,3.8942,4.1319,4.229,4.2939,4.3472,4.3946,4.4221,4.425,4.4651,4.5413,4.6615,4.7124,4.7762,4.8689,4.9006,4.9042,4.875,4.8838,4.8855,4.8732,4.8642,4.8714,4.8907,4.8942,4.9042,4.9204,4.9439,4.9598,4.9712,5.0006,5.0233,5.038,5.038,5.0504,5.0712,5.0712,5.0712,5.0712,5.0712,5.0712,5.0712,5.0712,5.0712,5.0712,5.0712,5.0712,5.0712,0.0,0.0,0.0,0.0,0.0,0.0,0.0,0.0,0.0,0.0,0.0,0.0,0.0,0.0,0.0,0.0,0.0,0.0,1.8843,1.9592,2.0352,2.1156,2.1904,2.2649,2.3376,2.4118,2.5117,2.6353,2.7137,2.7552,2.755,2.8073,2.75,2.6051,2.6051,2.5272,2.3939,2.3383,2.3086,2.2878,2.1465,2.0749,0.0,0.0,0.0,0.0,0.0,0.0,0.0,0.0,1.9297,1.9591,2.1262,2.1794,2.2125,2.3731,2.4585,2.5147,2.5743,2.6845,2.8162,2.9603,3.1483,3.3322,3.4686,3.5304,3.6145,3.8171,3.9696,4.1138,4.263,4.2863,4.3039,4.3609,4.3846,4.4066,4.4339,4.4859,4.5635,4.6778,4.7315,4.7898,4.8621,4.882,4.8874,4.884,4.884,4.884,4.884,4.8732,4.8732,4.884,4.884,4.8839,4.8909,4.9127,4.9241,4.9239,4.9435,4.9716,5.0068,5.0068,5.0249,5.0544,5.0544,5.0604,5.0712,5.0712,5.0712,5.0712,5.0712,5.0712,5.0712,5.0712,5.0712,5.0712,0.0,0.0,0.0,0.0,0.0,0.0,0.0,0.0,0.0,0.0,0.0,0.0,0.0,0.0,0.0,0.0,0.0,0.0,1.8843,1.9592,2.0352,2.1156,2.1904,2.2634,2.3376,2.4118,2.4863,2.5609,2.6677,2.7197,2.7197,2.7535,2.6919,2.5495,2.5495,2.4811,2.3703,2.3703,2.3432,2.2933,2.2125,2.1272,2.0419,0.0,0.0,0.0,0.0,0.0,0.0,0.0,1.9297,1.9591,2.1262,2.1794,2.2125,2.3731,2.4208,2.4575,2.6172,2.72,2.8393,3.0809,3.2614,3.427,3.609,3.7133,3.7964,3.8859,4.1045,4.2801,4.2706,4.342,4.3974,4.3913,4.3915,4.4161,4.491,4.5004,4.5666,4.7398,4.7619,4.7932,4.8817,4.8909,4.8909,4.8909,4.8909,4.8909,4.8909,4.8909,4.8909,4.8909,4.8909,4.8909,4.8909,4.8909,4.8909,4.8909,4.8909,4.9201,4.9803,4.9803,4.993,5.0195,5.0195,5.038,5.0702,5.0712,5.0712,5.0712,5.0712,5.0712,5.0712,5.0712,5.0712,5.0712,0.0,0.0,0.0,0.0,0.0,0.0,0.0,0.0,0.0,0.0,0.0,0.0,0.0,0.0,0.0,0.0,0.0,0.0,1.8843,1.9592,2.0352,2.1156,2.1904,2.2398,2.2617,2.3864,2.5117,2.637,2.6934,2.7197,2.7213,2.7008,2.6423,2.5491,2.51,2.4485,2.3714,2.3907,2.3607,2.2933,2.2125,2.1272,2.0419,0.0,0.0,0.0,0.0,0.0,0.0,0.0,0.0,0.0,2.1262,2.1794,2.2125,2.3731,2.4997,2.5988,2.6473,2.8007,2.9806,3.1085,3.3036,3.4972,3.6219,3.7558,3.9143,4.1178,4.2653,4.3577,4.3561,4.365,4.3732,4.3818,4.4267,4.4695,4.4967,4.607,4.7046,4.7595,4.8169,4.8614,4.8872,4.8909,4.8909,4.8909,4.8909,4.8909,4.8909,4.8909,4.8909,4.8909,4.8909,4.8909,4.8909,4.8909,4.8909,4.8909,4.8909,4.9108,4.9514,4.9514,4.967,4.9917,5.0123,5.026,5.0369,5.0604,5.0712,5.0712,5.0712,5.0712,5.0712,5.0712,5.0712,5.0712,0.0,0.0,0.0,0.0,0.0,0.0,0.0,0.0,0.0,0.0,1.7549,1.7738,0.0,0.0,0.0,0.0,0.0,0.0,1.8843,1.9592,2.0352,2.1156,2.1904,2.2446,2.2733,2.3611,2.4643,2.5828,2.6617,2.6851,2.656,2.6314,2.5669,2.468,2.4405,2.3955,2.3434,2.3631,2.3319,2.2661,2.1861,2.1079,2.0328,0.0,0.0,0.0,0.0,0.0,0.0,0.0,0.0,0.0,2.1262,2.1794,2.2125,2.3731,2.5107,2.619,2.6521,2.8363,3.0393,3.1213,3.3476,3.6019,3.7933,3.9198,4.0493,4.2323,4.3341,4.3897,4.3897,4.38,4.3734,4.3788,4.4504,4.5167,4.5462,4.6749,4.778,4.813,4.8612,4.8909,4.8909,4.8909,4.8909,4.8909,4.8909,4.8909,4.8909,4.8909,4.8909,4.8909,4.8909,4.8909,4.8909,4.8909,4.8909,4.8909,4.8909,4.901,4.9209,4.9209,4.9362,4.967,5.005,5.0195,5.0237,5.0565,5.0712,5.0712,5.0712,5.0712,5.0712,5.0712,5.0712,5.0712,0.0,0.0,0.0,0.0,0.0,0.0,0.0,0.0,0.0,1.7472,1.7647,1.78,0.0,0.0,0.0,1.78,1.78,1.807,1.8758,1.949,2.0234,2.0953,2.1769,2.2547,2.3274,2.3359,2.3729,2.4406,2.5811,2.615,2.5507,2.5439,2.4709,2.3493,2.3508,2.3319,2.3008,2.3077,2.2805,2.2271,2.1453,2.0801,2.0226,1.9366,0.0,0.0,0.0,0.0,0.0,0.0,0.0,0.0,2.1188,2.1739,2.2106,2.3639,2.4768,2.5668,2.641,2.8429,3.0485,3.1231,3.393,3.725,4.0454,4.145,4.1898,4.2622,4.3381,4.3897,4.3881,4.3865,4.3886,4.3896,4.473,4.5609,4.6322,4.7224,4.8091,4.8816,4.8909,4.8909,4.8909,4.8909,4.8909,4.8909,4.8909,4.8909,4.8909,4.8909,4.8909,4.8909,4.8909,4.8909,4.8909,4.8909,4.8909,4.8909,4.8909,4.8909,4.8909,4.8909,4.9077,4.9427,4.9923,5.0147,5.0183,5.0493,5.0614,5.0614,5.0614,5.0624,5.0644,5.0644,5.0673,5.0712,0.0,0.0,0.0,0.0,0.0,0.0,0.0,0.0,1.7789,1.7715,1.7749,1.78,1.78,1.78,0.0,1.78,1.78,1.7867,1.8031,1.8724,1.9215,1.9396,2.0716,2.1769,2.2516,2.3105,2.3477,2.3644,2.4525,2.4897,2.4728,2.4137,2.3742,2.349,2.3075,2.2929,2.3003,2.3182,2.2975,2.2465,2.1671,2.0971,2.037,1.9554,1.9266,0.0,0.0,0.0,0.0,0.0,0.0,0.0,2.0482,2.1253,2.1996,2.2978,2.4722,2.6374,2.6547,2.8815,3.1182,3.136,3.4375,3.7974,4.0538,4.1733,4.2527,4.3258,4.367,4.3849,4.3682,4.3649,4.3904,4.4618,4.5445,4.6309,4.7194,4.8077,4.8723,4.889,4.8909,4.8909,4.8909,4.8909,4.8909,4.8909,4.8909,4.8909,4.8909,4.8909,4.8909,4.8909,4.8909,4.8909,4.8909,4.8909,4.8909,4.8909,4.8909,4.8909,4.8909,4.8909,4.9077,4.9415,4.9514,4.9698,4.9878,4.9962,4.9987,4.9987,4.9987,5.0111,5.0306,5.0306,5.0464,5.0712,0.0,0.0,0.0,0.0,0.0,0.0,0.0,0.0,1.7519,1.7264,1.746,1.7612,1.7612,1.7612,0.0,0.0,1.78,1.78,1.78,1.8488,1.9063,1.9406,2.0196,2.0991,2.1752,2.2155,2.2513,2.2868,2.3257,2.3628,2.3966,2.3579,2.325,2.2966,2.2716,2.269,2.2829,2.2955,2.2658,2.2074,2.1666,2.1127,2.0512,1.974,1.9506,1.9549,1.9194,0.0,0.0,0.0,0.0,0.0,0.0,0.0,2.1959,2.2749,2.4447,2.6098,2.6502,2.8668,3.1292,3.3256,3.5666,3.818,4.0561,4.1797,4.2654,4.3399,4.3649,4.3716,4.3615,4.3964,4.442,4.4914,4.607,4.71,4.7578,4.8373,4.8909,4.8909,4.8909,4.8909,4.8909,4.8909,4.8909,4.8909,4.8909,4.8909,4.8909,4.8909,4.8909,4.8909,4.8909,4.8909,4.8909,4.8909,4.8909,4.8909,4.8909,4.8909,4.8909,4.8909,4.9012,4.9176,4.9337,4.9488,4.9612,4.9749,4.9803,4.9803,4.9803,4.9897,5.0006,5.0006,5.0202,5.0453,0.0,0.0,0.0,0.0,0.0,0.0,0.0,0.0,0.0,1.6725,1.7055,1.7337,1.7337,1.7337,1.742,0.0,0.0,0.0,1.7726,1.8346,1.9046,1.9778,1.9811,2.0183,2.0987,2.1123,2.1512,2.2124,2.2229,2.2615,2.3207,2.3221,2.2928,2.2394,2.2446,2.2528,2.2596,2.2632,2.2337,2.1843,2.1705,2.137,2.0877,2.0132,1.9944,2.0006,1.9403,1.919,1.9154,1.9029,0.0,0.0,0.0,0.0,2.1888,2.2584,2.4025,2.5576,2.6374,2.8466,3.1329,3.5128,3.678,3.8135,4.0545,4.1767,4.2607,4.3349,4.3548,4.3599,4.3582,4.4237,4.4858,4.5171,4.6471,4.7554,4.7868,4.8481,4.8909,4.8909,4.8909,4.8909,4.8909,4.8909,4.8909,4.8909,4.8909,4.8909,4.8909,4.8909,4.8909,4.8909,4.8909,4.8909,4.8909,4.8909,4.8909,4.8909,4.8909,4.8909,4.8909,4.8909,4.8909,4.8926,4.9193,4.9302,4.9318,4.955,4.9632,4.9632,4.9632,4.9679,4.9735,4.9735,4.9891,5.0135,0.0,0.0,0.0,0.0,0.0,0.0,0.0,0.0,0.0,0.0,1.7005,1.7055,1.7055,1.7055,1.7068,1.7105,1.7325,1.7444,1.7444,0.0,0.0,1.9012,1.9046,1.9401,2.0149,2.0839,2.1241,2.1343,2.1989,2.2347,2.2448,2.2502,2.2451,2.2324,2.2377,2.2446,2.2515,2.2511,2.2673,2.2847,2.2141,2.1931,2.1914,2.1118,2.0834,2.0837,2.0741,2.0705,2.0609,1.9971,1.9759,0.0,0.0,0.0,2.1598,2.1879,2.3593,2.5576,2.6374,2.887,3.1861,3.4509,3.6358,3.8135,4.0545,4.1735,4.2542,4.3349,4.3548,4.3582,4.3513,4.3657,4.4276,4.5781,4.6291,4.7023,4.852,4.8834,4.8909,4.8909,4.8909,4.8909,4.8909,4.8909,4.8909,4.8909,4.8909,4.8909,4.8909,4.8909,4.8909,4.8909,4.8909,4.8909,4.8909,4.8909,4.8909,4.8909,4.8909,4.8909,4.8909,4.8909,4.8909,4.8909,4.896,4.8978,4.8959,4.901,4.9008,4.9008,4.9008,4.9206,4.9457,4.9457,4.9627,4.9838,0.0,0.0,0.0,0.0,0.0,0.0,0.0,0.0,0.0,0.0,0.0,1.6828,1.6993,1.7005,1.7117,1.742,1.7554,1.7624,1.7624,1.7726,1.7935,1.8268,1.8285,1.8628,1.9372,1.9722,2.0327,2.119,2.1515,2.1904,2.2296,2.238,2.2377,2.2366,2.2394,2.246,2.2569,2.2569,2.2672,2.2846,2.2486,2.2409,2.2403,2.1627,2.133,2.1278,2.0824,2.0667,2.0614,2.0293,2.0258,2.0304,2.0035,0.0,0.0,0.0,2.3084,2.4675,2.6533,2.873,3.1117,3.3693,3.5587,3.7331,3.9313,4.0728,4.1864,4.2653,4.322,4.3531,4.3515,4.3985,4.4787,4.6002,4.6695,4.7502,4.8742,4.8909,4.8909,4.8909,4.8909,4.8909,4.8909,4.8909,4.8909,4.8909,4.8909,4.8909,4.8909,4.8909,4.8909,4.8909,4.8909,4.8909,4.8909,4.8909,4.8909,4.8909,4.8909,4.8909,4.8909,4.8909,4.8909,4.8909,4.8909,4.8909,4.8909,4.8909,4.8909,4.8909,4.8909,4.8993,4.9127,4.9127,4.9299,4.9588,0.0,0.0,0.0,0.0,0.0,0.0,0.0,0.0,0.0,0.0,0.0,1.657,1.6763,0.0,0.0,0.0,1.746,1.7554,1.7681,1.7635,1.7658,1.7789,1.7726,1.7996,1.8606,1.8792,1.9464,2.0615,2.1004,2.1478,2.2023,2.2251,2.2377,2.2391,2.2419,2.2487,2.2582,2.2592,2.2632,2.2699,2.2699,2.2699,2.2647,2.2095,2.1871,2.1802,2.1199,2.098,2.0963,2.0773,2.0789,2.09,2.0746,2.1366,0.0,0.0,0.0,2.4128,2.6146,2.8063,3.007,3.2514,3.4555,3.645,3.8285,3.9939,4.1334,4.2139,4.2928,4.3515,4.3515,4.4131,4.4915,4.5745,4.6529,4.7408,4.8428,4.8576,4.8667,4.889,4.8909,4.8909,4.8909,4.8909,4.8909,4.8909,4.8909,4.8909,4.8909,4.8909,4.8909,4.8909,4.8909,4.8909,4.8909,4.8909,4.8909,4.8909,4.8909,4.8909,4.8909,4.8909,4.8909,4.8909,4.8909,4.8909,4.8909,4.8909,4.8909,4.8909,4.8909,4.8909,4.8909,4.8909,4.9061,4.9255,0.0,0.0,0.0,0.0,0.0,0.0,0.0,0.0,0.0,0.0,0.0,1.6236,1.625,1.625,1.6248,1.6275,1.6517,1.6879,1.7384,1.7179,1.7264,1.7789,1.7554,0.0,1.785,1.8538,1.8939,1.9012,2.0479,2.1207,2.1275,2.1972,2.2338,2.2391,2.246,2.2501,2.2515,2.2565,2.2632,2.2699,2.2699,2.2699,2.2699,2.2664,2.2647,2.2647,2.2595,2.2578,2.2474,2.1768,2.1539,2.1451,2.0882,2.1265,2.1954,0.0,0.0,0.0,2.4712,2.6669,2.9074,3.082,3.3168,3.572,3.8138,3.9939,4.1334,4.2139,4.2928,4.3515,4.3515,4.3584,4.3965,4.4831,4.5114,4.5786,4.7452,4.7725,4.8054,4.8816,4.8909,4.8909,4.8909,4.8909,4.8909,4.8909,4.8909,4.8909,4.8909,4.8909,4.8909,4.8909,4.8909,4.8909,4.8909,4.8909,4.8909,4.8909,4.8909,4.8909,4.8909,4.8909,4.8909,4.8909,4.8909,4.8909,4.8909,4.8909,4.8909,4.8909,4.8909,4.8909,4.8909,4.8909,4.8926,4.8926,0.0,0.0,0.0,0.0,0.0,0.0,0.0,0.0,0.0,0.0,0.0,0.0,0.0,1.7108,1.699,1.6746,1.6802,1.6942,1.713,1.7055,1.6954,1.6842,1.6758,1.6825,1.7084,1.7177,1.7694,1.8647,1.9211,1.9712,2.018,2.0611,2.1109,2.1641,2.216,2.2419,2.2501,2.2487,2.2542,2.2619,2.2579,2.2884,2.3337,2.3337,2.3663,2.4124,2.4149,2.3836,2.3371,2.3095,2.2699,2.2263,2.2059,2.2183,2.2421,2.2491,2.2925,2.353,2.4224,2.5829,2.7741,2.9502,3.1805,3.4135,3.6035,3.7694,3.9135,4.0159,4.143,4.2412,4.2674,4.3217,4.3893,4.4757,4.497,4.5441,4.6601,4.6802,4.7132,4.8036,4.8129,4.8333,4.8853,4.8909,4.8909,4.8909,4.8909,4.8909,4.8909,4.8909,4.8909,4.8909,4.8909,4.8909,4.8909,4.8909,4.8909,4.8909,4.8909,4.8909,4.8909,4.8909,4.8909,4.8909,4.8909,4.8909,4.8909,4.8909,4.8909,4.8909,4.8909,4.8909,4.8909,4.8909,4.8909,4.8909,0.0,0.0,0.0,0.0,0.0,0.0,0.0,0.0,0.0,1.8146,0.0,0.0,0.0,0.0,1.7601,1.7112,1.7061,1.7006,1.6869,1.6776,1.657,1.6208,1.6112,1.6088,1.6128,1.5951,1.644,1.7671,1.8,1.8535,1.924,1.9765,2.0433,2.1247,2.1715,2.2143,2.246,2.246,2.2665,2.2969,2.2915,2.3388,2.4162,2.4391,2.4817,2.5311,2.534,2.4996,2.4483,2.4199,2.3801,2.3395,2.3106,2.2892,2.2699,2.2699,2.2699,2.2855,2.3563,2.4769,2.6241,2.7964,3.0261,3.2498,3.4077,3.6059,3.7811,3.8563,4.0112,4.1451,4.2008,4.2674,4.3436,4.4282,4.4497,4.484,4.5737,4.588,4.6246,4.7183,4.7293,4.7516,4.8036,4.8333,4.85,4.85,4.876,4.8909,4.8909,4.8909,4.8909,4.8909,4.8909,4.8909,4.8909,4.8909,4.8909,4.8909,4.8909,4.8909,4.8909,4.8909,4.8909,4.8909,4.8909,4.8909,4.8909,4.8909,4.8909,4.8909,4.8909,4.8909,4.8909,4.8909,4.8909,4.8909,0.0,0.0,0.0,0.0,0.0,0.0,0.0,0.0,1.8253,1.8268,0.0,0.0,0.0,0.0,0.0,1.7285,1.7224,1.7061,1.6633,1.6375,1.6155,1.5982,1.5723,1.5388,1.5011,1.4984,1.532,1.6012,1.6997,1.7816,1.8477,1.9467,2.0395,2.1219,2.1183,2.161,2.2391,2.2525,2.3007,2.369,2.3693,2.423,2.5114,2.5777,2.6102,2.6182,2.6121,2.6073,2.592,2.506,2.4834,2.48,2.3961,2.3247,2.2699,2.2699,2.2699,2.2699,0.0,0.0,0.0,2.6169,2.8482,3.0823,3.2465,3.5236,3.7452,3.7506,3.9049,4.0637,4.1434,4.1937,4.2508,4.3332,4.3529,4.3927,4.484,4.5016,4.5412,4.6347,4.6457,4.6475,4.6494,4.7218,4.7664,4.7664,4.8407,4.8872,4.8872,4.8873,4.8891,4.8909,4.8891,4.8891,4.8909,4.8909,4.8909,4.8909,4.8909,4.8909,4.8909,4.8909,4.8909,4.8909,4.8909,4.8909,4.8909,4.8909,4.8909,4.8909,4.8909,4.8909,4.8909,4.8909,4.8909,4.8909,0.0,0.0,0.0,0.0,0.0,1.8176,1.8885,1.8993,1.9178,0.0,0.0,0.0,1.9055,1.8515,1.813,1.7946,1.7915,1.7669,1.7078,1.696,1.6532,1.5689,1.5102,1.4842,1.494,1.4753,1.5089,1.6012,1.6759,1.7224,1.7436,0.0,1.8696,1.9709,1.993,2.0758,2.1988,2.2265,2.283,2.3551,2.3493,2.4628,2.6327,2.6566,2.7316,2.8271,2.8306,2.7997,2.7465,2.6696,2.6141,2.553,2.4187,2.3288,2.2699,2.2699,2.2699,2.2699,2.2699,0.0,0.0,0.0,0.0,0.0,3.0818,3.2406,3.3806,3.5205,3.6821,3.8126,3.8636,3.9968,4.125,4.2068,4.2937,4.364,4.3945,4.4085,4.4498,4.5393,4.557,4.5862,4.6438,4.6698,4.6828,4.6828,4.7571,4.8036,4.8036,4.831,4.8605,4.8891,4.8624,4.8605,4.8909,4.8909,4.8909,4.8909,4.8909,4.8909,4.8909,4.8909,4.8909,4.8909,4.8909,4.8909,4.8909,4.8909,4.8909,4.8909,4.8909,4.8909,4.8909,4.8909,4.8909,4.8909,0.0,0.0,1.75,1.85,1.8669,1.89,1.961,1.9718,1.9857,0.0,0.0,0.0,1.9765,1.9331,1.8961,1.8684,1.8669,1.8361,1.7669,1.7362,1.6788,1.5837,1.5149,1.4589,1.4199,1.4043,1.4389,1.5249,1.5755,1.6288,1.6841,0.0,1.7892,1.9107,1.9288,2.0292,2.1844,2.2337,2.3097,2.402,2.4603,2.5824,2.7402,2.8049,2.8848,2.965,2.9617,2.9568,2.933,2.8254,2.7262,2.6277,2.509,2.4001,2.3095,2.2785,2.2699,2.2699,2.2699,2.3009,2.3526,2.4301,0.0,0.0,2.8816,3.0351,3.1752,3.3188,3.4843,3.6209,3.6788,3.8205,3.9554,4.0365,4.1469,4.2553,4.3473,4.3667,4.3935,4.4529,4.4668,4.492,4.5417,4.5788,4.5992,4.5992,4.6735,4.7262,4.7385,4.7461,4.7768,4.8346,4.8326,4.842,4.8642,4.8821,4.8909,4.8909,4.8909,4.8909,4.8891,4.8732,4.8642,4.8642,4.8642,4.8642,4.866,4.882,4.8909,4.8909,4.8909,4.8909,4.8909,4.8909,4.8909,4.8909,0.0,0.0,1.7853,1.9179,1.941,1.961,2.0212,2.0366,2.0412,0.0,2.0489,2.0518,2.0518,2.0458,2.0181,1.9564,1.9441,1.9101,1.8361,1.7761,1.71,1.6332,1.567,1.4729,1.3452,1.3344,1.3648,1.4362,1.4582,1.5367,1.661,0.0,0.0,0.0,1.9036,2.0033,2.1741,2.2611,2.3608,2.479,2.6214,2.7402,2.8476,2.9799,3.0449,3.0607,3.0564,3.0987,3.1329,2.9793,2.8371,2.711,2.6353,2.5161,2.3891,2.3047,2.2819,2.2802,2.2716,2.2699,0.0,2.3509,2.4284,0.0,2.6713,2.873,3.0541,3.1265,3.2926,3.4495,3.5287,3.6379,3.7452,3.8327,3.9355,4.0797,4.2947,4.3381,4.3537,4.3735,4.3825,4.3929,4.3989,4.4692,4.5157,4.5157,4.5867,4.6477,4.6856,4.6542,4.668,4.7428,4.7901,4.8172,4.821,4.8642,4.882,4.882,4.8891,4.8909,4.8891,4.8476,4.8306,4.8287,4.823,4.8267,4.8325,4.8678,4.8874,4.8909,4.8909,4.8909,4.8909,4.8909,4.8909,4.8909,1.7884,1.8484,1.9163,1.9965,2.0104,2.015,2.0289,2.0749,2.1103,2.1103,2.1565,2.192,2.192,2.1427,2.1042,2.0919,2.0428,1.9811,1.9116,1.8962,1.8331,1.7055,1.6348,1.5624,1.4824,1.4283,1.4438,1.5329,1.539,1.5814,0.0,0.0,0.0,0.0,1.8662,1.9604,2.1102,2.2653,2.395,2.5096,2.6252,2.7927,2.979,3.0671,3.1382,3.1995,3.2584,3.293,3.2931,3.1509,3.001,2.8544,2.7229,2.625,2.53,2.391,2.354,2.3457,2.2854,2.2699,2.2733,2.2888,2.3474,0.0,2.5229,2.6747,2.8161,2.8903,3.0352,3.1704,3.2449,3.3527,3.4782,3.6232,3.688,3.8113,4.0725,4.1982,4.2689,4.2839,4.3476,4.3929,4.3989,4.4153,4.4246,4.4246,4.4763,4.5366,4.6067,4.5988,4.613,4.6613,4.6971,4.7356,4.7715,4.8173,4.842,4.842,4.875,4.8909,4.8891,4.8476,4.8306,4.8287,4.7897,4.7955,4.8306,4.8382,4.8605,4.8909,4.8909,4.8909,4.8909,4.8909,4.8909,4.8909,1.8546,1.9039,1.9502,2.0181,2.0304,2.0412,2.0749,2.1073,2.1427,2.175,2.2378,2.2917,2.3255,2.2686,2.2305,2.2305,2.1689,2.1011,2.035,1.998,1.9333,1.8284,1.7254,1.6379,1.5716,1.5039,1.4931,1.5396,1.5396,1.5739,0.0,0.0,0.0,0.0,1.8392,1.95,2.1395,2.2984,2.4477,2.5901,2.7079,2.8775,3.0734,3.1461,3.2226,3.2949,3.3677,3.399,3.3952,3.3247,3.2049,3.0626,2.9088,2.8203,2.7358,2.5405,2.4626,2.4232,2.3457,2.2974,2.2699,2.2699,2.2974,0.0,0.0,2.5316,2.6368,2.7109,2.8472,2.9661,3.0041,3.1202,3.237,3.3191,3.4217,3.5438,3.6809,3.9083,4.0795,4.1283,4.1736,4.2207,4.2712,4.2918,4.3217,4.3675,4.3561,4.3807,4.4622,4.4418,4.476,4.5713,4.6146,4.665,4.7248,4.7713,4.7955,4.7937,4.8154,4.8383,4.8587,4.7917,4.7733,4.7917,4.7442,4.7378,4.763,4.7856,4.8076,4.8289,4.8731,4.8909,4.8909,4.8909,4.8909,4.8909,1.9086,1.9395,1.9657,2.0212,2.0412,2.069,2.1211,2.1627,2.2166,2.2983,2.3548,2.4102,2.4656,2.4087,2.3686,2.3686,2.2948,2.2274,2.172,2.1057,2.0335,1.9518,1.8407,1.7423,1.6594,1.5808,1.5455,1.5593,1.5332,1.5547,0.0,0.0,0.0,0.0,0.0,1.9757,2.181,2.3321,2.5008,2.6727,2.802,2.9656,3.1398,3.2291,3.3057,3.3812,3.4662,3.5059,3.5131,3.4979,3.4279,3.3148,3.1359,3.0612,2.9851,2.7345,2.6172,2.5454,2.4491,2.3698,2.3112,2.294,2.2905,2.3026,0.0,0.0,0.0,2.5525,2.6782,2.7799,2.7937,2.8972,2.9799,2.9799,3.1342,3.2529,3.2598,3.5332,3.7846,3.9264,3.9695,4.0182,4.0961,4.1596,4.2263,4.2973,4.249,4.246,4.314,4.2939,4.3377,4.4624,4.5326,4.5957,4.6557,4.7154,4.7464,4.7464,4.7569,4.7795,4.8132,4.7288,4.7093,4.7442,4.6976,4.6817,4.6931,4.7313,4.7527,4.7674,4.8477,4.8732,4.8678,4.8838,4.8838,4.8804,1.9271,1.978,2.0212,2.0289,2.078,2.1211,2.1288,2.2809,2.4425,2.5771,2.6017,2.6094,2.6134,2.5518,2.5066,2.5066,2.3917,2.3148,2.3071,2.2459,2.1504,2.0243,2.0025,1.9331,1.8007,1.6732,1.6393,1.6978,1.5793,1.5547,0.0,0.0,0.0,0.0,1.95,2.0535,2.1481,2.3443,2.5342,2.7153,2.8494,3.0099,3.1864,3.3218,3.4134,3.4899,3.624,3.7058,3.7415,3.6761,3.6531,3.6089,3.377,3.3192,3.2801,2.9725,2.8459,2.7696,2.6232,2.5301,2.4574,2.3853,2.3681,2.3526,2.2957,0.0,2.3957,2.4043,0.0,2.5592,2.6247,0.0,0.0,2.6626,2.7951,2.9068,2.9304,3.086,3.3226,3.6607,3.8205,3.9121,3.9337,4.06,4.1485,4.1704,4.1908,4.211,4.232,4.2622,4.2886,4.3061,4.4425,4.5228,4.5316,4.6427,4.6976,4.6981,4.7399,4.7632,4.7653,4.7138,4.6931,4.6954,4.6477,4.6525,4.6908,4.6954,4.7226,4.7653,4.8172,4.8114,4.7838,4.8623,4.8678,4.842,1.9873,2.0119,2.0304,2.0304,2.0841,2.1565,2.2351,2.4533,2.6457,2.7426,2.7904,2.8288,2.8688,2.8095,2.7511,2.7134,2.6226,2.5333,2.4518,2.384,2.304,2.2089,2.0919,2.001,1.9423,1.8069,1.75,1.7777,1.7224,1.7085,0.0,0.0,0.0,0.0,1.9856,2.0888,2.2012,2.4025,2.5818,2.743,2.9159,3.1004,3.2804,3.3611,3.4872,3.6265,3.6434,3.694,3.7369,3.6627,3.6696,3.6719,3.4787,3.4879,3.5147,3.2064,3.0737,2.9936,2.8473,2.723,2.6143,2.5335,2.5129,2.4939,2.4198,2.3905,2.3802,2.3802,0.0,0.0,0.0,0.0,0.0,0.0,2.6368,2.7104,2.7226,2.8197,3.0252,3.3902,3.5326,3.6594,3.8079,3.9079,4.0,4.0953,4.1014,4.1225,4.1709,4.1969,4.2324,4.2798,4.343,4.4202,4.5098,4.5594,4.6059,4.6501,4.6695,4.6931,4.7182,4.6719,4.6649,4.6863,4.6398,4.6301,4.6501,4.6501,4.6602,4.684,4.7291,4.7527,4.7653,4.7999,4.8037,4.7917,2.0148,2.0218,2.0366,2.0551,2.1119,2.2151,2.3871,2.6149,2.798,2.8842,2.9535,3.0212,3.0889,3.0366,2.975,2.9258,2.8442,2.7519,2.648,2.5604,2.4856,2.4179,2.2382,2.1227,2.0875,1.95,1.8699,1.8499,1.8299,1.8191,0.0,0.0,0.0,0.0,2.0397,2.1488,2.2736,2.4948,2.6688,2.8119,3.0151,3.2167,3.4023,3.4451,3.5715,3.7191,3.6649,3.6904,3.7425,3.6864,3.7061,3.7274,3.6018,3.6367,3.6686,3.4041,3.2785,3.193,3.0562,2.9197,2.7991,2.7214,2.673,2.623,2.5471,2.4681,2.4077,2.3853,2.3802,0.0,0.0,0.0,0.0,0.0,0.0,2.5417,2.5294,2.614,2.7977,3.1166,3.271,3.43,3.631,3.7423,3.8472,3.9593,3.9995,4.0446,4.1009,4.1348,4.1801,4.2396,4.267,4.3342,4.4466,4.4839,4.533,4.5898,4.6084,4.635,4.6695,4.635,4.6398,4.6695,4.635,4.6196,4.6196,4.6196,4.6196,4.6221,4.6572,4.6908,4.7248,4.7506,4.7527,4.7421,1.9726,2.0028,2.0505,2.115,2.1827,2.3163,2.5804,2.7457,2.8842,3.0156,3.092,3.1582,3.2259,3.1747,3.1332,3.1316,3.0104,2.9335,2.9264,2.8042,2.6995,2.6318,2.4933,2.3563,2.2274,2.0919,1.9919,1.9256,1.8545,1.8191,1.8222,0.0,0.0,0.0,2.1365,2.2609,2.344,2.618,2.8119,2.952,3.152,3.3567,3.5506,3.6184,3.6828,3.7399,3.7354,3.7748,3.8246,3.8258,3.8325,3.8389,3.8097,3.7755,3.7163,3.5435,3.4395,3.3545,3.2278,3.1172,3.0244,2.9558,2.8316,2.704,2.6247,2.5505,2.4747,2.3957,2.3802,2.3578,2.2871,0.0,0.0,0.0,0.0,0.0,0.0,2.4497,2.6247,2.8375,3.0949,3.2856,3.3653,3.5748,3.7066,3.7103,3.8854,3.9983,4.0113,4.0956,4.142,4.1438,4.2326,4.2833,4.2863,4.4242,4.4994,4.515,4.574,4.6073,4.6221,4.6196,4.6196,4.6221,4.6196,4.6196,4.6196,4.6196,4.6196,4.6196,4.6221,4.6221,4.635,4.727,4.7313,4.6999,1.9291,1.9737,2.0356,2.1167,2.1858,2.3363,2.6549,2.8541,3.0186,3.1551,3.2305,3.2982,3.3719,3.3146,3.2711,3.2724,3.1901,3.1195,3.074,2.9889,2.8904,2.7765,2.6411,2.5041,2.3656,2.232,2.1304,2.061,1.9933,1.9577,1.9592,0.0,0.0,0.0,2.1596,2.2671,2.3471,2.6226,2.8427,3.0309,3.326,3.5122,3.6184,3.6399,3.6647,3.68,3.68,3.6952,3.7118,3.7118,3.7401,3.7668,3.7106,3.7714,3.8233,3.6341,3.5894,3.5666,3.3971,3.3134,3.2483,3.141,3.0643,2.997,2.93,2.7782,2.6437,2.6178,2.487,2.3733,2.3474,0.0,0.0,0.0,0.0,0.0,0.0,2.3919,2.4963,2.5512,2.8028,0.0,0.0,0.0,0.0,0.0,3.696,0.0,3.9874,4.0339,4.0772,4.1237,4.1579,4.1986,4.2527,4.3474,4.4265,4.4838,4.5531,4.5947,4.6073,4.6073,4.6122,4.6196,4.6196,4.6196,4.6196,4.6196,4.6196,4.6196,4.6196,4.6196,4.6246,4.6572,4.6554,4.6501,1.9529,1.9944,2.0558,2.1307,2.2915,2.4854,2.7052,2.9311,3.1071,3.1933,3.3045,3.3924,3.4393,3.4257,3.394,3.3412,3.3245,3.285,3.2142,3.1472,3.0743,2.9874,2.8299,2.6786,2.5441,2.4071,2.2794,2.1658,2.098,2.0518,2.0304,2.0304,0.0,0.0,2.1812,2.3071,2.4533,2.6795,2.9058,3.1382,3.4306,3.5891,3.6522,3.6753,3.6999,3.7169,3.6938,3.7015,3.7169,3.6938,3.7111,3.7339,3.6841,3.74,3.7983,3.6651,3.6674,3.677,3.5124,3.4677,3.4412,3.3366,3.2559,3.193,3.1551,2.9885,2.837,2.8144,2.6471,2.4956,2.4663,0.0,0.0,0.0,0.0,0.0,0.0,2.3405,2.3897,0.0,0.0,0.0,0.0,0.0,0.0,0.0,0.0,0.0,0.0,3.9805,4.0376,4.114,4.1186,4.1453,4.1975,4.2693,4.3458,4.4296,4.5005,4.556,4.5922,4.5922,4.5972,4.6048,4.6097,4.6122,4.6122,4.6172,4.6196,4.6196,4.6196,4.6196,4.6196,4.6196,4.6196,4.6246,2.0272,2.0628,2.116,2.1798,2.4945,2.7381,2.7449,2.9667,3.1383,3.1498,3.3153,3.4332,3.4307,3.4941,3.4832,3.3478,3.4027,3.4136,3.3454,3.2841,3.2477,3.2391,3.0503,2.8869,2.7596,2.6149,2.4441,2.2459,2.172,2.1011,2.0412,2.0366,0.0,0.0,2.2089,2.3856,2.6403,2.7864,3.0074,3.2721,3.4751,3.5953,3.6661,3.7277,3.7969,3.8523,3.78,3.7969,3.8415,3.7769,3.7554,3.751,3.7445,3.703,3.6554,3.6438,3.6777,3.6952,3.5729,3.5714,3.5868,3.5264,3.3999,3.2904,3.2895,3.1715,3.0431,2.9799,2.8472,2.7161,2.6352,2.4956,0.0,0.0,0.0,0.0,0.0,0.0,0.0,0.0,0.0,0.0,0.0,0.0,0.0,0.0,0.0,0.0,0.0,3.9346,4.0187,4.1024,4.1117,4.1186,4.1186,4.1851,4.2632,4.3499,4.4183,4.4964,4.5795,4.5795,4.5795,4.5812,4.5922,4.5998,4.5998,4.6122,4.6196,4.6196,4.6214,4.6196,4.6196,4.6196,4.6196,4.6196,1.9924,2.0932,2.2493,2.449,2.5912,2.7114,2.8065,2.9595,3.1182,3.2626,3.3249,3.3766,3.424,3.3999,3.3864,3.4032,3.372,3.3483,3.3346,3.368,3.3425,3.2434,3.1903,3.098,2.9648,2.7811,2.6103,2.4533,2.2855,2.1966,2.1781,2.1273,2.1396,2.2086,2.3271,2.4712,2.6465,2.8864,3.1751,3.4797,3.5814,3.6938,3.7954,3.7631,3.8554,3.9828,3.8677,3.8354,3.8477,3.8308,3.8246,3.8155,3.7636,3.7686,3.773,3.6753,3.6897,3.7078,3.5815,3.5833,3.6078,3.546,3.4894,3.4513,3.4521,3.3324,3.215,3.1987,3.0314,2.8664,2.7938,2.6557,0.0,0.0,0.0,0.0,0.0,0.0,0.0,2.2914,0.0,0.0,0.0,0.0,0.0,0.0,0.0,0.0,3.6801,3.819,3.9278,4.0038,4.0671,4.0989,4.0989,4.1684,4.2462,4.3289,4.4025,4.4811,4.5641,4.5641,4.571,4.5795,4.5821,4.5846,4.5846,4.5998,4.6048,4.6048,4.6147,4.6196,4.6196,4.6196,4.6196,4.6196,2.1331,2.2407,2.4029,2.5951,2.6943,2.7807,2.8765,3.019,3.1478,3.2323,3.2914,3.338,3.3741,3.3938,3.4086,3.4121,3.4094,3.3956,3.3668,3.3787,3.3568,3.2825,3.278,3.2178,3.0873,2.972,2.8181,2.6226,2.4471,2.3302,2.2717,2.2058,2.2259,2.3209,2.3963,2.5542,2.7849,3.0905,3.346,3.5568,3.6215,3.7123,0.0,3.7984,3.8831,3.9982,3.9521,3.9351,3.9339,3.9046,3.8954,3.8831,3.8154,3.818,3.8262,3.7217,3.7374,3.7567,3.6275,3.6345,3.6614,3.5944,3.5721,3.5605,3.5571,3.4435,3.3373,3.3438,3.1674,2.9969,2.9527,2.8185,2.6771,0.0,0.0,0.0,0.0,0.0,0.0,0.0,2.342,0.0,0.0,0.0,0.0,0.0,0.0,0.0,0.0,3.7267,3.8594,3.9664,4.0498,4.0912,4.0912,4.1309,4.1912,4.2689,4.3448,4.4233,4.5027,4.5373,4.5537,4.5632,4.5684,4.5718,4.5718,4.5846,4.5922,4.5922,4.5998,4.6023,4.6023,4.6023,4.6097,4.6196,2.3771,2.4516,2.5627,2.6884,2.8067,2.8961,2.9499,3.099,3.191,3.1431,3.2441,3.3137,3.3108,3.4261,3.4731,3.3968,3.459,3.4754,3.4122,3.362,3.333,3.3398,3.3357,3.2776,3.1649,3.1488,3.0204,2.7784,2.629,2.4971,2.3825,2.304,2.3363,2.4594,2.4764,2.6734,3.0135,3.3275,3.5028,3.5706,3.6353,3.703,3.7707,3.8385,3.9062,3.9705,4.0274,4.0489,4.0397,3.9813,3.9613,3.949,3.8846,3.8646,3.8508,3.7831,3.7981,3.8168,3.6956,3.7001,3.7237,3.6499,3.6326,3.6311,3.6227,3.5289,3.4434,3.4537,3.2874,3.1346,3.1141,2.9761,2.8188,2.6791,0.0,0.0,0.0,0.0,0.0,0.0,0.0,0.0,0.0,0.0,0.0,0.0,0.0,0.0,0.0,0.0,3.8134,3.9508,4.0446,4.0912,4.0912,4.0912,4.1274,4.2016,4.2827,4.3586,4.4328,4.5079,4.5397,4.5397,4.5528,4.5563,4.5563,4.5718,4.577,4.5795,4.5795,4.5795,4.5795,4.5795,4.5947,4.6147,2.6088,2.6332,2.6979,2.8494,2.9356,2.9975,3.0425,3.1021,3.152,3.1784,3.2572,3.3114,3.3088,3.3697,3.4077,3.3894,3.4028,3.406,3.3922,3.3951,3.3965,3.3959,3.3552,3.3209,3.2958,3.1869,3.0822,2.9801,2.7867,2.6865,2.6657,2.5379,2.5226,2.6072,2.7196,2.955,3.2813,3.4568,3.5691,3.6368,3.7046,3.7738,3.8415,3.9059,3.9721,4.0336,4.0459,4.0489,4.0474,4.0351,4.032,4.0197,3.9521,3.9305,3.92,3.8539,3.8388,3.8299,3.7539,3.7418,3.7311,3.6631,3.6446,3.6443,3.6327,3.6077,3.5896,3.5866,3.4648,3.3396,3.2812,3.094,2.9353,2.8973,2.7885,0.0,0.0,0.0,0.0,0.0,0.0,0.0,0.0,0.0,0.0,0.0,0.0,0.0,0.0,0.0,3.7909,3.8767,4.017,4.0912,0.0,0.0,4.1274,4.2016,4.2827,4.3586,4.4328,4.5079,4.5397,4.5397,4.5423,4.5423,4.545,4.5581,4.5693,4.5795,4.5795,4.5795,4.5795,4.5795,4.5821,4.5871,2.7766,2.7887,2.8343,2.9736,3.0218,3.0641,3.1315,3.1683,3.1924,3.2131,3.2769,3.3342,3.3651,3.3998,3.4334,3.4644,3.4505,3.4368,3.4368,3.4114,3.3859,3.3578,3.3684,3.3394,3.2739,3.2468,3.2034,3.1393,2.9684,2.8884,2.8935,2.7541,2.7288,2.8027,2.972,3.1567,3.349,3.4891,3.6076,3.7046,3.7369,3.8123,3.9062,3.94,3.9905,4.0489,4.0489,4.0489,4.0489,4.0489,4.0489,4.0428,4.0105,4.0013,3.9874,3.9231,3.9031,3.8893,3.82,3.8015,3.7861,3.7184,3.7015,3.6924,3.6504,3.6113,3.5873,3.5843,3.5015,3.408,3.3345,3.2531,0.0,3.0549,2.9775,0.0,0.0,0.0,0.0,0.0,0.0,0.0,0.0,0.0,0.0,0.0,0.0,0.0,0.0,0.0,3.7404,3.8543,4.0101,4.0912,4.0912,0.0,4.1084,4.1447,4.2637,4.3379,4.3776,4.4906,4.5397,4.5397,4.5397,4.5397,4.5397,4.5476,4.5528,4.5589,4.5589,4.5589,4.5589,4.5589,4.5632,4.5736,2.9177,2.9284,2.9656,3.0791,3.099,3.1275,3.208,3.2459,3.2601,3.2558,3.3115,3.3714,3.4326,3.462,3.5049,3.5722,3.5467,3.5263,3.5181,3.4612,3.4016,3.3509,3.385,3.3545,3.2424,3.2968,3.2941,3.237,3.1279,3.0402,2.9735,2.9398,2.9612,3.0335,3.2074,3.3213,3.3921,3.5168,3.6384,3.7507,3.7661,3.8431,3.9539,3.9644,4.012,4.072,4.072,4.0812,4.0935,4.0935,4.0735,4.0489,4.0489,4.0489,4.0397,3.9859,3.9705,3.9585,3.8875,3.8723,3.8554,3.7877,3.7615,3.7353,3.683,3.6184,3.5691,3.5691,3.5183,3.4523,3.3851,3.3957,0.0,3.2253,3.1636,0.0,0.0,0.0,0.0,0.0,0.0,0.0,0.0,0.0,0.0,0.0,0.0,0.0,3.2817,3.5059,3.7008,3.8565,3.9945,4.0739,4.0912,0.0,4.0912,4.0929,4.2292,4.3034,4.3241,4.4578,4.5242,4.5397,4.5397,4.5397,4.5397,4.5397,4.5397,4.5397,4.5397,4.5397,4.5397,4.5397,4.5397,4.5363,3.041,3.053,3.0831,3.1812,3.1972,3.2106,3.2555,3.3118,3.3342,3.2988,3.3635,3.4299,3.4858,3.5417,3.6115,3.6986,3.6986,3.683,3.6469,3.5886,3.5249,3.4653,3.4188,3.3628,3.305,3.3059,3.2806,3.2233,3.2163,3.0543,2.7656,3.0628,3.2382,3.3059,3.3935,3.469,3.5337,3.6076,3.683,3.7554,3.8169,3.8862,3.9585,4.0166,4.0843,4.1509,4.1509,4.1894,4.2417,4.2417,4.1571,4.0489,4.0489,4.0489,4.0489,4.0413,4.0397,4.0259,3.9582,3.9398,3.9228,3.8585,3.7954,3.7477,3.7415,3.6892,3.6399,3.6399,3.5861,3.536,3.5248,3.4684,3.4388,3.4705,3.3257,3.2215,0.0,0.0,2.9774,0.0,0.0,0.0,0.0,0.0,0.0,0.0,0.0,0.0,0.0,3.5059,3.7008,3.8565,3.9388,4.0146,4.0894,4.0912,4.0912,4.0912,4.1723,4.2499,4.3224,4.4035,4.4768,4.5397,4.5397,4.5397,4.5397,4.5397,4.5397,4.5397,4.5397,4.5397,4.5397,4.5397,4.5042,4.4614,3.1843,3.1882,3.204,3.2384,3.2463,3.2738,3.3574,3.3927,3.4282,3.4798,3.4868,3.5055,3.5608,3.6026,3.6406,3.6731,3.6874,3.6895,3.6726,3.6638,3.6169,3.5211,3.5047,3.4531,3.3607,3.324,3.3198,3.3325,3.304,3.2445,3.1573,3.2554,3.3154,3.3426,3.4122,3.5049,3.6138,3.6815,3.7723,3.8739,3.9,3.949,4.0166,4.0909,4.134,4.1648,4.2063,4.2371,4.2602,4.2602,4.1971,4.117,4.117,4.0843,4.0489,4.0489,4.0489,4.0428,4.0166,4.009,3.992,3.9277,3.8908,3.8616,3.82,3.7584,3.7092,3.7092,3.6553,3.5952,3.5539,3.5524,3.5419,3.4925,3.4175,3.3514,0.0,0.0,0.0,3.1316,0.0,0.0,0.0,0.0,0.0,0.0,0.0,0.0,0.0,3.5027,3.6664,3.8543,3.9429,4.0199,4.0894,4.0912,4.0912,4.0912,4.1654,4.243,4.3224,4.3966,4.4699,4.5397,4.5397,4.5397,4.5397,4.5397,4.5194,4.4852,4.4852,4.4597,4.4254,4.4254,4.4112,4.391,3.2685,3.2685,3.2803,3.313,3.3195,3.3574,3.4724,3.4894,3.5247,3.624,3.6031,3.594,3.6332,3.6516,3.6713,3.6973,3.7118,3.7183,3.7053,3.7227,3.6914,3.5977,3.5885,3.5426,3.445,3.3878,3.3735,3.4034,3.3703,3.331,3.2845,3.2415,3.2803,3.3959,3.4658,3.5627,3.6774,3.7488,3.8462,3.949,3.949,4.0013,4.0858,4.1401,4.1832,4.2248,4.2709,4.3017,4.3187,4.3187,4.274,4.2109,4.1724,4.1247,4.0766,4.0551,4.0489,4.0489,4.0489,4.0489,4.0382,3.9905,3.9644,3.94,3.8908,3.8292,3.7738,3.7538,3.6969,3.6353,3.5876,3.6144,3.6144,3.5299,3.5024,3.4652,3.3907,3.3471,0.0,3.2608,3.2796,3.2623,3.174,0.0,0.0,0.0,0.0,0.0,0.0,3.5225,3.6609,3.8376,3.9238,3.99,4.0402,4.0728,4.0823,4.0638,4.1153,4.1942,4.2954,4.3915,4.4749,4.5397,4.5397,4.5318,4.514,4.514,4.478,4.4202,4.4202,4.391,4.3512,4.3512,4.3393,4.3259,3.2685,3.2685,3.3051,3.4175,3.4384,3.4763,3.5913,3.6083,3.6305,3.692,3.6985,3.6985,3.6998,3.6998,3.7297,3.8088,3.8187,3.8039,3.7719,3.7679,3.7544,3.7201,3.6623,3.61,3.5669,3.5073,3.4477,3.3894,3.4048,3.2409,2.919,2.929,3.1411,3.5212,3.6041,3.6716,3.733,3.8132,3.8893,3.949,3.949,4.0355,4.1586,4.1601,4.2402,4.3578,4.3593,4.4024,4.4594,4.4594,4.4148,4.3347,4.2017,4.1586,4.1447,4.0705,4.0489,4.0489,4.0489,4.0489,4.0489,4.0489,3.9982,3.949,3.9474,3.8985,3.8308,3.7646,3.6969,3.6492,3.6476,3.6476,3.6461,3.6295,3.5966,3.5628,3.5478,3.4913,0.0,3.4113,3.4064,3.3621,3.2412,3.2885,0.0,0.0,0.0,0.0,0.0,3.5751,3.7021,3.7987,3.8606,0.0,3.9216,4.0328,4.0597,4.0003,4.002,4.0772,4.225,4.3809,4.4835,4.5397,4.5397,4.5042,4.4502,4.4502,4.4128,4.3512,4.3512,4.3512,4.3512,4.3512,4.3139,4.2617,3.5012,3.5012,3.5129,3.5495,3.5561,3.5822,3.6606,3.6711,3.6933,3.7534,3.7612,3.7756,3.8122,3.7835,3.7736,3.7952,3.8024,3.7946,3.7866,3.7962,3.782,3.7281,3.727,3.7069,3.672,3.5723,3.5183,3.5114,3.4871,3.415,3.3128,3.3164,3.3875,3.5079,3.5332,3.6093,3.7212,3.8018,3.8736,3.9456,4.0515,4.1201,4.1694,4.2638,4.3239,4.367,4.4132,4.444,4.461,4.461,4.4471,4.4148,4.3254,4.2325,4.1555,4.1324,4.0874,4.0489,4.0489,4.0489,4.0489,4.0489,4.0336,4.0166,4.0166,3.9644,3.8877,3.7738,3.7323,3.703,3.6569,3.6492,3.6477,3.6429,3.6337,3.6105,3.5689,3.5451,3.5138,3.4701,3.4643,3.452,3.4242,3.4291,0.0,0.0,0.0,0.0,0.0,3.5605,3.6763,3.7952,3.8305,0.0,3.9206,3.9575,3.9636,3.9454,3.9454,4.0204,4.1655,4.3139,4.3939,4.4112,4.4112,4.3997,4.3823,4.3823,4.3439,4.2911,4.2911,4.26,4.219,4.219,4.2077,4.1932,3.6109,3.6109,3.6175,3.6397,3.6449,3.6645,3.7246,3.7521,3.7782,3.8161,3.841,3.8671,3.9011,3.8749,3.854,3.854,3.8331,3.8214,3.8214,3.8129,3.7977,3.764,3.7563,3.7506,3.7407,3.6442,3.5868,3.5763,3.5116,3.4734,3.4602,3.4602,3.4713,3.4934,3.5246,3.5981,3.7089,3.8113,3.9015,3.979,4.097,4.179,4.2432,4.3285,4.3762,4.404,4.4471,4.461,4.461,4.461,4.461,4.4548,4.4117,4.3239,4.2248,4.174,4.1278,4.0843,4.0566,4.0489,4.0489,4.0489,4.0489,4.0489,4.0489,3.9967,3.9244,3.8431,3.8061,3.7677,3.6999,3.6876,3.6784,3.6538,3.6492,3.6369,3.6059,3.5997,3.5888,3.5618,3.5511,0.0,0.0,3.526,3.5075,0.0,0.0,3.5736,3.5292,3.6023,3.6858,3.778,3.8124,3.8379,3.8551,3.899,3.9082,3.8865,3.9396,4.0118,4.1062,4.2495,4.329,4.3512,4.3512,4.3363,4.3152,4.3152,4.2771,4.2206,4.2206,4.1964,4.1588,4.1588,4.1588,4.1588,3.6227,3.6253,3.6462,3.7024,3.7155,3.7377,3.7939,3.8449,3.8776,3.8776,3.9259,3.9625,3.9664,3.9664,3.9677,3.973,3.9141,3.8776,3.8776,3.8266,3.8031,3.822,3.7667,3.7466,3.7745,3.7147,3.6548,3.5962,3.5129,3.451,3.4126,3.4151,3.445,3.5018,3.577,3.6424,3.7027,3.8413,3.9466,4.0345,4.0934,4.2123,4.3497,4.3543,4.3996,4.461,4.461,4.461,4.461,4.461,4.461,4.461,4.461,4.4178,4.3424,4.2048,4.1632,4.1447,4.0689,4.0489,4.0489,4.0489,4.0489,4.0489,4.0489,4.0013,3.957,3.949,3.9016,3.8369,3.7692,3.7538,3.7292,3.6661,3.6522,3.6492,3.6492,3.6492,3.6554,3.6662,3.6507,0.0,3.5985,3.5853,3.557,0.0,0.0,3.6254,3.6254,3.6853,3.7283,3.7478,3.7985,3.8014,3.751,3.8551,3.8827,3.8335,3.9683,4.0391,4.0531,4.1892,4.2802,4.3317,4.3317,4.3,4.2491,4.2491,4.2126,4.1571,4.1571,4.1571,4.1555,4.1588,4.1588,4.1588,3.7482,3.7808,3.8135,3.8279,3.8684,3.9037,3.9194,3.9311,3.9403,3.9403,3.952,3.9769,4.0187,4.0226,4.0409,4.088,3.9978,3.9403,3.9403,3.8841,3.8514,3.8594,3.807,3.786,3.8105,3.7479,3.6985,3.6575,3.6563,3.6488,3.6437,3.6562,3.6713,3.6848,3.7084,3.7235,3.7427,3.8374,3.8901,3.9199,4.0456,4.1627,4.2665,4.3178,4.3868,4.461,4.461,4.461,4.461,4.461,4.461,4.461,4.461,4.4502,4.4117,4.2756,4.2001,4.1447,4.0689,4.0489,4.0489,4.0489,4.0489,4.0489,4.0489,4.0366,4.0105,3.9631,3.9351,3.9077,3.84,3.7861,3.7446,3.7292,3.683,3.6492,3.6492,3.6492,3.6523,3.6538,3.6507,3.6491,3.6506,3.6472,3.6469,0.0,0.0,3.6826,3.6826,3.696,3.7172,3.7494,3.7626,3.7642,3.751,3.7772,3.8102,3.845,3.9308,3.9928,4.0388,4.121,4.1638,4.1687,4.1687,4.1604,4.1454,4.1454,4.1355,4.1236,4.1236,4.1236,4.1236,4.1323,4.1357,4.139,3.8684,3.8919,3.9115,3.9115,3.939,3.9612,3.9612,3.9821,3.9978,3.9978,4.0226,4.0501,4.0788,4.0827,4.0958,4.1285,4.0501,3.9978,3.9978,3.9442,3.8998,3.8723,3.8436,3.8194,3.8057,3.7742,3.7385,3.7042,3.692,3.693,3.7002,3.7144,3.723,3.7371,3.7371,3.7414,3.7541,3.8239,3.8797,3.9226,4.0345,4.1317,4.2183,4.2577,4.3006,4.3442,4.3849,4.402,4.402,4.402,4.402,4.402,4.402,4.402,4.3838,4.2876,4.234,4.1832,4.0766,4.0489,4.0489,4.0489,4.0489,4.0489,4.0489,4.0489,4.0397,4.0028,3.9951,3.9736,3.9093,3.8677,3.8215,3.76,3.7184,3.6846,3.6538,3.6492,3.6492,3.6492,3.6492,3.6523,3.66,3.66,3.6631,3.6754,3.6847,0.0,3.6862,3.6938,3.709,3.7271,3.7345,3.7359,3.7359,3.7435,3.7828,3.8523,3.9187,3.9771,4.0318,4.1009,4.1239,4.1117,4.1117,4.1117,4.1117,4.1117,4.1117,4.1117,4.1117,4.1117,4.1117,4.1187,4.1221,4.1205,3.9612,3.9677,3.973,3.973,3.9808,3.9873,3.9873,4.0252,4.0553,4.0553,4.0997,4.1311,4.1311,4.1311,4.1311,4.1311,4.084,4.0553,4.0553,4.003,3.9494,3.8985,3.8893,3.8593,3.8031,3.7952,3.7743,3.7398,3.6942,3.6823,3.6997,3.704,3.7184,3.7426,3.7426,3.7513,3.7711,3.8255,3.8894,3.962,4.0179,4.0958,4.1769,4.1769,4.1867,4.2114,4.2845,4.3086,4.3086,4.3086,4.3086,4.3086,4.3086,4.3205,4.3163,4.2522,4.2371,4.2098,4.0718,4.0231,4.0181,4.0301,4.0301,4.0301,4.0301,4.0405,4.0489,4.0489,4.0489,4.032,3.9736,3.9585,3.9139,3.8,3.7631,3.7292,3.6722,3.6553,3.6492,3.6492,3.6492,3.6492,3.6492,3.6492,3.6492,3.6492,3.66,3.6662,3.6662,3.6831,3.6908,3.6908,3.7089,3.7164,3.7164,3.7345,3.7815,3.8573,3.9141,3.977,4.0394,4.0957,4.1138,4.1016,4.1016,4.1016,4.1016,4.1016,4.1016,4.1016,4.1016,4.1016,4.1,4.1034,4.1034,4.1068,3.9612,3.9978,4.0292,4.0292,4.071,4.105,4.105,4.1115,4.1167,4.1167,4.1259,4.1311,4.1311,4.1311,4.1311,4.1311,4.1219,4.1167,4.1167,4.0618,4.0239,4.0161,3.9716,3.9194,3.8593,3.8135,3.7861,3.7815,3.7911,3.7936,3.7981,3.8219,3.8322,3.8381,3.8381,3.8425,3.847,3.8702,3.8894,3.9071,3.937,4.0041,4.0817,4.0817,4.1296,4.2032,4.2155,4.2196,4.2196,4.2196,4.2196,4.2196,4.2196,4.2725,4.3016,4.1582,4.1344,4.1265,3.9875,3.8979,3.8635,3.932,3.9499,3.9499,3.9499,3.999,4.0489,4.0489,4.0489,4.0459,4.0351,3.9874,3.9413,3.9198,3.8246,3.7461,3.7353,3.6861,3.6492,3.6492,3.6492,3.6492,3.6492,3.6492,3.6492,3.6492,3.6523,3.6523,3.6523,3.6554,3.6585,3.6585,3.6877,3.703,3.703,3.706,3.7685,3.8919,3.9029,3.9667,4.0746,4.0839,4.0765,4.0593,4.0593,4.0593,4.0593,4.0593,4.0593,4.0593,4.0593,4.0593,4.0593,4.0765,4.0833,4.0882,4.0527,4.0723,4.0893,4.0893,4.1128,4.1311,4.1311,4.1311,4.1311,4.1311,4.1311,4.1311,4.1311,4.1311,4.1311,4.1311,4.1311,4.1311,4.1311,4.105,4.0762,4.0435,4.0174,3.9782,3.9207,3.8632,3.8331,3.8331,3.8123,3.8057,3.8057,3.8161,3.8285,3.8395,3.8395,3.8453,3.8602,3.8724,3.8756,3.8756,3.8966,3.9339,3.9708,3.9853,4.0172,4.0603,4.1085,4.1254,4.1254,4.1254,4.1254,4.1254,4.1254,4.1532,4.1734,4.1097,4.0543,3.9909,3.8937,3.8399,3.8175,3.8546,3.8657,3.8657,3.8657,3.9284,3.9849,3.9849,4.0196,4.0489,4.0489,4.0243,3.9905,3.9551,3.8985,3.8462,3.8092,3.7461,3.703,3.703,3.6722,3.6492,3.6492,3.6492,3.6492,3.6492,3.6492,3.6492,3.6492,3.6492,3.6492,3.6492,3.6708,3.6908,3.7015,3.7343,3.8044,3.9011,3.9386,3.9989,4.0799,4.0799,4.0696,4.0489,4.0489,4.0489,4.0489,4.0489,4.0489,4.0489,4.0489,4.0489,4.0489,4.0593,4.0627,4.0662,4.1311,4.1311,4.1311,4.1311,4.1311,4.1311,4.1311,4.1311,4.1311,4.1311,4.1311,4.1311,4.1311,4.1311,4.1311,4.1311,4.1311,4.1311,4.1311,4.1311,4.1102,4.0644,4.0488,4.0226,3.9808,3.922,3.8854,3.871,3.8292,3.8031,3.79,3.79,3.7979,3.8122,3.8122,3.8226,3.8434,3.8512,3.8512,3.8557,3.8742,3.8832,3.8877,3.9114,3.9203,3.9278,4.0027,4.0317,4.0317,4.0317,4.0273,4.0216,4.0273,4.0389,4.0505,4.053,3.9641,3.8564,3.8205,3.7838,3.7587,3.7762,3.7814,3.7814,3.7814,3.8436,3.9,3.9,3.9499,3.9955,3.9955,4.0076,4.0063,3.9543,3.948,3.9305,3.8816,3.8169,3.7738,3.7738,3.7277,3.6892,3.6738,3.6722,3.6661,3.6507,3.6492,3.6492,3.6492,3.6492,3.6569,3.6722,3.6693,3.6816,3.711,3.7639,3.8308,3.9116,3.966,4.02,4.073,4.073,4.0662,4.0489,4.0489,4.0489,4.0489,4.0489,4.0489,4.0489,4.0489,4.0489,4.0489,4.0489,4.0385,4.0231,4.1311,4.1311,4.1311,4.1311,4.1311,4.1311,4.1311,4.1311,4.1311,4.1311,4.1311,4.1311,4.1311,4.1311,4.1311,4.1311,4.1311,4.1311,4.1311,4.1311,4.1298,4.1259,4.071,4.0396,4.0357,3.9821,3.9272,3.871,3.8671,3.8397,3.79,3.79,3.79,3.79,3.79,3.7946,3.7946,3.8135,3.8213,3.8258,3.8498,3.8602,3.8634,3.8832,3.8908,3.8953,3.9278,3.938,3.938,3.938,3.9234,3.9073,3.9336,3.9837,4.0201,3.9577,3.8556,3.7676,3.8031,3.7011,3.6057,3.6819,3.7014,3.7014,3.7014,3.7625,3.8175,3.8175,3.825,3.8287,3.8287,3.8891,3.9376,3.9316,3.9412,3.9474,3.9413,3.8862,3.8431,3.8431,3.8385,3.8123,3.7492,3.743,3.7169,3.6538,3.6492,3.6492,3.6492,3.6492,3.6784,3.7415,3.6846,3.6831,3.7447,3.7509,3.8186,3.948,3.9526,3.9878,4.0524,4.0524,4.0524,4.0489,4.0489,4.0489,4.0489,4.0489,4.0489,4.0489,4.0489,4.0489,4.0489,4.0489,4.0041,3.9391,4.1311,4.1311,4.1311,4.1311,4.1311,4.1311,4.1311,4.1311,4.1311,4.1311,4.1311,4.1311,4.1311,4.1311,4.1311,4.1311,4.1311,4.1311,4.1311,4.1311,4.1311,4.1311,4.1102,4.0971,4.0971,4.0409,3.9991,3.9769,3.9063,3.8606,3.8397,3.807,3.79,3.79,3.79,3.79,3.79,3.7979,3.8011,3.8011,3.8272,3.8362,3.8395,3.8621,3.8711,3.8756,3.8966,3.9056,3.9056,3.9056,3.8997,3.8908,3.8859,3.9024,3.9054,3.8048,3.7537,3.7186,3.6439,3.5964,3.575,3.6097,3.6177,3.6177,3.6177,3.6766,3.7372,3.7372,3.7738,3.8101,3.8101,3.8361,3.8708,3.9233,3.9324,3.954,4.0036,3.9521,3.8956,3.8436,3.8005,3.7474,3.6709,3.6625,3.6522,3.627,3.6255,3.6255,3.6255,3.6727,3.688,3.6645,3.6862,3.7375,3.8123,3.8539,3.9016,3.9524,3.9905,4.0243,4.0489,4.0489,4.0489,4.0489,4.0489,4.0489,4.0489,4.0489,4.0231,3.9778,3.9778,3.9463,3.9,3.9,3.8818,3.8561,4.1311,4.1311,4.1311,4.1311,4.1311,4.1311,4.1311,4.1311,4.1311,4.1311,4.1311,4.1311,4.1311,4.1311,4.1311,4.1311,4.1311,4.1311,4.1311,4.1311,4.1311,4.1311,4.1311,4.1311,4.1311,4.0906,4.0605,4.0409,3.9625,3.9063,3.8697,3.8331,3.807,3.79,3.79,3.79,3.79,3.79,3.79,3.79,3.8057,3.8089,3.8135,3.8362,3.8453,3.8498,3.8756,3.8787,3.8787,3.8787,3.8742,3.8697,3.8634,3.8602,3.8362,3.7163,3.6917,3.6804,3.5447,3.5318,3.5521,3.5602,3.5602,3.5642,3.5669,3.6137,3.652,3.652,3.6947,3.7357,3.7357,3.7534,3.7875,3.845,3.8745,3.9124,3.9657,3.9335,3.8873,3.8296,3.784,3.7237,3.6476,3.6425,3.6353,3.6114,3.61,3.61,3.61,3.6808,3.6981,3.6425,3.7137,3.7819,3.8368,3.888,3.9211,3.944,4.0155,4.0489,4.0489,4.0489,4.037,4.0111,4.0111,3.999,3.9743,3.9743,3.9427,3.8928,3.8928,3.8598,3.8101,3.8101,3.7951,3.7738,4.1311,4.1311,4.1311,4.1311,4.1311,4.1311,4.1311,4.1311,4.1311,4.1311,4.1311,4.1311,4.1311,4.1311,4.1311,4.1311,4.1311,4.1311,4.1311,4.1311,4.1311,4.1311,4.1311,4.1311,4.1311,4.1311,4.1023,4.0422,4.0409,3.9834,3.8723,3.871,3.8423,3.79,3.79,3.79,3.79,3.79,3.79,3.79,3.79,3.79,3.79,3.8122,3.82,3.8213,3.8498,3.8602,3.8602,3.8602,3.8408,3.8258,3.8512,3.8602,3.8362,3.7177,3.6817,3.6564,3.5392,3.5072,3.5113,3.5358,3.5399,3.544,3.5642,3.571,3.571,3.571,3.571,3.571,3.571,3.6362,3.6897,3.6897,3.7548,3.8101,3.8101,3.8101,3.8101,3.8101,3.8101,3.7817,3.7142,3.7084,3.6787,3.6172,3.6079,3.6079,3.6079,3.6715,3.7084,3.7084,3.773,3.8101,3.8101,3.8218,3.8626,3.9305,4.0111,4.0489,4.0489,4.0489,4.0041,3.9269,3.9269,3.8855,3.8101,3.8101,3.8101,3.8101,3.8101,3.8101,3.8101,3.8101,3.7587,3.6897,4.1311,4.1147,4.1097,4.1261,4.1147,4.1097,4.1261,4.1311,4.1311,4.1311,4.1311,4.1311,4.1311,4.1311,4.1311,4.1311,4.1311,4.1311,4.1311,4.1311,4.1311,4.1311,4.1311,4.1311,4.1311,4.1311,4.1219,4.105,4.0618,4.0043,3.9324,3.8906,3.8423,3.79,3.79,3.79,3.79,3.79,3.79,3.79,3.79,3.79,3.79,3.7979,3.7979,3.8024,3.8226,3.8304,3.8304,3.8304,3.8258,3.8213,3.8116,3.8194,3.8034,3.6713,3.6428,3.6307,3.4976,3.4605,3.4688,3.5072,3.5318,3.544,3.548,3.5602,3.5669,3.5521,3.5602,3.5669,3.5521,3.579,3.6243,3.6819,3.7116,3.7448,3.8026,3.8101,3.7875,3.7333,3.7256,3.6954,3.6203,3.6124,3.6041,3.5836,3.5822,3.5822,3.5822,3.6543,3.6718,3.6164,3.6863,3.7,3.6427,3.7589,3.8245,3.8473,3.8708,3.8818,3.8818,3.8818,3.8672,3.8473,3.8473,3.8324,3.8101,3.8101,3.7776,3.7256,3.7256,3.6922,3.6427,3.6427,3.6269,3.6057,4.1311,4.1097,4.0933,4.1097,4.0896,4.0846,4.1097,4.1147,4.1161,4.1261,4.1311,4.1311,4.1311,4.1311,4.1311,4.1311,4.1311,4.1311,4.1311,4.1311,4.1311,4.1311,4.1311,4.1311,4.1311,4.1311,4.1311,4.1311,4.0945,4.0488,3.9913,3.9337,3.8762,3.8214,3.8004,3.79,3.79,3.79,3.79,3.79,3.79,3.79,3.79,3.79,3.79,3.79,3.8057,3.8089,3.8089,3.8089,3.8089,3.8057,3.7946,3.7979,3.786,3.6781,3.638,3.61,3.5041,3.458,3.4481,3.4743,3.499,3.5195,3.5277,3.5399,3.544,3.5318,3.5399,3.544,3.5399,3.5521,3.575,3.6243,3.6322,3.6466,3.6855,3.6894,3.6752,3.6348,3.6322,3.6137,3.575,3.571,3.571,3.571,3.571,3.571,3.571,3.6177,3.6217,3.571,3.6177,3.6177,3.571,3.6635,3.7319,3.7625,3.7951,3.8101,3.8101,3.8101,3.7913,3.7625,3.7625,3.7434,3.7127,3.7127,3.6869,3.6441,3.6441,3.6137,3.571,3.571,3.571,3.571,4.1261,4.1047,4.0883,4.0883,4.0643,4.0542,4.0833,4.0883,4.0997,4.1261,4.1311,4.1311,4.1311,4.1311,4.1311,4.1311,4.1311,4.1311,4.1311,4.1311,4.1311,4.1311,4.1311,4.1311,4.1311,4.1311,4.1311,4.1311,4.1311,4.101,4.0409,3.986,3.9285,3.8684,3.8148,3.79,3.79,3.79,3.79,3.79,3.79,3.79,3.79,3.79,3.79,3.79,3.79,3.79,3.79,3.79,3.79,3.79,3.79,3.79,3.7782,3.7181,3.658,3.5979,3.5443,3.4855,3.4397,3.4397,3.4577,3.4839,3.5044,3.5086,3.5086,3.5086,3.5086,3.5154,3.5318,3.5358,3.5399,3.5399,3.5399,3.5318,3.5154,3.5127,3.5154,3.5358,3.5358,3.544,3.5642,3.5669,3.5669,3.571,3.571,3.571,3.571,3.571,3.571,3.571,3.571,3.571,3.571,3.571,3.6057,3.678,3.7548,3.7875,3.7875,3.7875,3.7472,3.678,3.678,3.6362,3.571,3.571,3.571,3.571,3.571,3.571,3.571,3.571,3.571,3.571,4.0997,4.0744,4.0643,4.0833,4.0478,4.0338,4.0846,4.0883,4.0997,4.1261,4.1311,4.1311,4.1311,4.1311,4.1311,4.1311,4.1311,4.1311,4.1311,4.1311,4.1311,4.1311,4.1311,4.1311,4.1311,4.1311,4.1311,4.1311,4.1311,4.101,4.0409,3.986,3.9285,3.8684,3.8148,3.79,3.79,3.79,3.79,3.79,3.79,3.79,3.79,3.79,3.79,3.79,3.79,3.79,3.79,3.79,3.79,3.79,3.79,3.79,3.7782,3.7181,3.658,3.5979,3.5443,3.4855,3.4397,3.4397,3.4439,3.4535,3.4797,3.5003,3.5044,3.488,3.5003,3.5086,3.4962,3.5044,3.5236,3.5358,3.5277,3.5195,3.5318,3.5195,3.5127,3.5154,3.5154,3.5195,3.5236,3.5358,3.5521,3.5669,3.571,3.571,3.571,3.571,3.571,3.571,3.571,3.571,3.571,3.571,3.579,3.5937,3.6123,3.6229,3.6229,3.6229,3.6137,3.5937,3.5937,3.5871,3.571,3.571,3.571,3.571,3.571,3.571,3.571,3.571,3.571,3.571,4.0694,4.0491,4.0338,4.0478,4.0185,4.0032,4.0478,4.0643,4.0795,4.1047,4.1211,4.1311,4.1311,4.1311,4.1311,4.1311,4.1311,4.1311,4.1311,4.1311,4.1311,4.1311,4.1311,4.1311,4.1311,4.1311,4.1311,4.1311,4.1311,4.1154,4.0827,4.0004,3.9442,3.9102,3.8279,3.79,3.79,3.79,3.79,3.79,3.79,3.79,3.79,3.79,3.79,3.79,3.79,3.79,3.79,3.79,3.79,3.79,3.79,3.79,3.7848,3.7521,3.6802,3.6044,3.5757,3.5051,3.4397,3.4397,3.4397,3.4439,3.4577,3.4701,3.4743,3.4618,3.4701,3.4784,3.4797,3.488,3.5003,3.5086,3.5044,3.4962,3.4949,3.4812,3.4825,3.4962,3.4962,3.5003,3.5086,3.5195,3.5358,3.5562,3.5562,3.5602,3.5669,3.571,3.571,3.571,3.571,3.571,3.571,3.571,3.571,3.571,3.571,3.571,3.571,3.571,3.571,3.571,3.571,3.571,3.571,3.571,3.571,3.571,3.571,3.571,3.571,3.571,3.571,3.571,4.0453,4.0236,4.0121,4.0173,3.989,3.9788,4.0134,4.0351,4.0605,4.0833,4.1147,4.1311,4.1311,4.1311,4.1311,4.1311,4.1311,4.1311,4.1311,4.1311,4.1311,4.1311,4.1311,4.1311,4.1311,4.1311,4.1311,4.1311,4.1311,4.1311,4.1298,4.0239,3.9703,3.956,3.8514,3.7991,3.79,3.79,3.79,3.79,3.79,3.79,3.79,3.79,3.79,3.79,3.79,3.79,3.79,3.79,3.79,3.79,3.79,3.79,3.79,3.79,3.7116,3.624,3.6136,3.5338,3.4528,3.4424,3.4397,3.4397,3.4397,3.4397,3.4397,3.4397,3.4397,3.4481,3.4714,3.4714,3.4756,3.4797,3.4756,3.4673,3.4481,3.4439,3.4481,3.4714,3.4714,3.4839,3.5044,3.5044,3.5127,3.5318,3.5358,3.544,3.5602,3.5602,3.5602,3.5642,3.5642,3.5669,3.571,3.571,3.571,3.571,3.571,3.571,3.571,3.571,3.571,3.571,3.571,3.571,3.571,3.571,3.571,3.571,3.571,3.571,3.571,3.571,3.571,3.571,4.0121,4.0121,4.0185,4.0402,4.0044,3.9839,4.0351,4.0453,4.0605,4.0833,4.1147,4.1311,4.1311,4.1311,4.1311,4.1311,4.1311,4.1311,4.1311,4.1311,4.1311,4.1311,4.1311,4.1311,4.1311,4.1311,4.1311,4.1311,4.1311,4.1311,4.1298,4.0618,4.0056,3.9586,3.8893,3.8344,3.79,3.79,3.79,3.79,3.79,3.79,3.79,3.79,3.79,3.79,3.79,3.79,3.79,3.79,3.79,3.79,3.79,3.79,3.79,3.79,3.7416,3.6763,3.624,3.5652,3.5051,3.4528,3.4397,3.4397,3.4397,3.4397,3.4397,3.4397,3.4397,3.4397,3.4439,3.4439,3.4535,3.4756,3.4632,3.4535,3.4714,3.4535,3.4397,3.4439,3.4439,3.4577,3.4797,3.4839,3.4921,3.5127,3.5113,3.5154,3.5195,3.5195,3.5277,3.544,3.544,3.5521,3.571,3.571,3.571,3.571,3.571,3.571,3.571,3.571,3.571,3.571,3.571,3.571,3.571,3.571,3.571,3.571,3.571,3.571,3.571,3.571,3.571,3.571,3.989,3.989,3.989,4.0044,3.9852,3.98,3.9993,4.03,4.0555,4.0643,4.106,4.1311,4.1311,4.1311,4.1311,4.1311,4.1311,4.1311,4.1311,4.1311,4.1311,4.1311,4.1311,4.1311,4.1311,4.1311,4.1311,4.1311,4.1311,4.1311,4.1311,4.0697,4.0122,3.9586,3.8985,3.841,3.79,3.79,3.79,3.79,3.79,3.79,3.79,3.79,3.79,3.79,3.79,3.79,3.79,3.79,3.79,3.79,3.79,3.79,3.79,3.79,3.7482,3.6867,3.6266,3.5704,3.5155,3.4554,3.4397,3.4397,3.4397,3.4397,3.4397,3.4397,3.4397,3.4397,3.4397,3.4397,3.4439,3.4577,3.4481,3.4439,3.4577,3.4481,3.4397,3.4397,3.4397,3.4452,3.4577,3.4577,3.466,3.4921,3.4921,3.4962,3.5086,3.5086,3.5113,3.5236,3.5236,3.5318,3.5521,3.5521,3.5602,3.571,3.571,3.571,3.571,3.571,3.571,3.571,3.571,3.571,3.571,3.571,3.571,3.571,3.571,3.571,3.571,3.571,3.571,3.571]}]]